GFSCGP_sfc_rhum_000.txt.gz
RH
23 18 24 22 23 22 23 23 18 14 16 22 18 17 13 11 12 14 16 17 17 18 18 19 23 23 23 24 22 21 23 26 23 23 23 23 24 25 26 23 27 30 26 28
21 26 23 22 22 23 21 23 20 17 18 23 20 18 13 12 13 17 18 17 18 19 20 22 23 26 28 24 23 20 20 23 22 19 20 22 23 21 21 24 30 30 32 30
25 25 22 23 22 23 22 25 23 24 22 17 21 12 13 13 15 18 17 19 20 20 20 22 24 27 29 29 27 23 20 20 22 23 21 22 24 26 23 23 23 28 34 34
23 24 24 23 24 25 26 24 25 26 27 21 23 18 15 15 14 15 18 19 18 19 20 22 22 25 30 30 29 26 22 20 21 26 22 28 21 20 19 24 23 26 32 36
27 25 24 24 27 25 26 25 27 29 30 28 25 25 17 18 16 16 16 18 19 20 22 22 22 23 24 29 32 31 24 23 22 27 30 28 30 24 25 28 34 34 34 35
24 23 24 24 23 26 25 27 27 31 31 41 28 26 18 16 18 18 16 19 21 20 22 22 22 24 24 31 34 34 28 24 26 29 33 36 35 32 30 30 31 28 28 28
22 25 24 26 27 27 27 31 45 48 46 37 28 31 23 19 18 20 21 22 22 22 23 23 22 22 24 26 32 31 28 27 26 32 34 37 38 38 35 33 29 32 29 30
36 33 24 29 30 35 31 32 51 86 48 39 26 34 18 18 18 19 22 22 23 23 23 24 23 24 24 27 28 28 25 28 26 33 37 38 36 30 29 32 30 30 32 33
44 35 30 30 32 32 37 42 33 47 58 58 32 25 21 17 20 22 20 22 24 25 25 24 23 26 27 27 29 33 29 26 28 35 39 37 36 34 30 32 35 31 34 28
42 54 37 33 33 32 35 30 51 50 94 74 31 31 26 24 23 22 23 24 27 28 28 27 26 27 27 28 27 33 34 28 31 34 37 34 35 33 31 35 36 37 37 35
39 52 45 38 36 41 42 45 38 39 48 72 68 39 24 26 25 26 25 26 28 29 29 28 27 27 27 30 32 36 33 29 33 34 39 39 32 31 33 35 36 35 37 36
44 55 65 48 34 35 38 44 42 64 57 58 74 59 27 26 26 28 28 27 27 28 28 27 30 30 29 31 30 33 33 30 32 34 38 36 33 35 37 36 36 38 40 41
47 64 72 46 39 39 42 40 41 49 74 84 95 57 24 24 25 26 28 27 28 30 28 29 32 31 28 30 31 31 32 31 32 32 34 36 38 37 37 37 38 38 41 41
58 58 68 64 46 40 56 46 43 56 96 78 65 51 38 33 31 27 28 29 31 31 31 36 38 30 28 30 30 29 31 34 34 32 32 37 39 40 40 40 40 43 42 41
56 78 56 52 48 51 54 54 51 56 59 86 64 47 38 34 31 31 30 32 34 34 40 41 37 31 27 29 29 29 30 36 36 34 34 34 41 42 40 40 43 42 40 36
53 84 78 84 57 56 66 56 53 51 51 48 50 51 36 32 28 30 32 34 36 43 46 42 37 30 27 27 28 33 36 41 36 36 34 37 42 39 40 41 42 39 35 34
75 89 99 96 60 78 100 80 55 44 42 49 61 47 34 32 33 37 38 39 51 47 53 62 37 28 26 28 37 40 42 38 38 35 36 39 40 41 41 39 34 33 35 36
95 100 96 99 98 98 38 29 31 40 40 38 37 39 34 32 36 50 48 50 58 56 75 62 38 29 31 39 39 46 35 34 37 36 38 37 40 40 39 35 32 33 35 38
63 96 100 100 89 60 43 35 43 51 49 34 35 35 37 46 61 65 45 55 54 72 67 49 47 44 48 54 60 44 33 30 34 37 37 37 40 40 35 33 36 36 40 44
64 89 100 100 100 89 50 34 34 36 60 38 40 52 66 70 95 68 50 69 84 75 61 63 74 82 84 70 47 34 31 30 35 37 39 39 39 36 33 33 35 37 44 50
100 100 100 98 99 80 41 38 40 81 70 57 53 55 59 65 64 62 78 84 68 62 64 74 78 70 57 46 35 36 30 34 38 40 41 39 35 33 32 34 36 39 54 73
83 100 100 100 100 98 38 41 69 54 57 49 51 56 62 65 77 77 86 77 68 75 86 89 72 54 47 47 40 32 29 34 40 41 40 38 36 32 30 36 40 50 63 81
95 83 80 64 70 44 42 49 48 50 56 56 59 54 62 86 76 91 87 79 73 92 86 63 57 54 49 38 33 32 40 39 43 42 41 39 36 32 33 41 54 58 55 69
69 58 85 84 61 49 52 49 48 49 56 52 59 74 91 91 94 89 81 65 95 94 82 54 51 41 37 36 39 36 44 46 41 44 45 42 36 39 39 43 47 56 65 74
75 84 93 91 75 56 53 48 49 51 52 55 62 77 86 95 87 84 67 88 96 92 64 52 45 40 34 39 40 42 43 46 45 51 50 41 41 50 51 50 56 63 68 76
91 87 94 91 56 62 62 48 44 49 57 62 77 79 87 74 76 65 77 96 95 81 58 50 40 36 37 38 42 45 46 47 54 57 50 52 58 59 56 58 62 63 64 69

GFSCGP_sfc_rhum_003.txt.gz
RH
14 15 17 16 17 17 17 17 16 13 13 17 16 15 11 8 8 10 10 12 12 12 11 13 18 20 21 23 23 21 22 23 22 21 22 23 26 25 25 22 26 28 24 28
18 21 17 16 16 16 15 18 17 15 13 17 16 14 10 10 11 11 12 13 14 15 14 16 18 22 25 24 24 21 20 22 23 19 21 21 23 21 22 23 29 31 30 30
17 20 17 17 16 19 16 21 21 21 18 15 16 13 11 12 11 12 13 15 14 16 15 16 19 22 26 27 27 23 20 20 23 23 18 21 24 26 23 23 25 30 34 32
18 18 18 18 17 20 21 20 22 22 23 21 16 16 12 12 12 12 14 15 16 16 16 16 18 20 24 28 28 25 23 21 20 24 23 29 23 22 21 22 20 20 26 31
24 18 18 18 21 21 23 22 25 24 26 24 19 19 12 13 13 13 14 15 16 17 17 18 18 18 19 24 30 30 26 24 22 23 32 31 35 30 24 25 28 31 31 31
15 15 18 19 20 22 22 24 21 23 26 37 24 21 14 13 14 14 14 15 18 18 19 18 18 18 20 26 30 32 29 26 24 25 27 40 43 37 32 35 36 40 35 36
18 19 18 21 23 22 23 28 42 44 40 36 21 26 20 14 14 14 16 17 18 20 21 21 20 20 20 22 26 30 30 29 26 28 31 37 40 40 40 36 35 33 34 31
28 32 20 23 27 33 30 30 51 71 44 37 22 26 17 13 13 14 17 18 20 20 23 23 23 23 22 23 24 26 26 27 26 27 30 33 35 35 35 32 34 34 31 31
38 30 23 25 28 27 32 40 31 47 44 56 33 20 16 14 14 17 18 18 21 23 24 24 24 26 25 26 27 29 27 27 26 27 30 34 38 38 34 33 35 33 32 27
38 48 30 28 28 27 32 28 48 51 90 65 32 31 25 20 18 17 19 22 24 24 25 25 25 27 28 28 28 32 30 28 28 26 31 36 36 35 34 35 36 36 35 34
35 49 41 33 32 33 35 39 36 33 44 68 63 37 22 24 24 23 22 23 24 25 26 26 26 26 28 30 29 30 30 29 31 27 36 38 35 34 33 33 32 34 35 34
41 49 64 43 27 26 29 35 36 58 55 53 61 57 24 24 23 23 24 24 25 25 26 26 27 30 30 30 27 28 30 31 28 31 35 36 35 32 33 35 34 36 36 37
40 56 66 39 33 32 34 29 32 39 54 70 93 60 20 21 24 23 23 24 25 26 27 27 29 34 33 30 28 28 29 30 29 29 33 35 34 35 36 35 36 36 36 35
53 52 62 66 48 38 49 38 35 42 87 68 61 48 34 28 27 26 26 26 26 27 28 29 34 35 39 32 28 28 30 31 29 29 30 36 38 37 35 37 39 38 36 37
50 70 52 45 39 38 40 41 38 40 44 65 51 40 32 29 27 27 27 28 29 31 31 33 41 46 49 34 28 28 28 30 30 33 37 45 40 37 38 39 39 38 38 36
47 82 69 80 52 45 54 42 39 38 37 36 38 39 27 26 27 28 33 34 39 37 34 39 51 58 49 33 28 28 28 32 37 42 46 39 37 37 39 39 40 39 36 33
69 92 98 92 55 77 98 71 48 40 32 34 46 38 28 30 33 37 39 40 41 43 43 50 64 58 45 36 28 28 34 44 61 43 40 38 37 38 40 36 35 36 36 36
88 99 98 99 98 95 38 27 27 33 30 29 30 29 33 37 38 41 41 46 71 65 54 72 62 55 44 41 35 42 59 50 47 45 37 33 35 37 38 37 34 34 35 38
44 93 100 100 82 58 46 31 37 46 45 32 34 38 39 43 47 59 47 66 69 60 78 55 57 51 60 60 66 76 75 48 38 33 32 32 35 39 36 34 36 36 38 40
48 81 100 100 100 94 44 32 31 33 53 40 44 47 58 61 89 77 66 61 72 76 54 53 58 67 84 81 75 60 44 34 34 33 34 34 36 34 33 36 38 37 39 41
99 100 100 98 99 72 40 31 35 75 64 53 49 53 59 65 68 63 71 73 68 53 53 58 76 79 63 61 48 38 36 36 30 34 36 35 32 32 35 36 35 36 44 63
73 100 100 100 100 98 31 35 78 65 54 48 52 55 64 68 70 75 79 77 57 53 54 76 84 60 52 49 44 36 29 27 32 35 36 34 34 34 32 35 36 42 52 73
75 62 73 61 65 43 38 44 42 42 49 58 64 51 69 73 71 71 77 61 55 62 79 76 65 63 54 38 32 30 34 32 36 38 37 38 40 39 34 37 44 49 46 67
77 57 75 75 53 44 45 46 46 48 61 45 51 54 54 62 66 75 64 56 59 84 94 76 66 53 42 33 32 30 37 40 36 40 44 45 45 40 37 40 42 48 62 72
73 75 81 77 58 52 58 55 44 50 48 44 48 52 57 68 65 79 68 55 82 95 85 66 55 46 36 33 34 34 36 43 43 47 50 48 46 46 47 46 47 54 66 75
76 78 90 96 67 69 56 41 40 46 54 51 50 41 38 43 61 65 63 80 95 93 78 62 44 38 33 32 35 37 40 41 52 58 56 61 54 53 53 51 53 60 70 72

GFSCGP_sfc_rhum_006.txt.gz
RH
12 19 19 16 17 15 15 16 16 15 12 15 17 16 13 9 9 12 13 14 15 16 14 18 23 28 30 36 33 32 32 38 37 42 46 46 50 48 49 46 44 49 45 47
14 22 16 14 13 15 13 16 19 17 15 18 18 17 12 11 12 12 13 16 17 17 16 19 24 31 35 35 35 34 33 35 36 36 40 43 46 42 41 45 51 47 51 47
15 20 14 14 15 19 16 23 24 24 20 16 16 14 13 12 12 13 15 16 16 18 20 20 26 33 38 40 42 35 33 33 37 39 36 41 44 46 44 44 45 51 51 53
17 15 16 16 16 19 23 19 23 25 26 29 20 22 13 12 14 14 16 21 22 21 20 21 28 30 36 41 44 40 38 34 33 43 37 46 39 36 35 43 39 36 52 55
24 18 16 18 20 19 24 23 26 24 27 26 20 20 15 13 13 14 17 18 23 24 25 25 25 26 34 37 47 46 42 41 38 42 46 43 48 45 47 49 48 46 48 45
13 14 16 18 18 19 21 24 23 22 27 51 24 24 21 15 14 14 14 17 22 25 28 26 27 28 29 39 43 49 47 38 41 43 47 54 52 53 54 53 55 52 51 54
18 17 17 20 24 20 25 32 57 64 61 55 22 26 25 18 14 15 18 21 26 31 31 32 30 30 34 38 41 47 44 40 41 49 51 51 58 59 58 57 56 52 52 49
32 36 20 22 26 32 30 33 69 73 57 52 30 31 19 13 13 14 16 22 24 30 32 30 31 35 35 39 40 40 36 38 38 43 47 53 54 55 56 56 54 53 51 50
43 32 22 24 24 27 32 41 32 55 58 68 43 28 20 15 15 18 19 20 28 29 31 29 31 36 38 40 42 47 43 38 38 45 52 53 55 55 55 52 54 53 51 38
36 53 29 26 26 27 31 29 51 67 92 66 38 40 34 25 27 26 26 26 29 31 31 32 32 37 38 38 39 47 50 41 39 40 48 46 51 53 50 52 51 50 50 48
35 48 46 36 32 34 33 39 41 37 55 76 77 48 31 32 30 30 28 28 30 31 32 33 34 35 37 40 40 40 40 39 42 44 48 56 51 52 49 47 47 47 52 49
43 52 73 48 31 25 27 35 36 79 69 65 71 62 31 30 28 29 28 27 28 30 30 31 32 34 39 43 45 44 43 42 42 44 51 51 50 48 50 49 49 52 52 52
45 61 70 45 35 31 37 33 33 40 71 70 95 68 29 30 30 27 28 31 31 32 32 34 33 39 42 47 52 50 39 41 40 38 46 49 50 49 49 54 54 50 52 51
55 52 61 74 56 44 53 41 38 44 71 62 60 49 35 30 30 28 32 36 34 34 34 34 38 42 46 52 53 44 36 42 39 38 40 50 48 50 54 54 54 55 53 53
49 76 55 50 45 46 51 49 44 44 44 58 49 40 32 29 28 34 36 38 38 37 40 49 51 46 50 54 53 42 38 39 39 39 40 49 61 59 54 54 56 55 57 50
54 88 85 85 58 51 57 50 47 44 40 39 40 39 28 26 32 37 40 41 45 53 56 57 49 53 55 54 52 39 37 38 40 47 66 71 63 53 53 56 57 58 55 52
65 92 100 88 65 76 92 65 49 42 35 37 51 39 30 32 43 48 50 46 61 61 62 57 62 63 56 54 49 46 47 65 73 77 70 65 64 51 54 50 50 57 58 56
73 99 100 100 100 96 44 33 35 40 36 35 33 33 32 40 49 50 49 63 68 70 66 64 62 58 55 54 60 74 74 67 68 70 70 59 48 48 50 54 54 55 55 57
42 99 100 100 89 64 54 40 43 49 50 36 42 48 50 53 62 64 56 68 81 71 65 63 52 56 61 67 78 85 87 85 80 57 43 40 44 47 51 51 55 57 56 55
63 97 100 100 98 93 64 37 33 36 66 57 61 67 71 69 96 89 63 68 66 62 56 50 56 62 69 78 75 67 64 59 44 42 41 40 45 47 47 52 56 55 57 53
100 100 100 95 95 77 46 36 42 83 93 74 68 76 72 79 84 77 64 66 62 56 47 53 62 72 72 62 60 55 42 42 40 39 40 43 43 42 47 53 52 51 58 70
72 93 97 100 100 93 36 43 84 65 61 63 73 76 78 69 66 63 62 69 60 53 55 61 69 69 62 58 65 46 34 32 37 41 44 45 46 44 41 54 51 55 63 74
79 67 76 65 70 48 42 48 52 56 66 73 68 57 63 65 61 63 68 61 65 64 69 69 70 67 65 55 36 36 43 34 43 46 49 52 52 51 47 52 61 64 64 75
68 53 77 76 56 49 50 50 54 54 63 63 60 64 61 56 49 50 56 63 60 70 77 75 75 66 54 42 34 38 43 46 42 53 59 59 62 61 56 54 60 66 74 80
73 66 76 78 64 57 56 56 55 56 55 62 62 64 43 42 40 42 62 59 72 82 77 76 64 62 46 37 37 37 41 49 52 66 67 66 71 66 62 63 66 74 82 82
71 74 89 88 62 73 64 53 50 57 71 63 45 40 37 40 54 62 68 70 76 78 74 65 60 42 37 34 36 39 47 61 75 74 74 80 76 71 70 68 69 67 72 74

GFSCGP_sfc_rhum_009.txt.gz
RH
21 31 32 26 27 24 22 22 27 27 21 26 28 27 22 21 18 20 22 24 24 23 26 30 31 32 36 39 32 32 35 38 41 42 46 48 55 53 56 51 54 57 56 50
25 35 23 18 19 22 23 29 35 28 24 28 29 27 24 18 19 20 25 24 25 24 25 28 33 36 33 36 37 36 34 38 40 43 45 46 49 50 50 52 56 57 56 55
29 27 17 19 24 25 27 34 36 36 32 29 31 30 20 21 18 21 22 23 23 23 25 25 25 35 41 40 39 39 38 37 43 40 42 47 53 51 46 49 55 55 53 56
28 20 19 22 25 25 31 30 31 34 42 48 32 46 24 22 21 22 22 28 28 28 26 27 29 32 39 42 45 41 40 40 40 46 44 43 41 44 44 46 47 51 58 59
32 25 23 26 26 24 30 31 34 37 44 47 35 37 25 24 25 24 28 30 31 32 30 29 30 32 35 43 47 49 45 44 44 47 51 49 47 55 50 52 50 54 62 60
21 20 24 28 24 27 28 38 40 44 44 66 40 41 39 27 23 24 28 31 32 32 33 34 37 34 34 41 45 51 49 45 47 49 51 56 52 47 55 54 59 59 60 57
33 26 26 28 33 33 36 52 80 73 77 74 35 41 38 28 24 26 29 31 31 31 38 36 37 37 43 53 43 49 52 51 51 55 56 56 57 52 49 58 66 58 60 57
52 57 34 28 37 42 43 47 87 81 87 76 43 52 34 24 21 23 25 28 33 32 34 37 43 44 45 45 47 49 49 49 49 56 60 62 63 60 53 60 67 66 61 58
65 50 35 29 32 36 44 66 46 64 76 89 66 44 26 29 29 29 30 30 35 35 38 40 43 47 48 49 51 58 57 56 54 54 57 61 68 68 66 64 60 61 58 50
50 67 45 40 37 37 40 41 68 85 94 88 61 59 49 43 36 34 39 38 40 42 43 43 44 48 50 53 56 59 57 54 50 50 54 57 63 59 62 63 59 57 59 58
54 68 64 51 50 54 49 55 55 52 75 94 98 78 44 40 38 44 33 34 40 41 45 45 44 46 53 58 61 64 59 58 51 50 59 61 60 57 57 55 55 57 59 63
56 66 88 58 41 38 36 48 48 88 92 89 92 75 38 42 41 33 35 39 43 41 44 45 49 53 56 58 64 59 59 64 51 54 60 61 58 55 55 54 55 58 59 61
58 78 90 68 51 51 54 47 51 61 79 76 96 75 36 36 37 39 47 47 46 45 48 58 57 54 55 61 61 61 58 55 49 53 57 57 55 53 56 61 58 56 60 62
61 69 78 89 71 61 68 58 54 63 91 80 74 60 43 37 43 48 53 53 53 56 60 62 62 59 59 57 58 65 61 52 50 49 55 58 56 55 62 64 63 61 58 61
61 83 74 68 62 58 54 55 56 62 62 75 62 56 45 42 51 58 55 54 53 61 65 65 65 64 62 61 62 65 50 52 47 47 59 79 77 68 63 64 61 64 62 59
68 86 88 89 70 65 73 66 61 58 59 58 56 50 42 42 61 65 62 61 70 69 67 64 65 64 64 62 63 53 67 80 77 80 82 80 77 73 65 57 58 62 62 64
80 88 99 88 81 84 89 69 62 58 48 54 72 63 68 68 66 69 70 74 75 70 72 69 71 67 64 67 62 73 78 77 80 81 78 82 83 85 82 62 56 61 65 63
81 95 98 98 99 98 61 42 41 52 51 53 68 74 70 74 73 66 61 85 79 71 77 77 69 65 74 74 82 86 91 84 83 83 82 82 82 75 54 56 61 62 62 64
74 97 98 98 98 76 64 56 62 61 59 77 74 69 65 75 74 69 63 75 78 76 82 73 69 76 84 85 90 93 93 91 88 85 80 66 54 54 56 58 61 61 63 64
85 95 98 99 99 91 67 52 58 56 84 79 74 88 86 83 94 81 76 75 74 82 73 72 76 83 87 88 80 87 76 85 92 54 51 51 52 53 54 58 62 63 66 64
98 98 98 99 94 85 60 50 65 90 83 78 75 79 82 90 82 76 72 75 78 72 71 74 82 78 78 71 69 76 63 52 48 50 50 51 51 52 57 63 65 62 68 78
84 93 98 98 99 95 56 52 77 69 70 58 71 79 76 80 83 71 73 76 76 79 83 82 82 77 78 66 72 69 44 42 47 50 53 56 60 55 55 62 65 69 77 92
85 75 87 84 83 65 52 56 56 54 63 72 78 82 81 80 77 60 54 71 78 87 90 84 90 81 71 69 44 49 50 47 56 60 63 65 63 65 62 68 72 84 83 96
76 70 87 84 68 56 57 54 55 58 69 78 80 81 72 76 64 68 76 80 90 92 86 86 81 72 73 61 47 46 53 56 54 66 72 73 80 76 72 71 76 94 95 97
84 82 84 82 68 62 61 63 62 74 84 83 71 72 64 73 78 76 73 76 89 78 78 91 85 78 70 48 47 46 54 64 74 79 81 86 86 81 80 78 86 93 92 93
77 74 88 89 64 74 69 65 66 75 71 66 65 63 70 76 76 73 79 78 75 85 81 83 73 57 46 45 55 69 72 78 86 87 88 95 94 92 91 92 91 75 76 77

GFSCGP_sfc_rhum_012.txt.gz
RH
27 30 33 28 29 27 30 32 37 32 27 32 36 35 29 23 26 27 30 30 31 32 36 38 37 41 41 42 39 40 37 38 49 50 51 53 56 57 59 66 68 67 64 61
33 35 26 20 25 27 27 38 39 34 29 37 36 35 28 22 24 28 29 30 30 32 35 35 36 40 37 37 36 37 36 40 43 46 47 47 49 53 53 57 61 69 67 63
34 29 22 23 28 28 32 41 41 40 39 39 36 35 24 23 27 26 28 28 27 29 31 34 36 38 41 40 40 37 38 38 44 45 47 50 56 58 56 56 59 60 63 61
31 23 21 29 30 30 35 30 35 39 46 51 38 55 34 25 26 27 28 29 29 30 30 28 30 39 45 41 45 45 42 42 42 48 48 48 41 41 43 47 54 58 60 59
33 27 24 31 29 31 32 33 40 44 53 53 43 46 31 25 26 29 34 35 37 36 34 35 37 35 34 40 45 48 46 46 46 50 55 54 51 47 44 58 54 56 62 64
26 24 26 30 29 36 34 42 48 52 53 70 47 46 42 37 32 36 37 33 35 39 38 37 37 40 45 45 48 50 51 49 51 53 57 61 59 52 56 58 64 66 71 73
41 32 29 32 38 38 43 59 81 69 80 73 46 50 42 36 31 29 32 38 38 35 39 39 39 40 46 50 50 50 53 50 50 59 62 63 66 64 62 56 59 64 65 62
66 64 42 32 42 46 47 57 85 82 88 77 51 58 42 34 36 35 29 33 33 35 39 44 48 50 50 50 57 53 53 55 53 59 61 65 70 76 73 69 67 72 64 65
70 57 43 38 36 40 47 64 52 67 83 90 70 54 36 32 39 37 39 40 42 43 51 49 50 53 56 60 62 62 62 62 56 64 65 65 67 73 78 72 71 68 63 63
58 73 53 47 43 43 46 45 68 84 87 91 75 68 57 45 46 41 43 52 53 52 50 50 52 56 61 64 65 69 66 59 60 66 62 59 67 69 68 67 67 69 72 76
60 71 64 53 56 60 54 66 62 62 84 97 98 86 54 46 48 54 47 50 53 53 55 57 56 56 53 54 57 64 70 71 73 65 60 66 60 64 64 63 68 68 74 77
62 74 88 63 50 47 53 61 65 91 84 92 90 74 40 49 42 48 51 49 52 53 61 64 64 63 62 64 68 68 68 72 65 58 64 68 62 62 62 65 66 67 67 70
60 77 87 59 49 58 62 54 59 71 86 86 97 80 41 38 42 52 61 58 58 64 69 71 70 63 69 64 68 67 73 66 56 57 65 64 62 60 63 66 66 65 64 59
63 73 72 80 63 71 76 62 56 70 95 85 78 69 53 50 63 65 68 68 66 68 69 71 73 71 74 69 73 72 70 65 62 57 62 66 65 64 69 68 67 65 65 65
66 82 79 73 67 69 67 67 68 71 70 90 70 66 57 76 77 73 68 66 67 70 72 71 74 72 75 71 74 74 69 78 75 73 79 88 80 75 71 71 74 71 62 61
75 88 89 87 77 78 84 72 71 71 69 67 68 64 77 70 71 73 70 67 69 75 72 63 70 75 74 72 73 70 69 74 81 83 84 83 88 82 85 83 80 70 71 64
82 90 98 79 93 93 92 79 71 61 59 62 79 71 79 78 79 78 74 73 73 79 73 70 76 80 77 79 73 83 90 92 83 86 86 89 91 91 87 84 74 73 66 63
87 97 98 95 98 99 63 54 53 62 61 60 79 81 83 76 69 70 71 75 80 71 70 71 82 80 82 82 86 90 90 93 90 91 87 85 90 90 83 70 64 63 62 62
79 98 98 99 97 79 71 60 68 81 76 80 89 74 71 67 75 69 64 72 73 68 77 77 86 84 86 89 89 87 90 89 90 91 88 68 62 58 61 60 62 62 65 67
89 94 92 95 98 94 68 56 66 73 89 82 77 79 71 70 96 81 84 65 62 70 78 81 77 82 88 88 85 85 75 67 66 57 53 52 56 57 61 65 66 65 66 66
98 98 95 100 98 86 63 55 60 81 69 81 70 68 84 93 93 87 73 58 60 74 79 80 83 88 88 79 72 78 52 53 51 53 56 59 60 59 65 64 64 69 75 84
77 92 96 99 99 94 60 60 76 70 79 65 71 88 91 88 84 76 66 70 79 87 87 84 83 93 84 68 74 52 48 46 54 59 62 63 66 64 58 67 70 72 83 94
85 75 84 81 83 66 64 60 64 64 70 82 90 86 84 84 80 78 82 77 80 89 92 88 93 84 74 70 57 50 54 52 61 65 70 74 75 70 66 73 80 90 88 97
77 71 91 82 65 62 62 56 59 70 86 90 87 86 84 85 78 83 77 73 83 91 87 80 83 85 81 73 50 52 57 59 66 74 79 83 84 77 76 79 81 96 96 95
86 88 88 85 74 69 64 68 70 81 73 75 70 80 72 79 81 80 81 84 88 86 83 89 94 82 59 54 58 68 70 71 75 81 86 87 86 85 86 81 90 92 91 94
82 76 94 91 67 73 70 70 72 76 74 73 64 65 72 76 77 81 87 90 89 85 88 81 63 56 52 52 66 71 75 78 82 82 86 97 97 96 91 96 93 79 79 74

GFSCGP_sfc_rhum_015.txt.gz
RH
31 31 31 32 31 30 31 39 45 37 31 37 43 42 35 33 29 31 33 30 35 38 43 44 40 45 47 52 49 46 39 54 57 57 57 57 59 60 64 64 69 77 75 72
34 35 29 26 28 28 35 42 40 37 33 43 41 40 26 24 27 34 36 37 36 40 40 42 46 46 42 42 44 45 41 39 47 50 50 51 53 56 58 60 63 70 74 71
37 32 23 27 31 30 34 42 42 41 41 43 43 39 28 26 28 28 29 32 33 39 38 40 38 43 44 42 41 40 40 41 46 49 49 52 57 58 60 57 62 59 69 69
34 24 25 32 32 35 40 33 40 41 49 53 44 51 35 28 29 32 34 35 38 33 34 36 38 41 42 39 43 44 44 44 44 49 51 51 49 43 43 44 48 52 65 62
37 26 30 30 31 35 37 39 46 49 55 62 45 47 39 36 30 38 42 36 38 39 36 34 34 32 38 43 46 52 56 54 52 55 57 60 60 55 52 55 62 59 62 69
38 27 29 33 33 38 37 48 52 57 58 68 55 51 51 43 40 40 38 37 39 37 35 38 41 41 42 50 54 57 55 52 57 59 62 67 69 65 66 64 70 64 71 72
48 42 38 35 41 41 46 64 76 65 79 72 53 52 50 40 37 36 34 36 33 37 42 44 44 44 50 55 61 58 62 59 61 63 62 62 65 71 75 74 73 72 78 76
68 61 49 38 45 49 52 61 85 70 89 82 56 64 46 35 40 37 37 37 44 47 45 54 56 59 62 66 66 65 63 63 62 63 63 70 70 74 78 81 84 84 78 81
76 60 48 48 49 46 53 67 58 74 85 92 76 60 45 40 46 48 48 50 57 58 57 56 59 63 65 64 64 69 68 66 67 70 77 74 68 69 75 78 81 83 80 78
66 78 57 50 48 47 47 50 72 87 88 88 79 76 64 51 54 46 51 58 59 59 61 64 64 63 62 62 65 72 74 71 74 76 72 55 61 70 74 75 78 81 80 88
62 73 65 53 54 61 62 70 69 68 86 97 98 85 61 56 55 55 60 60 63 66 67 68 68 67 67 69 69 72 74 76 80 75 63 66 72 69 72 73 79 82 87 87
67 76 87 66 52 56 56 67 69 91 86 92 93 78 48 51 55 63 69 66 66 63 67 70 68 66 71 73 74 75 78 82 72 62 64 70 73 67 69 72 72 75 72 70
62 79 84 56 50 53 65 66 68 77 88 85 94 79 50 45 65 69 74 71 67 63 63 64 68 67 72 76 76 75 81 73 69 62 65 70 68 66 66 71 70 68 67 63
64 75 70 80 58 71 78 73 71 72 95 87 80 66 55 59 77 75 76 72 70 68 66 69 74 71 76 78 79 78 81 77 77 65 65 68 70 63 71 69 73 72 67 66
68 81 82 76 71 73 72 76 73 83 81 89 76 75 64 74 81 78 74 75 67 63 67 72 74 76 80 84 81 83 75 79 83 86 81 82 78 76 80 88 87 82 76 72
80 86 90 91 82 83 88 79 81 82 81 83 79 74 70 78 79 82 82 72 74 75 78 78 70 70 78 85 83 78 81 88 93 94 88 86 91 92 94 94 91 85 84 71
82 92 96 86 94 94 84 81 83 73 63 68 82 72 87 88 84 76 73 75 80 78 71 61 68 76 80 87 81 87 89 93 90 90 92 90 91 94 94 90 89 84 70 63
95 97 99 93 95 96 60 59 57 66 62 65 75 85 84 84 78 71 77 85 85 69 56 58 61 77 91 85 86 88 90 90 94 94 94 91 92 92 84 70 64 62 63 64
86 98 98 99 98 80 66 58 72 74 72 77 86 84 72 70 80 82 88 75 72 68 59 66 81 85 89 82 81 87 91 71 81 80 62 60 60 58 62 64 68 68 67 65
92 91 94 98 99 96 70 56 70 77 92 82 86 82 78 86 94 87 83 68 66 65 77 82 84 88 83 84 85 86 65 58 55 56 57 60 61 62 66 69 67 64 67 69
99 98 98 98 96 89 67 58 62 85 75 74 74 72 85 95 91 91 76 72 76 84 85 87 85 87 91 91 79 90 64 55 53 61 62 62 63 65 67 66 66 70 78 85
80 90 96 98 100 94 62 67 78 74 75 75 80 88 92 87 85 79 81 78 78 82 90 88 92 91 84 75 75 83 66 52 57 63 66 69 74 66 63 70 74 78 84 93
83 74 85 81 82 67 61 64 65 66 78 85 95 90 88 85 77 80 82 83 76 86 92 89 80 90 87 72 71 58 56 55 63 70 76 81 78 74 69 80 85 91 85 95
84 76 92 82 70 59 63 60 57 71 88 90 84 80 72 75 74 83 81 84 89 91 92 89 81 84 73 59 57 59 66 67 67 74 81 83 84 79 80 80 82 96 96 97
88 89 90 86 74 74 67 71 75 86 87 80 81 84 81 72 78 82 84 86 91 94 89 88 91 78 77 72 64 66 69 73 75 80 83 87 89 89 85 80 91 93 94 96
91 86 91 93 68 74 71 84 86 84 84 80 76 70 64 75 83 78 86 89 93 95 92 92 80 77 70 68 73 75 77 78 81 80 81 95 98 97 92 96 93 80 78 76

GFSCGP_sfc_rhum_018.txt.gz
RH
34 32 34 35 34 32 33 40 47 43 37 42 49 47 34 29 32 36 34 33 33 35 45 50 45 45 48 56 61 59 55 60 71 67 63 62 61 62 65 66 66 75 78 80
35 35 31 30 31 33 37 42 39 38 39 48 45 44 32 31 36 40 42 42 43 44 47 47 51 55 52 52 56 54 47 44 59 58 56 56 57 58 62 64 63 68 78 81
38 33 29 30 34 36 40 40 42 42 43 47 46 39 33 28 32 32 33 37 39 41 40 44 44 49 47 47 49 46 46 44 47 51 52 52 55 57 57 54 58 56 64 67
35 26 30 34 34 39 47 36 40 43 54 54 48 49 41 39 34 36 34 34 36 36 40 41 41 43 44 44 46 47 48 48 47 52 55 58 58 56 53 57 57 49 60 66
38 29 34 38 38 39 41 48 54 53 60 65 50 46 38 41 39 40 39 39 40 38 38 36 37 38 45 52 57 60 59 60 62 64 66 69 69 72 70 69 69 66 66 69
47 33 34 38 37 45 42 54 51 61 61 68 61 54 54 49 44 42 42 39 37 38 40 41 44 46 52 63 66 68 65 62 64 66 67 69 77 77 76 69 79 78 82 81
52 47 46 39 46 45 49 62 68 67 78 72 57 57 56 45 41 45 48 49 55 57 50 58 61 63 65 60 65 63 67 64 61 63 66 76 77 77 74 69 74 81 87 83
72 55 53 43 50 54 56 64 80 61 89 84 62 64 53 45 46 45 47 58 60 62 63 66 66 68 60 60 65 67 65 66 64 72 77 79 71 66 65 70 80 91 88 92
79 61 52 53 55 51 60 72 63 78 86 92 79 65 52 52 55 53 60 59 64 66 69 68 68 67 65 62 63 71 74 74 73 79 83 76 69 68 65 72 83 88 90 87
70 78 61 53 52 49 52 53 72 88 88 87 79 78 64 62 59 58 65 70 67 64 67 66 66 65 67 71 73 76 76 77 77 83 76 61 66 70 75 81 82 87 89 94
65 75 60 55 57 66 65 72 73 73 88 96 98 83 64 64 63 68 76 73 74 66 65 69 70 72 73 74 77 80 80 81 85 78 68 71 66 70 75 76 81 87 91 93
71 77 86 63 56 62 66 70 71 87 80 94 95 81 57 57 64 73 78 74 74 70 66 69 73 75 77 76 75 80 82 84 85 71 70 70 74 76 73 77 79 82 78 74
68 79 82 47 57 55 69 72 73 79 89 86 92 77 52 52 61 74 80 77 75 73 70 68 65 70 77 77 79 84 83 87 75 79 77 76 74 73 71 75 74 72 72 73
67 78 67 73 55 64 80 78 75 79 93 86 80 66 54 54 70 81 81 81 78 78 62 65 77 81 79 77 79 87 86 80 82 89 91 90 86 77 78 89 90 87 83 84
70 82 83 78 73 77 78 81 81 87 83 89 71 79 68 71 83 82 79 79 76 71 77 80 76 62 58 63 73 89 86 83 87 94 94 92 90 91 91 91 90 87 86 79
82 85 93 94 88 90 95 84 84 86 88 85 83 88 70 82 85 80 81 82 80 88 86 62 52 49 50 71 86 91 85 84 89 89 90 91 91 87 94 92 92 91 90 86
83 91 94 89 93 92 78 68 84 81 75 69 77 62 82 86 81 80 83 85 94 82 66 59 54 65 82 89 87 86 88 90 91 94 88 94 92 92 94 92 92 92 74 66
99 96 99 95 92 93 59 63 59 67 64 64 68 79 84 81 76 80 89 90 84 74 73 68 81 84 80 82 83 91 90 89 86 87 77 75 77 82 75 66 64 66 67 66
89 98 98 99 93 81 64 57 73 76 68 70 77 86 80 74 88 86 86 84 74 76 79 85 80 84 86 88 90 93 86 71 71 74 64 63 68 64 65 67 70 66 66 68
93 91 94 100 97 97 69 59 78 78 87 77 81 76 78 79 97 85 83 78 76 76 81 86 88 90 89 88 94 92 85 59 62 66 67 65 67 68 72 71 70 68 72 71
98 98 99 96 98 89 69 62 63 85 74 80 80 74 75 87 92 86 76 74 79 78 83 87 91 93 89 93 82 84 94 68 61 63 62 68 73 72 72 73 73 77 82 85
78 89 95 99 99 95 64 69 76 68 75 68 75 83 91 92 86 76 74 82 83 75 85 90 94 83 93 92 74 69 74 58 58 64 70 76 79 76 68 78 81 81 85 93
86 75 83 80 85 70 60 62 65 66 75 81 90 88 88 87 75 67 78 85 80 78 90 92 94 92 81 65 64 71 68 61 68 73 76 81 82 76 74 81 87 92 91 97
82 76 86 81 71 67 69 67 69 82 86 90 92 90 83 78 73 76 82 82 80 88 92 93 93 89 87 78 80 74 75 74 74 79 82 86 90 84 83 78 81 97 97 98
90 90 93 90 76 76 76 74 84 91 89 89 86 82 80 79 79 74 84 80 86 90 93 95 94 94 87 80 77 74 78 79 80 82 82 84 87 92 92 78 90 95 94 96
90 88 94 89 67 79 83 96 87 91 93 74 76 75 73 74 78 85 86 83 88 90 94 94 92 89 81 73 77 82 85 84 86 85 85 95 97 98 95 96 93 80 77 77

GFSCGP_sfc_rhum_021.txt.gz
RH
30 25 27 24 25 24 24 28 30 28 28 31 35 32 23 25 27 30 30 28 25 26 29 31 35 32 36 45 46 48 48 52 52 51 49 45 44 41 41 40 46 51 49 56
27 30 24 26 25 24 27 29 27 29 30 35 33 27 24 25 28 30 29 30 30 29 29 33 34 38 40 37 42 45 46 42 41 43 43 43 43 39 40 42 46 47 50 53
34 23 27 27 31 33 33 29 31 32 33 35 32 28 28 23 25 25 27 28 29 31 30 31 33 39 42 43 45 38 38 40 42 46 39 40 42 44 40 38 39 40 48 50
28 23 30 33 31 32 37 29 36 40 40 36 37 30 31 31 28 30 32 31 29 28 28 30 33 38 45 48 51 47 48 45 46 50 48 53 48 48 45 48 44 46 52 53
30 29 34 36 32 32 37 41 43 42 44 42 39 31 32 31 33 34 33 35 37 37 35 34 38 42 48 55 56 53 48 48 50 53 55 53 52 49 50 52 54 52 52 54
37 30 30 31 33 37 39 43 42 48 47 50 46 39 41 37 40 38 38 45 49 46 43 45 47 46 46 54 55 54 50 48 51 52 57 60 59 56 53 53 50 48 49 55
43 38 38 36 38 38 42 45 49 54 58 53 47 42 47 45 41 42 48 50 52 51 52 49 48 46 48 50 54 50 51 50 53 56 62 64 57 58 55 52 50 53 51 54
55 42 42 42 40 42 47 49 63 55 62 59 53 50 46 44 43 46 48 49 50 52 53 50 50 50 50 52 52 54 53 51 53 57 62 61 55 51 50 51 54 56 57 61
65 48 44 46 45 40 46 59 51 66 73 74 53 50 44 48 47 47 49 50 51 51 52 49 48 51 53 57 58 60 59 54 53 57 62 56 54 57 56 58 58 58 65 65
59 64 49 45 42 43 43 46 57 67 77 68 51 58 44 51 48 51 55 57 56 51 48 45 46 52 53 54 53 60 58 56 56 58 60 52 57 56 59 60 61 63 67 72
52 63 49 44 53 55 52 57 62 60 72 83 88 53 49 49 49 49 58 61 58 56 51 50 51 52 55 57 56 57 60 60 59 61 57 62 60 62 59 57 62 67 72 74
58 66 66 47 50 50 52 57 56 67 64 77 79 62 42 49 51 55 62 62 58 57 56 55 56 58 58 54 48 51 59 63 62 58 61 63 66 61 56 60 62 66 62 69
56 68 60 35 48 45 58 57 61 67 75 76 87 56 41 49 53 61 61 58 56 60 56 56 57 55 49 46 50 58 65 67 62 60 63 68 67 60 65 73 79 76 83 85
67 68 54 52 40 50 64 65 64 65 90 68 69 52 44 43 50 59 58 54 58 61 61 61 56 51 46 46 59 66 66 66 63 63 67 74 69 72 80 81 79 78 73 70
64 77 71 66 62 67 69 69 68 72 68 80 60 57 50 48 56 58 53 60 61 59 65 62 52 46 51 65 63 58 62 64 65 71 71 74 74 76 73 75 73 70 70 70
72 81 86 90 77 76 81 66 69 72 71 72 70 71 51 56 64 63 60 59 64 74 66 55 52 62 62 55 59 66 67 70 72 68 74 80 88 87 85 88 78 74 77 74
79 87 90 82 80 79 78 58 67 65 68 64 64 47 62 70 63 58 58 66 78 69 60 60 65 60 60 64 69 73 73 71 65 71 72 76 78 71 69 64 52 52 54 53
99 98 97 97 89 84 50 50 51 57 53 52 55 54 54 62 56 58 63 75 72 68 62 67 62 61 64 66 69 75 71 63 64 60 62 54 54 52 52 51 52 53 51 52
81 99 99 97 89 72 57 48 52 64 55 50 58 65 58 56 66 60 74 68 65 64 66 63 62 66 65 64 71 75 76 62 51 55 51 50 53 52 53 53 54 52 52 53
85 86 97 100 99 93 65 47 62 60 70 60 64 64 66 65 97 83 77 78 66 61 62 58 64 69 65 60 70 70 71 76 60 56 55 54 57 56 56 57 56 54 55 54
98 99 97 91 92 83 62 56 52 80 71 66 72 68 70 79 84 84 87 71 62 68 59 61 67 71 67 65 61 59 56 72 50 54 55 55 58 59 57 56 54 54 55 67
74 88 96 97 96 95 55 57 74 62 64 64 68 70 78 91 91 86 60 60 62 67 59 62 71 72 68 53 52 50 51 48 52 53 55 58 60 56 54 55 52 54 61 76
83 72 80 76 80 63 56 62 59 62 77 82 81 89 92 96 73 64 63 60 60 67 58 63 72 76 66 60 56 62 59 57 57 58 58 58 59 56 56 57 59 62 61 71
72 67 85 79 65 60 63 58 74 86 94 92 91 92 88 64 65 68 62 58 63 65 62 63 73 76 73 65 62 62 59 59 57 59 60 59 62 65 64 61 58 65 71 73
74 83 87 87 73 67 69 90 89 90 86 75 63 60 62 67 66 66 64 63 68 68 65 67 77 81 74 67 62 56 58 63 61 66 66 63 67 71 72 66 67 72 74 77
88 86 96 92 68 78 92 92 89 89 72 62 63 67 62 55 58 64 63 66 67 67 67 72 77 77 71 65 58 58 60 64 68 68 67 72 75 75 72 70 70 72 78 78

GFSCGP_sfc_rhum_024.txt.gz
RH
17 14 17 16 17 16 15 17 17 15 19 22 22 17 17 17 16 18 17 18 19 20 22 22 26 26 26 33 36 38 37 41 37 35 35 31 31 28 27 25 31 38 37 39
15 21 18 17 17 18 19 19 19 20 21 26 21 18 17 18 20 20 18 20 19 19 21 24 28 32 34 35 36 35 34 33 30 26 30 33 35 30 32 33 36 35 39 40
17 18 19 19 22 23 23 23 27 26 23 24 22 21 19 19 18 18 19 19 19 22 22 24 28 33 35 38 36 31 33 35 38 36 30 31 30 31 29 32 31 34 39 39
19 20 23 23 25 26 24 24 30 29 28 20 26 22 23 20 22 23 25 27 28 25 22 25 29 35 40 42 40 36 36 34 36 41 36 42 36 36 37 38 35 36 37 38
22 22 24 26 27 28 30 32 32 33 30 27 25 21 27 21 27 27 30 32 32 30 31 30 33 35 37 42 43 41 35 37 38 41 44 42 43 38 38 40 42 40 36 35
24 22 24 28 27 28 31 32 32 33 32 39 32 29 26 24 31 30 32 35 36 35 34 33 32 32 34 41 42 40 37 35 40 43 47 51 50 46 42 40 38 33 33 32
25 27 26 29 26 29 27 32 36 45 45 39 33 31 36 33 32 32 35 36 37 36 36 34 34 33 36 40 41 39 37 35 36 40 40 42 42 42 41 40 37 42 37 37
31 36 30 32 33 35 35 35 49 50 40 35 36 30 34 32 30 32 33 35 36 37 38 35 35 37 38 41 42 42 39 37 35 36 38 40 41 39 41 42 44 43 43 44
38 33 33 34 32 33 37 43 39 52 59 57 29 35 34 34 36 35 35 34 36 37 37 34 34 37 38 40 43 46 40 36 36 38 42 45 44 49 49 48 48 43 48 45
43 43 36 31 33 34 35 35 48 48 79 49 24 33 26 42 36 37 36 37 39 38 38 36 36 39 39 39 40 44 39 38 40 42 46 45 49 49 49 49 48 50 52 56
34 44 36 33 36 40 38 41 43 40 54 64 58 27 33 32 34 38 38 42 41 41 40 39 39 40 40 39 37 36 39 41 44 45 48 52 52 51 47 45 48 53 59 65
44 45 42 31 37 38 37 41 38 56 52 56 56 39 28 30 36 40 40 44 42 40 36 37 39 39 36 36 34 39 44 44 43 43 46 50 51 50 47 50 51 55 59 72
43 48 37 35 39 40 42 40 42 43 58 58 82 41 28 34 38 31 42 38 36 36 34 36 37 37 36 34 40 41 37 36 38 39 43 47 49 50 52 57 62 67 68 69
58 46 35 34 27 32 36 32 37 44 74 51 47 36 28 25 27 32 37 38 36 38 37 40 41 38 35 40 38 32 35 41 43 46 46 48 56 60 66 64 65 62 55 54
48 52 45 39 36 35 40 42 38 43 46 60 48 34 29 28 31 34 39 39 39 39 42 45 44 36 39 35 34 36 44 46 47 47 45 53 63 76 83 86 71 65 56 53
52 60 66 67 45 42 50 41 39 42 43 41 42 44 29 31 33 42 42 41 43 45 49 50 45 41 40 37 38 44 46 49 49 47 47 56 61 60 62 61 56 47 43 40
63 72 77 85 57 62 87 49 39 41 38 43 51 36 33 36 43 45 44 45 48 53 54 46 42 43 40 41 41 45 49 47 48 48 46 46 46 46 45 40 38 42 44 42
91 90 93 99 92 92 44 33 34 41 38 32 33 34 40 42 41 42 42 53 60 59 52 43 45 42 40 37 36 43 42 47 50 48 48 43 45 42 41 42 44 44 42 44
62 90 100 100 78 51 42 36 41 46 48 37 42 44 42 43 48 46 56 65 73 62 52 47 41 41 41 36 37 41 42 38 46 49 52 51 46 44 43 45 45 43 44 44
69 78 95 96 100 88 43 36 44 45 56 46 50 56 59 73 97 82 77 70 69 64 38 45 43 41 39 36 40 40 36 37 42 45 45 42 44 45 46 43 45 44 42 43
99 97 99 92 99 69 39 43 42 78 73 54 53 64 78 90 89 89 75 66 44 37 40 41 42 42 39 41 41 42 36 34 35 39 43 42 43 43 41 43 42 42 45 55
67 98 100 95 100 96 40 45 73 62 56 53 60 68 86 89 82 68 54 45 36 29 26 32 42 41 38 41 41 39 37 32 37 42 44 44 43 40 38 44 43 45 49 64
67 54 58 57 60 41 38 48 46 52 62 76 89 89 83 74 65 48 39 35 31 33 34 37 38 42 43 44 42 43 39 40 44 45 44 44 42 43 44 47 49 51 51 66
48 46 70 67 48 42 46 46 69 70 87 85 85 84 70 56 41 40 31 29 32 32 34 34 36 39 43 43 45 44 46 46 43 47 47 45 46 51 47 45 46 53 64 75
53 49 59 62 56 56 53 69 82 86 84 71 49 45 47 42 37 30 28 27 29 35 34 37 43 46 45 45 46 44 44 47 50 51 52 51 52 56 54 52 53 60 63 74
53 57 79 87 65 78 87 91 87 82 57 41 40 38 33 29 28 29 30 30 32 36 40 43 43 43 43 42 46 43 42 46 50 54 53 56 64 63 59 56 59 67 73 73

GFSCGP_sfc_rhum_027.txt.gz
RH
12 13 13 12 12 11 10 10 11 11 13 14 15 13 14 14 13 14 14 15 16 19 21 23 26 26 24 30 28 33 35 41 36 32 32 29 29 27 26 25 32 36 35 38
12 16 14 12 12 12 13 15 15 14 15 17 16 14 14 15 16 16 16 16 18 20 22 25 27 30 32 32 31 31 30 32 29 25 29 33 34 30 30 31 34 33 37 39
14 16 14 15 15 16 16 18 21 20 16 16 16 16 17 16 16 16 16 17 18 19 21 25 29 34 35 35 33 30 31 32 35 34 28 29 28 29 29 30 32 34 39 38
15 15 16 17 19 19 20 20 22 22 21 19 16 18 18 17 19 21 23 24 23 21 22 25 29 33 38 38 36 32 32 31 33 38 34 42 37 37 36 39 37 36 38 35
19 17 19 20 23 21 24 24 24 24 23 19 18 16 20 17 22 24 26 27 28 27 27 28 29 32 35 39 39 37 31 32 35 39 42 43 43 39 35 34 37 37 32 32
17 17 19 22 21 22 22 26 23 25 24 34 18 20 22 19 22 26 28 29 30 29 29 28 28 28 30 38 39 38 34 31 32 36 38 41 44 41 36 36 36 33 36 34
20 21 21 23 22 22 21 25 37 41 40 39 24 24 28 26 25 26 29 31 30 30 30 29 30 30 33 35 37 37 34 34 32 35 36 38 40 40 39 40 39 44 40 37
24 35 24 22 26 28 27 28 47 46 41 31 24 22 28 25 25 27 27 28 29 30 30 29 29 31 32 34 36 39 36 34 31 34 37 38 40 38 41 44 45 44 41 40
28 29 24 26 24 26 30 35 29 40 52 49 21 27 28 26 28 29 28 28 30 30 30 29 30 32 33 33 35 38 38 34 34 37 39 43 44 45 46 47 47 43 45 41
30 36 27 23 25 27 26 27 42 41 71 45 18 21 21 35 32 30 30 30 31 31 31 31 30 32 33 33 33 36 34 33 35 38 43 40 41 40 43 45 45 45 48 62
23 31 30 22 27 25 26 31 33 31 39 53 46 26 24 24 24 26 27 29 30 32 32 31 30 31 33 32 32 32 35 36 35 32 33 37 37 39 41 41 43 48 56 59
32 32 38 22 24 27 27 30 30 49 42 45 53 41 22 22 25 28 27 29 32 31 29 31 33 33 35 32 30 33 34 28 27 28 31 35 38 38 40 47 56 56 55 57
34 39 38 28 32 32 32 28 29 33 49 51 73 44 21 24 28 28 30 29 30 30 29 30 34 37 36 32 33 30 26 28 30 32 36 38 38 46 53 56 58 53 57 60
52 34 33 39 28 23 29 25 23 29 55 53 44 31 23 22 25 24 24 27 30 30 30 34 36 36 34 32 30 27 28 33 35 35 36 39 47 57 59 70 82 74 64 62
40 49 32 31 25 23 25 27 27 30 30 50 40 32 27 26 28 28 27 31 31 31 34 39 41 38 34 32 30 29 31 34 36 38 37 40 54 55 61 65 63 56 54 40
38 55 58 55 31 25 30 27 28 27 30 30 32 34 28 26 24 28 31 31 34 40 41 45 40 39 38 31 32 31 31 36 37 38 38 40 48 46 48 49 48 44 43 42
50 63 61 80 51 56 82 45 28 28 29 32 46 35 26 28 33 39 45 47 51 63 49 44 45 44 38 33 32 30 30 31 34 38 35 41 44 45 46 42 42 42 43 37
74 67 88 96 90 90 30 23 25 30 28 27 28 29 31 33 41 42 50 59 61 56 53 51 50 40 31 33 33 29 28 29 32 32 35 37 46 47 43 39 38 38 37 39
47 74 96 99 66 43 35 32 37 42 43 31 35 37 35 39 44 44 54 59 61 58 55 51 39 33 34 32 30 29 29 27 27 31 34 38 44 39 37 37 38 37 38 40
54 65 86 94 99 87 39 28 34 34 56 39 42 46 50 50 82 79 80 65 54 51 41 31 29 28 30 30 30 32 32 29 29 29 31 36 37 37 36 36 38 38 37 37
95 96 98 89 99 62 32 35 36 69 71 51 50 72 82 88 92 81 70 64 48 34 28 22 22 26 28 29 29 32 31 30 27 28 34 38 36 35 34 36 36 36 38 47
75 95 98 91 99 90 33 37 68 61 52 68 64 77 86 79 76 69 54 36 30 25 22 22 25 26 24 25 28 28 32 27 29 36 38 40 38 34 32 38 38 38 42 56
56 50 62 61 61 41 38 47 55 55 65 73 85 80 79 69 52 37 34 29 23 21 18 20 22 25 26 26 26 29 36 41 50 44 43 44 40 35 34 39 40 43 44 58
41 34 70 64 42 39 46 51 60 62 71 76 75 65 50 41 40 33 24 20 19 18 20 20 23 26 30 26 25 27 33 46 49 44 48 49 44 43 42 39 40 47 57 70
49 42 50 60 46 51 72 79 80 75 78 69 44 37 37 35 30 25 22 20 21 22 20 22 28 30 28 28 28 29 29 45 46 57 68 55 46 46 57 51 48 53 58 70
46 48 71 84 74 85 89 85 79 76 50 38 36 35 29 27 25 24 25 25 24 26 26 27 28 30 32 31 34 38 51 46 59 81 73 53 57 61 62 59 56 70 71 71

GFSCGP_sfc_rhum_030.txt.gz
RH
13 14 16 12 12 10 9 10 10 10 12 12 11 12 13 13 13 16 16 17 21 29 29 32 36 39 38 46 43 46 49 59 56 55 55 54 55 52 49 46 50 50 52 52
12 15 14 11 11 10 10 13 14 13 13 14 14 14 14 15 16 16 19 23 25 28 29 33 38 46 43 43 43 41 41 45 43 43 47 52 54 51 49 50 47 49 55 57
18 16 12 12 13 14 13 16 22 19 16 14 15 17 17 16 16 17 19 20 21 26 30 35 39 45 48 48 48 39 41 43 49 53 44 48 51 53 50 50 51 54 57 55
16 13 13 14 16 18 19 20 21 19 20 21 16 22 19 18 20 21 24 26 24 25 28 32 37 44 51 53 52 43 42 41 44 52 54 63 59 55 56 54 54 53 52 53
18 16 17 18 22 19 22 22 22 22 24 23 18 23 18 19 23 27 29 29 31 31 32 33 36 40 43 53 55 50 43 40 44 49 53 59 60 60 56 56 57 56 58 56
17 15 19 21 19 20 19 24 23 24 26 44 23 20 24 21 22 28 29 29 31 32 33 32 32 33 41 53 53 53 45 40 44 46 50 55 60 60 60 59 61 62 60 57
19 20 20 19 22 21 21 26 49 58 54 54 24 24 31 25 24 26 31 32 33 34 35 34 33 34 38 44 47 47 46 43 44 50 53 55 59 62 61 63 64 65 60 58
24 36 23 20 24 26 25 26 62 59 67 52 24 25 34 26 25 26 27 29 31 33 35 34 34 37 39 42 45 46 44 44 43 49 54 59 62 61 60 62 66 66 63 62
27 30 22 22 21 22 27 38 26 36 54 68 28 31 28 27 29 28 28 28 31 31 34 32 34 39 41 43 45 50 46 41 44 51 58 58 59 60 62 62 64 64 63 58
26 36 23 19 20 26 24 21 42 53 75 56 25 26 41 34 32 30 28 30 31 31 33 34 35 38 39 41 41 50 45 42 43 42 46 40 48 52 57 62 62 68 69 69
23 31 30 20 26 23 26 28 29 28 42 64 62 35 24 25 26 29 28 26 30 34 34 34 34 36 39 43 43 42 44 40 36 37 42 50 50 52 56 61 66 66 69 68
28 31 49 22 20 21 24 29 29 71 50 63 66 49 21 23 26 27 28 29 31 32 31 33 35 40 42 44 41 40 42 35 37 39 44 48 51 53 58 61 64 69 66 62
35 42 56 36 32 29 24 22 23 30 57 63 80 50 20 23 37 33 32 33 35 35 31 33 37 39 42 42 42 37 36 36 36 37 42 47 51 58 69 70 74 77 79 74
55 32 33 50 28 23 26 21 21 27 68 59 54 39 28 26 34 31 30 32 32 32 35 37 40 42 41 39 39 36 36 40 37 38 42 48 62 62 68 70 75 78 78 74
39 50 34 31 24 23 22 21 22 25 30 49 40 31 28 31 30 28 39 39 37 41 43 48 46 43 40 41 40 35 38 37 40 40 44 48 57 58 60 65 66 62 61 55
37 64 65 62 27 27 31 25 28 25 27 26 31 34 27 26 35 41 42 46 45 57 57 53 43 43 45 43 39 36 37 38 39 39 44 45 52 56 61 63 63 60 58 56
49 74 78 84 60 64 87 57 29 28 27 32 47 34 28 39 46 47 48 52 56 58 55 52 50 48 48 45 36 38 37 36 38 37 36 41 48 54 59 52 50 54 59 54
76 76 95 96 93 84 32 24 26 31 29 30 29 30 39 41 42 49 55 61 63 59 56 53 50 49 46 36 35 38 33 36 38 35 34 35 47 48 53 53 50 54 54 58
44 83 96 100 73 48 35 32 40 46 47 33 43 47 49 52 49 56 64 65 64 60 54 51 45 37 31 30 31 33 33 34 35 36 33 34 43 48 49 49 55 53 56 58
47 73 94 99 92 81 45 28 32 34 63 52 57 67 70 63 87 74 67 65 62 53 40 32 28 25 27 28 29 30 30 31 34 38 45 51 47 46 51 53 53 54 55 52
93 95 95 84 94 70 36 33 34 66 77 67 65 75 80 83 80 70 63 58 44 32 26 23 22 23 24 26 27 30 27 28 42 52 52 48 48 50 50 50 51 51 58 72
81 94 97 89 99 87 35 44 82 68 61 68 68 74 71 68 65 60 44 35 29 23 20 19 21 22 24 24 27 26 26 25 39 47 53 62 62 50 45 52 55 57 61 77
63 63 75 71 74 50 48 64 64 65 73 73 70 61 68 58 42 38 34 28 23 21 19 20 21 24 26 26 26 29 31 34 48 62 72 68 57 56 49 57 60 65 65 86
35 30 72 64 44 39 60 64 64 67 76 70 64 57 43 41 39 34 26 23 23 23 24 23 25 27 30 29 29 31 37 43 53 60 72 75 76 70 55 57 60 77 86 90
55 47 52 55 43 45 71 73 74 78 70 57 44 36 36 34 32 27 27 26 25 26 26 27 31 33 31 31 35 37 42 55 62 80 78 82 79 70 74 70 73 81 80 86
51 52 73 79 64 64 83 86 82 76 55 39 36 35 29 26 27 28 29 27 26 32 32 34 35 37 37 37 40 40 53 61 72 84 89 95 94 86 83 82 80 73 78 75

GFSCGP_sfc_rhum_033.txt.gz
RH
21 26 29 21 20 16 16 18 18 21 17 19 20 22 21 23 24 34 38 40 43 46 45 48 50 51 50 61 54 50 49 71 72 67 60 62 60 57 58 60 54 51 59 62
26 30 19 15 17 18 16 20 28 21 18 19 22 25 24 23 28 32 36 40 44 48 48 52 60 69 72 67 56 55 50 53 55 58 58 60 65 58 58 64 61 62 62 62
29 23 16 16 24 24 26 31 30 27 22 24 26 29 27 25 26 26 32 36 40 48 52 51 55 66 62 62 54 50 52 52 58 59 63 64 65 66 63 61 65 60 60 59
23 18 18 20 26 25 34 29 28 27 31 38 27 38 33 28 30 32 36 39 44 45 48 51 59 64 63 63 57 53 49 51 54 56 61 64 72 69 66 65 64 62 62 63
29 24 28 30 28 25 34 31 32 33 38 43 35 37 33 28 41 42 44 43 47 47 50 53 57 56 59 59 59 56 53 52 54 57 60 66 65 65 64 63 64 67 66 62
24 24 27 30 25 27 26 32 35 38 43 62 45 41 40 32 39 42 42 43 43 45 46 48 53 56 61 64 62 57 53 52 56 59 62 64 66 66 68 68 74 74 71 68
26 29 28 26 32 31 33 44 71 68 78 68 50 52 61 43 35 38 44 47 47 47 48 47 46 52 56 58 61 53 56 52 52 58 67 69 69 70 70 74 76 73 72 78
43 48 32 26 32 38 37 40 82 74 86 70 37 55 52 38 38 41 42 46 44 45 41 46 48 52 50 51 54 52 50 49 53 64 64 65 67 72 72 73 72 72 75 91
50 42 29 26 27 31 34 53 37 49 72 82 56 47 41 39 43 35 36 37 46 44 42 46 48 49 49 48 53 56 51 51 53 54 53 53 57 60 63 68 76 84 81 68
37 48 29 25 28 37 36 30 54 71 75 74 52 55 65 49 43 39 39 41 41 43 44 44 46 49 52 52 55 54 52 48 44 45 51 51 56 58 70 76 76 75 75 74
41 50 41 29 32 38 40 45 44 45 67 80 87 58 41 42 44 41 40 40 45 46 43 44 47 52 50 49 49 53 44 42 44 46 50 57 59 64 69 70 74 77 79 75
41 46 58 38 30 31 35 41 42 81 65 78 87 63 35 50 48 46 44 39 44 47 44 47 49 50 52 52 49 45 43 43 45 46 51 54 57 69 77 79 83 85 88 86
52 51 75 53 45 40 37 31 32 46 75 70 85 69 31 39 44 46 44 38 44 46 48 52 52 55 53 49 46 43 42 44 42 45 50 54 63 68 76 80 80 83 86 90
62 46 54 68 46 36 41 32 29 39 87 77 72 56 40 58 60 53 57 53 57 60 60 61 58 53 51 46 49 44 46 45 45 47 50 56 70 66 72 77 80 83 83 86
57 64 59 53 40 36 37 37 33 35 39 65 52 46 43 48 58 58 55 52 63 66 63 60 58 58 56 56 56 53 48 46 45 46 50 59 68 67 68 69 71 69 68 64
53 81 75 70 54 51 50 45 46 40 41 44 48 51 52 54 52 58 61 62 65 66 61 59 56 55 56 56 56 47 47 49 50 50 53 55 66 66 72 70 68 68 64 61
75 82 90 90 78 80 80 64 42 41 40 46 59 56 56 64 67 72 74 71 72 70 65 64 62 59 58 60 52 50 48 50 49 51 51 50 60 63 66 63 64 61 65 59
80 89 97 93 87 64 53 39 44 49 48 50 60 67 66 69 74 77 78 83 77 73 71 67 64 60 56 54 52 50 41 50 56 49 49 54 66 61 63 72 63 59 57 59
71 92 97 96 96 66 50 46 54 59 73 67 76 76 75 72 71 92 74 78 82 79 74 67 59 56 54 41 35 37 39 37 36 63 69 72 70 71 77 68 64 54 55 63
76 84 88 94 94 89 64 47 43 48 82 75 78 84 86 79 92 90 82 77 75 70 62 59 37 31 33 36 36 39 35 35 49 50 71 74 79 80 92 84 67 56 60 78
96 92 93 98 93 82 60 48 47 75 78 84 84 89 90 90 90 83 78 75 67 58 32 29 29 31 33 34 36 34 37 39 53 59 66 76 82 76 78 61 54 57 76 91
87 95 94 89 90 95 52 61 67 78 87 81 82 84 83 84 79 76 68 49 37 32 28 28 32 34 33 33 34 39 40 48 58 61 68 90 87 77 57 63 64 67 84 92
84 80 92 80 82 64 65 71 83 80 85 84 76 75 78 76 59 52 47 37 34 33 33 34 36 37 38 38 40 44 49 54 67 77 86 86 79 74 69 63 72 78 85 94
56 57 84 78 60 70 84 81 77 79 86 81 73 69 70 55 54 46 37 35 35 34 37 35 38 41 45 44 41 50 56 68 73 92 90 87 89 87 81 74 78 95 96 96
68 63 65 73 77 87 86 86 87 87 83 72 63 60 52 45 40 39 39 37 39 45 42 44 48 50 50 48 49 53 62 73 80 88 83 90 96 87 83 79 86 92 89 90
71 70 85 88 76 82 93 91 88 87 71 64 50 49 39 37 40 42 42 43 48 51 48 49 53 56 56 57 60 66 77 81 87 92 83 89 98 96 95 96 94 78 81 80

GFSCGP_sfc_rhum_036.txt.gz
RH
26 27 30 21 22 19 19 24 24 25 20 19 24 26 31 43 47 53 56 58 60 60 59 60 63 67 65 78 68 69 77 82 84 84 83 76 76 67 68 61 60 62 61 65
27 30 21 17 22 24 23 28 30 24 21 20 28 30 32 42 47 50 54 59 62 61 59 60 68 83 79 84 79 64 58 60 62 66 70 74 77 71 63 63 61 60 64 61
32 23 19 24 29 30 37 34 37 31 29 28 27 33 39 35 40 44 50 56 56 58 63 63 66 77 76 71 66 60 58 59 63 63 64 67 70 70 67 67 67 68 66 64
25 20 24 31 30 33 44 35 33 32 35 34 30 43 38 41 44 45 51 60 62 59 60 60 64 67 65 65 62 59 56 58 59 64 64 66 72 68 72 71 72 72 67 66
31 34 34 33 34 30 35 34 36 39 42 47 42 41 40 46 50 51 56 57 59 63 63 64 64 62 63 59 63 62 58 59 61 64 67 73 70 72 69 71 74 70 68 69
28 28 30 34 30 31 32 38 45 46 50 62 47 50 49 52 51 52 52 54 56 60 63 63 63 62 68 71 68 66 58 57 61 68 71 71 71 71 71 75 77 75 74 86
32 35 31 29 36 32 34 52 71 70 78 72 52 63 66 50 41 48 54 54 54 53 58 63 65 68 70 70 65 58 54 57 67 68 68 70 72 73 75 80 78 74 77 92
47 52 35 29 36 41 42 50 78 68 80 64 48 71 59 51 47 49 48 51 48 48 49 56 59 64 60 57 59 60 58 61 64 59 58 59 64 70 71 75 78 82 87 91
52 46 35 31 32 35 38 54 41 62 77 77 62 57 45 50 43 43 48 48 55 48 49 49 57 57 57 58 62 60 58 52 51 51 55 57 58 63 76 78 79 82 81 77
45 51 36 31 29 33 36 35 54 70 70 73 59 66 70 58 54 51 48 52 50 44 46 53 52 56 59 60 62 59 50 46 45 46 52 54 60 72 76 78 78 80 82 81
46 53 44 37 37 42 42 48 49 52 69 80 87 62 55 55 52 52 52 47 51 49 49 54 56 58 57 58 52 46 44 43 45 43 53 58 62 71 76 80 84 86 86 87
49 54 57 45 35 36 39 45 52 79 58 82 87 65 48 53 47 45 44 50 53 53 54 56 58 56 56 56 45 45 45 41 44 47 54 55 60 75 80 84 84 84 80 84
50 55 72 57 50 44 41 39 42 63 76 69 81 66 39 48 59 56 62 62 65 62 65 64 59 56 55 56 54 47 47 46 45 48 51 54 60 76 79 84 84 82 83 85
62 55 56 68 53 45 43 38 35 52 84 75 74 58 53 67 68 66 70 74 75 72 66 64 63 61 60 59 61 60 56 51 48 50 52 57 62 76 77 82 84 84 86 86
58 67 65 58 51 46 44 44 42 43 43 61 55 62 71 70 70 69 67 69 67 66 66 64 64 64 62 62 63 61 57 54 54 53 54 58 64 75 73 80 78 81 74 68
65 79 74 61 67 63 53 46 54 50 44 48 63 77 66 64 68 72 72 71 74 71 66 67 64 62 60 59 63 64 63 61 60 59 57 59 63 70 76 78 82 73 69 75
77 83 80 62 85 70 75 59 48 47 55 55 62 71 71 76 76 81 83 79 80 78 73 71 68 67 65 67 64 57 53 53 54 58 62 64 64 72 75 75 83 89 96 68
82 95 95 81 78 47 48 48 45 68 73 72 76 78 76 76 83 85 83 87 83 79 74 73 72 69 64 62 46 46 42 43 48 62 67 73 74 74 78 88 89 88 85 72
72 90 98 79 90 54 53 50 54 56 74 76 82 82 82 77 88 93 81 82 84 82 77 76 73 65 50 40 40 41 43 44 57 67 75 76 82 84 91 91 96 94 91 67
77 82 82 99 71 66 54 53 45 48 79 80 83 88 85 82 90 87 84 79 74 73 72 62 48 34 37 37 39 43 44 49 66 68 72 76 83 90 93 96 95 89 68 82
96 96 95 99 95 81 58 55 52 76 69 86 84 87 86 84 82 79 83 74 70 57 34 35 37 38 38 40 42 46 46 57 63 67 72 85 90 93 84 87 71 76 87 90
89 94 96 95 95 86 56 60 64 68 91 88 89 86 87 86 81 76 74 54 38 36 36 38 42 43 42 44 50 49 52 53 66 76 85 87 89 86 79 67 70 77 90 90
68 71 85 77 79 62 68 64 85 85 88 85 85 84 78 78 74 59 44 40 38 39 42 42 46 49 52 52 54 57 55 61 74 88 91 92 87 87 82 72 75 82 85 95
61 68 87 79 65 74 89 86 82 82 86 82 77 76 75 68 57 46 40 40 43 47 48 48 52 57 63 61 59 66 65 75 82 90 89 87 87 92 78 75 74 91 97 97
63 66 74 80 94 91 90 89 88 88 83 74 69 68 62 46 45 43 43 46 52 54 54 55 61 68 67 66 63 67 84 84 98 99 88 82 92 99 93 83 87 93 89 92
77 72 85 88 71 80 88 91 88 87 78 67 63 54 44 43 43 46 51 56 58 62 61 64 68 71 72 64 70 73 90 90 94 99 97 92 95 97 94 95 94 82 83 82

GFSCGP_sfc_rhum_042.txt.gz
RH
30 27 28 26 26 23 24 24 28 30 25 24 41 55 64 72 74 82 86 86 84 80 79 81 82 88 92 94 93 93 94 95 94 93 88 80 83 83 74 66 62 62 63 65
32 32 26 32 28 30 29 30 34 33 29 27 49 60 65 63 76 83 85 86 83 81 80 80 84 89 90 91 89 89 85 84 77 71 78 76 76 76 73 73 70 66 66 67
33 31 28 33 36 36 41 35 40 34 34 33 42 49 63 62 68 70 73 76 74 80 82 83 83 90 90 80 71 65 64 63 68 74 77 79 78 77 72 74 74 72 70 72
31 34 31 33 34 40 42 40 36 36 33 39 39 46 63 64 71 74 75 79 80 78 84 82 84 75 71 73 72 68 66 64 65 68 66 66 70 71 78 80 80 75 74 80
38 40 36 35 39 36 43 37 40 43 48 55 50 47 53 64 71 75 78 78 79 76 74 72 70 67 70 75 74 71 70 70 71 72 72 77 78 82 81 82 80 78 83 86
40 37 36 39 38 37 38 47 52 60 59 64 62 61 59 70 64 68 70 72 71 72 71 67 70 69 71 72 72 67 61 68 71 73 74 76 74 74 76 81 83 84 88 92
41 41 36 36 40 40 45 53 70 72 74 74 60 66 60 57 58 61 68 71 72 73 74 71 71 72 69 67 65 61 67 72 68 70 72 73 74 73 71 76 81 81 84 90
53 52 42 33 42 43 53 51 76 65 82 65 59 77 63 61 58 60 62 65 68 72 71 74 67 70 69 69 66 63 70 66 57 59 60 61 59 64 68 73 82 85 88 90
53 50 40 36 43 39 51 57 51 76 78 76 71 67 61 66 68 64 64 65 68 65 64 65 71 69 67 69 70 73 59 52 53 54 58 58 60 63 71 77 85 86 87 83
49 54 42 34 36 38 39 43 61 69 64 59 68 72 73 74 70 66 66 67 65 67 69 71 68 66 68 63 62 56 49 50 51 53 56 56 61 67 77 82 82 85 86 87
51 50 45 43 43 48 47 52 60 65 73 78 84 65 58 64 64 65 63 63 68 75 71 67 65 63 60 51 50 51 48 45 47 50 55 61 65 69 82 86 87 87 89 90
57 56 58 47 42 48 48 52 50 65 57 86 85 70 65 70 62 62 69 72 73 70 69 66 64 59 57 56 56 51 53 56 56 57 59 61 66 68 73 82 86 90 92 91
48 57 67 51 44 45 50 51 63 64 74 74 78 57 61 70 75 76 80 79 80 74 71 70 67 65 59 60 63 63 70 71 64 60 63 64 67 70 71 75 82 90 92 91
59 63 55 58 48 53 46 42 60 56 81 70 69 59 76 78 79 85 86 84 79 76 71 70 68 66 63 61 66 69 61 61 59 58 61 68 71 72 75 80 84 88 90 92
54 64 69 71 66 55 47 44 48 48 52 53 51 63 55 74 84 88 86 82 76 73 71 69 67 64 62 65 65 59 57 56 57 56 65 71 75 74 76 78 81 88 92 91
70 76 72 75 75 68 60 50 49 50 50 54 64 62 72 80 81 89 86 81 76 76 75 73 70 69 66 64 61 49 48 50 56 56 70 74 76 76 78 81 85 92 95 95
75 79 72 72 78 57 57 52 52 57 55 57 70 61 82 87 84 89 87 81 77 76 72 72 77 73 65 58 48 45 49 51 56 60 68 76 79 82 85 87 92 95 94 92
81 83 83 71 72 48 38 47 54 52 57 62 71 73 77 81 86 85 84 82 78 73 70 76 74 59 53 44 44 50 50 54 57 65 72 78 80 85 90 93 94 91 91 93
74 86 96 74 74 44 36 65 66 58 54 73 70 84 84 92 88 88 85 81 74 72 75 74 68 49 43 46 49 53 56 56 58 66 74 76 82 92 94 95 95 95 96 96
73 76 77 96 65 55 42 60 58 52 73 71 78 87 91 90 96 85 88 84 82 74 63 43 41 44 49 52 57 62 65 68 71 70 73 81 90 93 94 95 95 97 88 85
95 98 89 99 82 67 52 58 55 69 61 86 80 86 93 91 84 77 85 76 61 40 39 43 49 51 54 59 64 70 74 75 74 76 78 88 86 91 93 95 84 86 88 91
93 98 98 96 92 73 54 60 62 64 80 83 86 88 87 83 84 82 76 47 42 42 44 48 53 58 62 66 72 76 79 78 87 90 92 93 95 94 87 95 83 80 99 92
81 71 84 76 78 60 60 74 80 78 79 88 88 88 84 85 82 75 50 45 44 46 50 53 58 62 66 72 76 77 76 85 94 93 83 80 91 96 91 76 83 89 91 96
76 69 79 74 59 67 65 75 85 86 83 87 86 84 83 81 72 54 46 45 50 52 56 57 63 69 74 76 78 78 80 90 94 81 89 92 97 95 97 98 93 97 98 98
74 74 78 82 74 87 82 88 84 86 87 84 82 81 77 63 54 48 46 51 56 60 58 64 72 77 78 81 81 82 88 78 77 92 92 96 98 98 98 94 92 94 93 92
77 74 85 80 63 66 64 84 88 90 88 84 76 68 55 54 49 48 52 56 61 66 66 72 77 82 87 89 89 89 73 68 76 89 91 93 100 100 98 98 94 81 84 84

GFSCGP_sfc_rhum_045.txt.gz
RH
27 23 22 18 20 17 19 20 20 20 20 32 39 45 53 57 58 63 64 66 67 70 72 74 79 82 83 82 83 91 97 97 96 90 74 62 63 57 50 44 49 50 49 51
25 26 21 27 21 23 22 24 26 26 27 30 41 50 55 57 66 65 67 67 68 70 68 71 72 78 79 81 82 90 86 87 76 60 53 50 50 49 48 49 54 52 55 55
31 23 26 30 31 30 32 30 29 26 27 30 33 35 49 61 63 66 65 64 64 62 60 63 66 70 74 75 73 64 62 64 60 57 55 54 53 54 50 50 47 53 57 58
30 29 28 30 32 30 36 30 29 27 24 28 31 26 40 57 66 67 66 63 62 61 62 60 59 57 58 57 57 51 52 51 55 56 52 52 45 44 54 54 52 50 61 62
31 32 31 33 32 30 36 34 34 35 37 32 38 28 33 57 68 67 63 61 61 60 57 56 51 49 52 58 59 59 56 55 56 58 57 54 59 59 57 57 61 61 62 63
34 28 29 30 34 33 40 38 42 45 43 46 46 43 38 49 53 61 58 58 59 58 56 51 50 51 52 61 62 59 54 55 59 59 61 61 62 58 51 53 53 54 56 58
36 34 30 32 33 33 35 40 48 50 55 47 48 52 42 43 45 52 55 56 57 55 55 53 52 53 55 55 56 54 53 56 56 57 55 55 53 48 44 44 44 49 51 56
42 38 31 30 31 35 41 38 62 55 60 52 47 52 41 46 46 46 49 49 53 56 56 55 54 54 55 58 52 53 54 51 46 47 48 47 44 40 41 46 46 50 52 52
46 40 30 32 34 31 44 46 41 62 64 60 46 46 42 52 56 51 49 52 55 54 56 54 56 60 57 55 58 61 48 43 42 47 46 45 46 48 50 54 59 57 60 57
44 48 33 28 30 35 33 39 51 54 62 44 40 50 41 56 54 56 53 53 54 54 57 57 55 58 54 55 51 52 47 46 43 40 45 44 49 50 54 60 62 63 62 63
41 47 40 34 33 39 40 45 53 50 53 48 51 32 47 48 50 54 50 53 56 60 57 54 51 48 43 43 42 42 45 43 42 41 45 49 48 50 52 53 56 57 63 63
43 52 53 36 33 36 36 41 46 53 49 68 61 41 50 55 51 53 54 60 60 55 52 50 50 48 48 50 52 57 59 54 49 45 47 46 48 51 52 51 51 57 59 63
47 53 56 42 34 37 40 43 46 51 59 62 79 37 52 58 61 57 60 62 60 57 54 52 49 48 49 56 54 48 48 39 38 35 37 42 49 49 49 50 54 53 58 62
57 52 50 50 39 43 42 45 47 46 62 52 49 34 44 58 64 66 65 62 59 58 54 52 49 49 49 51 50 40 39 39 36 35 37 48 53 53 53 54 53 61 65 69
51 53 51 57 56 45 36 37 50 43 43 51 39 43 35 44 57 64 64 64 63 57 54 51 50 50 47 46 41 36 34 35 38 39 41 52 57 56 54 56 62 66 72 73
59 67 56 62 61 56 49 41 40 43 39 41 42 41 34 53 60 70 70 65 62 57 53 52 53 51 47 43 37 35 35 37 42 41 45 52 60 56 58 62 68 72 74 72
62 72 67 65 60 46 63 48 43 43 44 38 44 36 64 70 68 70 70 65 61 56 56 59 58 49 47 37 35 34 37 41 43 43 45 52 60 59 60 63 66 69 72 74
70 67 69 71 68 53 36 41 40 45 45 43 50 55 59 60 64 65 62 62 62 57 58 60 52 45 36 33 35 42 40 44 47 48 49 51 58 61 64 68 67 71 76 79
60 73 84 77 55 38 29 43 54 54 40 47 46 62 71 73 67 68 66 60 56 58 58 53 41 35 34 37 42 44 44 48 49 51 56 57 61 66 69 67 71 72 78 74
62 67 76 81 64 58 38 39 50 43 59 49 58 72 78 69 81 62 68 64 60 59 54 39 33 36 40 43 47 48 49 50 54 61 66 63 67 72 72 72 70 71 62 61
95 96 92 83 80 60 41 43 46 57 51 68 62 70 78 70 69 68 74 70 60 43 33 35 37 38 42 48 52 53 52 53 59 65 66 69 73 78 74 70 66 64 69 75
78 93 97 91 84 74 44 49 62 56 56 63 72 72 78 75 75 80 68 50 37 35 38 39 41 42 46 50 56 54 55 53 64 69 72 67 63 64 76 72 63 65 85 92
72 65 75 67 67 55 49 57 61 61 60 66 72 72 73 75 73 64 48 40 40 38 39 42 43 48 51 52 58 62 59 62 70 71 73 66 63 68 70 71 73 73 72 83
68 61 71 68 51 56 58 57 68 70 71 66 74 73 72 72 68 51 39 42 43 42 44 44 48 50 55 56 62 63 65 70 66 72 71 72 71 73 74 73 73 72 76 76
63 65 66 69 62 65 64 73 67 75 75 77 73 72 71 65 48 48 49 45 43 49 48 51 56 59 61 65 68 67 67 66 63 69 74 76 79 83 78 72 66 68 70 79
69 69 80 79 58 58 58 77 80 80 79 74 68 59 55 58 57 53 51 46 51 53 54 58 63 66 67 72 72 68 63 57 64 78 78 86 86 83 79 72 68 77 85 84

GFSCGP_sfc_rhum_048.txt.gz
RH
18 16 15 11 11 11 13 12 12 12 14 15 15 23 27 40 41 44 40 41 42 43 48 52 56 55 56 62 66 70 76 82 92 91 80 64 50 46 42 34 40 40 40 43
18 17 17 16 14 14 14 15 16 18 16 19 22 27 30 37 41 41 42 44 46 50 53 60 59 60 59 63 66 66 64 66 60 54 43 40 39 34 33 36 44 43 46 46
16 19 21 17 17 18 19 18 20 16 19 20 21 26 33 40 43 45 44 42 44 46 52 55 58 60 62 65 61 54 54 55 49 42 40 41 41 38 36 38 37 43 46 46
20 20 21 19 20 20 20 20 18 19 18 17 21 16 26 36 42 44 47 46 45 45 44 43 40 42 45 49 47 43 46 43 44 44 38 38 32 33 39 40 40 38 48 47
24 21 21 20 23 22 25 22 20 20 20 20 21 18 23 34 40 44 46 46 47 46 43 34 32 34 34 43 43 41 38 38 42 44 41 40 42 42 40 40 44 46 44 44
22 21 21 22 26 22 26 26 26 25 24 29 21 25 12 23 28 41 44 46 45 44 38 32 31 34 38 49 49 47 42 42 44 44 46 47 48 42 35 34 34 31 31 32
23 24 22 23 25 27 24 25 28 33 33 28 33 31 18 29 30 34 43 44 43 36 36 35 36 36 38 43 46 44 40 42 43 45 43 41 39 36 34 35 32 33 29 30
23 30 23 23 24 22 24 23 30 28 32 29 36 31 27 32 30 31 35 38 35 36 36 35 36 38 39 43 42 41 40 40 39 39 37 36 34 31 32 33 35 34 34 35
27 27 23 26 25 24 32 29 30 40 50 47 23 28 29 34 36 35 37 34 36 36 38 38 39 41 42 44 46 46 41 37 37 41 40 39 38 38 37 40 41 41 44 39
30 33 25 26 24 27 27 26 35 36 50 31 18 24 18 36 37 35 37 35 36 36 40 39 41 47 44 44 46 46 37 35 34 34 40 36 36 36 39 43 43 42 41 40
26 28 32 26 26 24 33 32 31 28 36 28 26 15 28 29 32 35 33 35 35 40 41 43 43 44 43 40 39 36 33 33 40 41 42 39 35 32 32 34 34 34 36 32
32 32 40 28 26 26 26 27 28 34 34 46 42 21 26 34 34 34 33 34 37 41 41 40 40 38 36 36 36 43 42 43 48 42 30 28 29 30 30 31 32 35 35 37
31 35 43 36 29 31 30 28 27 31 40 39 63 22 27 36 38 36 36 41 44 43 40 39 39 38 38 42 44 44 39 35 26 22 24 26 28 29 30 32 34 36 39 42
44 35 33 38 26 27 33 31 27 25 39 25 28 14 24 31 35 37 38 42 42 43 40 39 38 37 38 41 36 33 32 26 24 24 23 25 30 33 34 36 38 42 43 46
37 38 33 35 34 31 28 27 30 28 23 36 19 16 11 19 27 33 38 43 43 42 41 39 37 36 35 33 33 28 25 26 27 25 24 28 35 36 37 40 43 45 49 48
41 46 44 46 43 38 36 28 26 29 25 25 22 23 16 19 23 36 44 44 45 43 40 37 34 34 33 31 25 25 26 28 29 27 28 30 35 37 42 44 48 48 47 48
44 52 50 44 41 40 75 38 27 24 26 27 30 23 27 33 34 39 43 44 44 43 40 37 36 36 32 28 24 25 26 29 30 30 28 30 34 38 43 42 45 48 52 54
53 51 64 68 67 82 20 26 26 27 24 22 24 28 26 30 34 35 37 42 45 42 39 38 40 35 28 24 25 30 26 28 31 31 32 33 37 40 42 46 49 48 54 60
38 50 78 93 43 27 16 21 25 29 21 22 24 24 36 45 46 48 42 41 43 41 37 38 34 28 25 26 28 28 28 28 29 32 36 38 44 45 47 48 52 50 56 56
42 46 60 84 93 89 24 30 37 34 36 31 30 34 45 48 55 25 47 46 44 38 37 33 27 26 28 30 32 31 27 30 33 36 42 43 46 49 52 54 53 52 52 52
86 92 95 78 97 48 25 32 37 44 35 38 36 38 47 46 40 50 46 48 40 38 32 27 28 29 29 33 34 33 31 33 34 41 46 47 47 48 51 60 59 51 50 68
62 84 94 86 100 82 29 40 50 41 39 40 45 43 51 53 60 59 53 48 40 29 30 30 31 29 31 32 35 30 30 31 40 45 49 50 49 45 45 57 53 51 58 75
56 46 54 48 46 38 34 38 41 43 43 43 46 46 51 61 58 54 50 41 33 32 31 33 31 35 34 34 34 37 36 42 48 51 51 51 49 47 46 55 57 64 61 68
45 44 54 53 32 34 36 33 35 36 44 45 51 51 52 53 54 47 36 35 38 38 38 36 34 32 34 36 39 42 46 50 50 50 54 65 72 61 53 54 55 60 64 68
41 48 46 48 36 35 37 45 51 51 57 58 58 57 56 54 47 38 42 46 45 46 49 37 38 40 38 41 44 44 48 52 52 52 55 62 64 71 68 60 56 56 53 61
42 42 59 59 47 46 51 64 66 62 62 58 55 53 48 44 53 51 52 48 56 57 40 40 40 43 42 43 45 43 43 46 51 57 55 64 73 69 71 68 67 74 78 80

GFSCGP_sfc_rhum_054.txt.gz
RH
18 23 25 21 19 14 14 15 16 15 11 12 12 15 18 17 21 31 27 28 29 30 32 37 39 44 42 54 71 86 86 82 86 86 83 71 70 68 64 56 56 54 54 53
23 31 19 17 16 15 11 14 11 10 8 11 11 14 13 17 18 24 27 29 32 33 39 42 48 52 52 64 84 83 76 78 74 68 65 64 64 59 54 56 57 58 57 56
37 47 30 21 13 12 16 24 26 15 10 10 14 13 18 18 18 21 26 29 32 38 44 48 52 60 66 79 82 68 70 69 68 57 54 56 58 58 54 58 60 58 55 53
34 25 28 21 14 14 29 21 22 18 21 18 20 33 35 21 25 25 28 29 32 35 39 45 56 69 71 68 75 65 65 60 53 50 51 56 50 53 58 59 57 57 58 53
27 27 25 17 14 17 31 20 24 14 15 26 30 34 35 25 25 28 30 31 34 35 41 45 58 61 62 65 64 57 49 46 49 48 52 57 53 61 58 57 56 53 54 54
18 21 23 20 15 14 21 25 19 17 21 44 33 35 30 28 24 28 29 33 35 39 42 40 43 44 47 60 61 58 47 44 49 50 54 54 62 59 60 59 57 54 51 48
22 18 14 16 16 16 18 23 38 77 68 40 14 26 31 35 36 31 31 34 38 39 40 38 38 40 45 51 55 52 45 45 50 56 58 60 59 57 51 50 55 53 51 53
25 30 17 16 16 44 36 18 57 57 72 37 29 22 24 20 20 23 27 31 37 40 38 34 35 40 46 51 51 49 43 46 50 56 55 56 50 55 53 56 50 56 56 58
35 28 29 15 13 27 22 25 22 25 27 50 23 14 27 22 23 24 29 33 40 41 36 32 34 40 44 48 53 54 46 46 50 54 56 52 54 52 52 51 54 58 57 40
40 58 35 18 17 17 19 15 32 29 52 47 19 18 30 28 26 26 31 36 40 38 35 32 33 41 42 44 47 56 51 46 46 47 53 51 50 51 54 50 51 50 49 48
26 55 28 21 21 16 23 25 20 18 31 56 57 27 25 22 24 27 28 33 38 37 34 34 34 39 42 52 50 55 49 43 44 49 53 55 56 48 41 44 45 43 46 46
18 24 32 24 16 15 18 22 20 54 34 40 53 35 17 21 23 23 23 29 32 32 33 33 35 43 45 49 52 53 49 44 46 49 55 60 55 40 42 42 40 44 46 50
23 30 43 27 22 20 23 17 17 22 36 43 78 38 18 17 20 20 22 27 29 32 31 33 38 44 45 48 50 46 48 47 47 45 54 42 36 36 40 41 44 45 48 50
44 27 27 40 23 23 27 22 18 22 67 48 40 24 17 20 20 18 22 24 28 31 30 36 40 43 43 45 43 46 48 48 43 40 29 34 34 39 44 46 47 50 51 54
31 32 22 19 18 19 24 22 19 21 24 40 33 20 14 14 20 19 19 22 24 30 34 37 39 42 40 44 46 42 43 40 34 30 30 35 40 40 43 48 52 52 55 52
31 42 37 40 28 24 29 23 22 21 20 18 20 19 13 14 15 17 18 20 22 31 34 35 36 38 40 42 42 38 38 35 34 32 31 33 36 37 46 50 54 55 54 53
37 50 58 64 35 36 60 36 26 21 18 20 27 22 16 17 18 22 22 19 26 29 33 34 36 38 41 41 36 36 32 34 32 33 29 31 36 39 46 42 43 50 58 59
43 52 71 84 72 78 26 16 15 19 17 15 14 15 15 19 21 21 22 27 30 31 34 37 39 40 38 34 32 35 27 30 32 31 29 31 37 39 42 46 50 56 60 62
32 57 84 98 62 32 24 17 18 20 22 18 19 18 18 28 27 26 24 27 32 35 36 38 37 37 34 30 30 28 28 28 26 30 31 32 39 40 44 46 57 60 61 62
28 45 78 90 99 87 32 22 19 20 45 20 19 25 27 27 57 42 32 31 32 33 35 36 36 34 32 31 31 31 33 30 30 31 36 36 40 43 47 53 57 60 64 57
84 94 95 81 98 66 26 24 24 48 54 29 27 25 31 34 52 42 37 36 35 36 35 34 31 31 31 35 36 41 36 28 26 32 38 38 40 43 49 54 56 57 62 70
80 90 97 91 100 92 23 25 42 45 38 35 32 39 51 56 53 46 41 42 38 32 30 28 31 33 37 40 44 34 28 28 33 38 40 43 46 44 45 58 58 57 65 80
56 49 68 65 69 41 26 34 38 34 36 36 42 38 39 48 47 44 46 40 32 30 29 30 42 48 48 41 35 38 42 34 40 43 45 46 45 49 50 59 64 70 70 85
32 33 55 51 27 27 28 28 35 35 43 41 45 44 44 45 48 48 37 33 32 35 55 60 63 58 46 35 34 39 39 40 38 46 49 52 56 56 59 59 64 75 80 91
37 37 38 37 29 26 43 49 50 48 49 46 46 46 48 45 46 39 35 42 60 73 70 57 51 49 42 38 41 41 34 40 41 48 51 59 62 70 73 65 72 78 78 82
32 36 65 72 51 50 59 55 51 52 51 47 46 44 40 39 40 48 60 69 68 69 66 55 43 46 45 36 32 31 32 35 46 59 63 80 86 84 75 69 76 77 80 81

GFSCGP_sfc_rhum_057.txt.gz
RH
29 32 34 27 25 23 22 23 25 21 18 25 26 32 33 36 48 43 57 38 34 35 42 38 45 48 60 86 91 92 90 93 93 97 98 98 96 95 84 76 70 67 63 65
32 40 28 24 22 23 23 25 27 18 16 18 22 23 24 43 43 32 38 55 40 54 53 51 55 61 76 93 95 92 86 92 91 87 92 83 84 78 72 70 69 66 64 65
39 36 31 32 35 34 28 33 29 26 23 16 18 26 31 26 47 45 35 45 40 52 57 59 62 94 97 97 95 88 88 88 84 86 84 80 75 74 72 72 71 66 64 61
38 31 27 33 35 28 39 26 27 27 33 32 28 54 39 32 28 45 42 45 56 51 53 60 81 92 96 96 93 84 84 84 84 83 72 72 66 63 69 75 73 66 62 58
34 36 37 35 31 26 36 25 30 32 33 39 37 50 40 31 36 34 40 43 48 52 57 70 79 79 86 89 93 85 84 81 75 57 64 64 70 70 68 64 65 66 60 58
31 26 28 34 23 22 26 29 37 46 44 53 34 42 46 38 32 36 37 44 51 56 62 70 74 78 84 88 90 90 75 56 59 63 67 69 72 69 66 62 57 60 54 58
26 28 22 26 34 28 31 38 63 72 77 67 32 42 39 36 42 38 42 47 58 64 64 72 75 75 73 72 72 63 59 61 62 68 67 61 60 57 58 60 59 55 58 60
41 44 33 26 29 36 37 44 65 70 82 61 44 48 39 33 34 33 37 47 54 58 54 58 57 61 64 62 62 57 59 62 66 65 63 59 62 66 56 52 58 61 63 62
45 41 35 27 25 26 47 65 43 49 57 59 45 41 37 32 40 46 44 50 57 53 52 50 55 59 63 65 63 64 60 63 67 65 63 62 58 52 52 56 58 64 58 43
54 55 48 40 31 25 30 38 48 54 48 55 40 39 51 40 37 44 47 56 58 55 49 46 52 58 58 60 63 68 58 56 55 62 63 55 50 49 56 56 56 54 51 50
47 53 51 41 42 37 34 35 32 34 55 62 73 46 40 40 38 42 49 50 56 55 47 49 51 52 52 53 54 65 51 47 52 54 56 52 50 54 48 46 49 47 49 50
41 59 72 52 38 24 24 31 44 65 44 58 68 53 26 31 35 35 41 44 51 47 46 48 50 50 52 57 59 51 50 53 59 54 54 57 60 52 43 43 45 51 50 54
42 45 57 48 34 33 34 27 26 35 61 53 75 58 25 26 32 32 34 46 48 46 46 48 52 56 56 59 57 54 52 54 60 63 55 57 59 40 42 49 52 50 51 53
47 42 48 57 38 34 40 32 28 35 77 60 58 45 32 28 28 28 26 40 48 42 41 45 50 54 57 57 54 54 66 65 54 47 50 46 41 44 48 50 50 53 54 54
43 47 41 32 30 32 30 35 33 33 39 56 44 38 31 26 30 26 28 26 39 44 50 51 54 60 66 62 60 56 58 52 46 40 36 47 47 47 47 52 56 56 59 57
44 57 50 58 43 39 42 34 35 33 31 31 34 34 26 26 23 24 25 31 35 48 48 52 56 54 54 56 52 52 53 48 41 39 40 43 44 45 49 52 53 54 55 57
56 60 74 74 48 47 60 43 36 34 33 33 40 33 28 28 27 28 29 30 34 46 47 49 50 50 50 47 45 48 46 42 41 38 39 42 44 46 50 46 49 55 61 67
63 64 83 83 73 64 43 30 23 30 26 25 26 34 40 37 36 34 34 38 40 45 48 52 52 52 48 43 42 38 36 40 38 39 37 39 42 44 48 54 57 63 66 69
55 79 88 77 81 55 37 30 30 32 36 30 32 38 39 37 45 46 43 46 48 54 54 52 44 38 37 36 37 35 36 33 37 38 38 38 46 50 52 57 62 64 67 68
53 73 78 97 90 76 55 31 27 28 55 41 36 38 40 40 80 71 48 50 53 49 44 42 38 37 41 44 42 42 44 45 43 36 40 43 51 56 58 61 64 64 66 63
90 91 87 98 96 80 54 33 37 50 58 47 43 63 60 74 75 59 50 41 39 38 36 36 42 47 50 48 44 41 39 43 42 41 48 48 50 50 55 68 69 70 72 77
78 93 98 98 97 83 47 35 46 62 53 50 56 66 74 68 62 59 44 39 36 36 46 49 54 53 50 47 39 42 50 42 41 46 50 51 53 52 51 62 69 74 84 86
84 80 89 80 85 66 57 55 51 49 56 62 60 58 62 66 62 44 41 39 49 59 58 57 58 54 49 43 42 48 48 47 49 52 54 55 55 56 57 66 76 88 90 95
55 48 71 62 50 43 62 59 60 62 64 64 64 62 60 60 46 42 41 70 74 71 71 62 59 55 52 46 44 46 51 51 47 54 57 62 66 67 67 71 75 86 95 94
60 52 53 57 66 68 71 69 67 66 65 54 49 50 56 46 52 68 80 81 78 74 67 57 59 60 58 52 50 50 49 54 50 56 61 70 75 81 83 80 84 88 85 84
54 57 73 78 72 75 80 71 67 64 59 54 57 63 65 68 75 73 75 75 74 76 70 67 63 55 52 50 48 44 42 44 55 66 73 84 88 91 90 88 82 82 82 84

GFSCGP_sfc_rhum_060.txt.gz
RH
32 33 36 32 27 28 28 29 34 30 28 41 38 35 38 43 52 51 63 74 76 71 59 64 59 51 58 80 86 88 92 94 92 94 98 99 97 96 90 82 74 72 72 73
39 45 30 31 33 39 37 39 35 25 25 37 33 35 42 49 43 44 46 45 42 50 44 46 50 64 85 91 90 93 88 91 88 85 96 92 92 92 82 80 76 70 72 74
45 38 33 34 40 38 38 42 34 31 29 28 27 36 37 38 45 46 42 44 45 49 57 58 63 94 96 96 95 90 89 89 87 83 89 87 81 81 80 80 78 73 70 68
42 35 33 41 38 36 45 32 29 30 31 28 31 45 43 33 46 48 50 54 57 57 56 77 92 96 94 94 96 88 86 87 86 92 91 82 80 76 78 80 77 74 66 64
37 39 38 36 33 31 40 34 31 36 42 43 41 39 34 35 39 42 45 53 55 55 58 88 96 96 96 96 95 94 94 92 89 91 86 77 77 76 80 81 76 76 72 66
30 33 30 32 31 30 27 34 46 51 52 55 43 42 40 37 30 34 44 46 55 57 72 83 88 92 95 95 97 97 96 92 89 85 79 76 76 82 80 79 76 65 61 64
34 34 28 31 31 32 34 45 64 64 71 61 40 47 38 35 33 33 40 50 56 65 85 89 93 94 96 96 95 94 85 71 75 74 74 75 69 67 64 66 61 58 61 66
42 42 34 30 34 38 46 43 64 59 69 52 46 50 38 35 33 39 45 59 66 76 79 84 88 89 88 87 88 75 66 73 69 62 65 65 64 68 65 60 64 65 66 65
48 46 46 34 35 31 47 55 54 61 64 62 48 40 39 37 40 45 51 64 74 74 81 80 78 75 71 70 71 68 68 71 64 63 65 64 61 58 66 64 64 72 66 56
41 55 46 41 35 32 33 40 58 68 50 52 44 45 52 44 50 56 56 68 70 66 69 70 69 66 61 61 64 70 69 67 64 64 64 58 54 58 60 68 67 63 54 53
47 45 44 45 41 34 39 41 43 45 58 60 70 48 39 42 45 53 56 60 63 59 61 63 63 61 60 62 65 70 68 63 61 62 62 56 59 61 59 55 58 51 52 54
45 56 63 44 37 40 38 39 43 66 44 64 70 50 31 40 40 50 50 54 60 51 52 55 59 62 66 66 74 67 60 53 52 53 57 61 60 62 58 49 50 53 54 57
46 55 67 54 41 37 46 31 33 52 62 52 75 56 31 34 40 41 52 56 58 59 51 51 58 62 62 68 61 59 55 53 55 60 59 70 73 47 49 51 51 52 54 56
47 50 49 64 46 38 43 36 33 40 74 56 62 44 35 31 32 38 39 50 59 56 49 55 60 60 69 61 56 55 61 67 68 62 63 59 52 52 53 55 58 59 59 59
43 46 43 39 37 40 42 38 39 40 44 54 43 47 34 32 30 32 34 43 58 56 57 68 73 74 66 64 66 70 69 69 61 54 49 56 55 51 52 53 55 56 58 59
48 48 51 52 49 44 45 39 40 39 36 37 39 39 34 31 35 30 31 34 49 56 64 68 72 70 71 75 75 70 64 54 42 43 46 48 52 51 53 54 53 55 56 61
57 63 73 68 53 53 67 47 38 36 37 37 42 35 37 36 33 36 38 31 54 62 64 67 68 68 69 67 63 58 45 42 42 43 44 52 54 51 50 46 53 57 65 67
68 74 80 84 74 75 50 38 35 37 36 35 41 47 42 42 51 54 51 49 56 57 62 64 62 63 59 54 46 43 37 40 42 43 47 46 47 47 52 53 59 64 70 68
62 81 89 78 82 61 43 32 26 32 41 42 47 43 47 51 48 55 57 62 66 66 60 54 48 44 41 38 39 39 39 42 44 46 44 42 54 53 56 60 65 69 72 71
62 75 81 98 78 75 54 36 30 33 56 48 45 47 44 54 82 75 61 56 50 44 42 42 44 45 46 46 41 44 48 50 49 47 54 52 54 57 63 66 69 71 75 74
88 94 86 98 86 70 48 41 38 45 49 52 61 60 63 77 77 62 50 45 43 46 49 50 49 50 51 47 40 42 44 47 48 52 53 51 52 55 58 67 70 75 82 86
67 87 98 96 91 73 50 41 45 52 61 68 72 74 77 73 59 52 46 52 54 56 54 50 50 49 47 43 51 60 62 47 50 50 52 56 58 57 55 68 70 74 84 88
74 63 80 78 78 59 62 54 61 58 64 67 70 73 70 59 51 48 63 62 62 61 57 53 54 52 51 50 49 51 55 50 54 56 57 60 60 62 64 72 77 86 87 93
64 69 79 74 63 72 73 72 68 68 73 71 71 68 68 52 52 69 69 68 68 68 65 55 54 56 57 54 48 49 53 56 55 58 60 63 69 72 74 77 80 89 93 94
67 59 64 87 82 74 75 77 76 64 64 63 61 60 51 56 74 76 79 77 71 67 61 58 63 62 58 54 54 53 53 58 60 64 65 70 76 80 83 83 84 85 83 81
60 60 73 80 71 74 83 81 68 65 67 67 69 74 71 71 77 74 76 73 73 74 65 64 66 58 54 51 51 55 60 63 66 68 72 85 86 84 84 87 82 84 80 80

GFSCGP_sfc_rhum_063.txt.gz
RH
38 36 42 37 34 32 37 41 40 33 30 43 46 43 46 68 69 84 90 86 75 73 62 68 74 73 70 75 89 94 94 96 92 95 97 98 96 96 88 83 78 79 80 78
39 42 32 36 36 39 40 47 43 36 31 36 44 44 40 59 58 68 79 87 76 68 68 68 77 72 79 89 89 96 90 96 90 85 98 96 95 94 85 84 80 76 77 74
42 38 34 36 43 38 40 45 46 40 33 37 34 42 42 56 51 55 65 70 71 69 66 65 71 76 92 93 95 95 93 92 89 90 89 92 88 85 85 86 84 79 77 73
42 38 38 44 38 38 46 37 40 37 33 40 32 44 44 50 50 52 55 56 57 61 56 54 59 89 92 86 94 94 94 92 93 93 95 91 87 83 86 86 82 79 75 71
34 44 42 40 33 33 40 37 36 39 45 46 46 41 36 38 53 49 48 51 50 51 50 53 61 80 89 94 97 95 94 93 91 92 94 88 86 83 86 85 80 82 76 71
34 35 35 33 35 33 35 42 44 51 52 53 46 44 45 45 36 42 42 44 50 64 71 72 74 90 92 97 97 96 95 94 93 95 94 88 84 83 87 88 88 79 76 74
38 36 33 35 40 38 39 46 58 61 67 56 46 50 44 34 33 36 40 44 52 57 88 96 96 94 94 95 98 96 95 96 96 96 93 90 83 82 81 84 77 73 75 70
41 43 34 32 36 39 51 43 63 54 63 52 48 55 40 37 36 40 36 49 57 63 81 93 95 96 94 95 96 96 97 86 86 85 89 78 74 78 76 70 73 74 69 70
49 44 48 44 39 32 51 56 54 61 67 70 53 40 33 39 49 51 72 71 75 75 85 90 94 95 96 97 96 93 82 78 73 74 73 67 63 63 63 67 72 86 82 76
39 44 47 44 40 39 38 44 60 71 56 53 46 48 43 38 44 59 66 79 87 87 89 89 93 93 93 90 90 81 73 67 66 63 58 57 62 62 65 76 84 82 77 64
46 42 43 49 44 40 47 49 50 52 59 61 68 51 40 43 43 49 58 69 80 86 90 87 84 81 78 77 78 75 71 67 66 66 62 58 63 67 70 71 73 77 67 57
45 50 53 40 39 39 37 40 46 65 49 68 69 54 33 41 41 50 49 60 75 73 79 80 78 75 70 70 71 72 72 66 63 61 59 66 69 70 82 87 81 59 60 58
48 56 62 47 40 46 48 43 47 56 65 63 76 57 32 34 38 40 54 61 71 68 72 76 78 72 69 70 79 77 70 65 56 59 66 78 80 86 68 59 61 58 57 57
49 54 48 58 42 41 49 41 40 48 76 58 63 44 35 34 35 37 45 56 70 66 61 66 74 75 83 83 74 63 62 63 66 71 77 77 68 65 58 59 58 60 60 61
46 52 48 46 40 39 38 40 43 45 47 54 46 50 38 36 34 32 37 46 63 71 63 63 77 88 83 76 69 66 69 73 75 74 66 70 66 57 59 56 57 57 57 58
51 52 48 64 52 47 49 41 42 44 43 47 45 44 37 36 35 34 36 40 52 68 65 72 80 81 74 74 78 74 78 81 69 69 65 64 59 55 56 57 56 58 60 67
55 66 69 58 59 58 68 54 43 40 39 40 46 39 41 42 42 51 45 41 54 69 79 82 80 74 76 76 75 81 75 66 55 60 57 58 55 52 55 53 55 60 66 71
64 70 77 80 75 75 45 45 41 44 40 39 46 51 47 55 65 72 74 66 73 79 82 83 82 80 82 77 62 54 48 55 53 54 52 51 55 56 55 56 61 65 71 74
66 81 86 78 82 61 50 41 40 36 38 47 49 55 57 60 61 64 65 62 70 71 66 65 62 58 52 45 43 43 46 47 48 49 48 49 58 55 58 62 68 69 73 77
65 78 80 94 80 81 61 45 33 34 51 43 48 59 58 57 55 72 61 54 53 51 50 50 48 45 44 44 42 45 51 47 51 53 59 57 55 57 61 66 69 74 77 75
92 96 89 97 87 75 52 41 38 45 51 50 49 52 60 59 67 65 58 58 55 54 51 48 47 48 48 45 44 49 53 52 51 56 56 53 55 57 61 66 73 74 78 82
74 89 96 94 84 76 49 49 42 50 74 69 71 75 79 69 66 65 61 60 56 54 50 45 45 47 53 56 60 66 55 52 54 52 54 57 60 60 59 72 76 77 84 88
64 67 80 74 76 61 58 46 60 65 71 74 76 79 63 64 62 64 67 64 59 54 54 54 58 58 54 49 51 55 54 49 53 57 60 61 61 64 68 75 78 85 86 93
68 68 74 68 68 71 76 75 72 70 71 72 78 67 58 60 68 72 69 67 66 71 66 55 56 56 59 52 51 52 57 62 60 64 66 68 72 72 74 79 80 88 89 88
70 69 81 88 89 77 76 84 72 72 72 70 71 64 58 68 72 71 76 77 76 70 62 59 61 60 58 58 64 68 71 74 77 79 80 83 83 86 86 83 85 82 79 79
66 70 80 80 77 72 78 82 72 72 74 72 69 75 73 72 75 76 78 73 66 66 64 64 58 62 65 70 84 86 84 85 89 84 86 92 92 92 92 93 88 81 85 84

GFSCGP_sfc_rhum_066.txt.gz
RH
40 39 44 37 38 35 36 44 45 40 32 39 42 44 69 69 83 92 96 96 91 83 73 76 83 85 80 83 93 96 97 98 95 97 98 98 98 96 94 78 78 77 79 78
41 43 35 36 39 39 43 45 44 38 34 39 50 47 42 68 74 74 90 95 88 82 78 75 87 89 81 83 92 96 95 96 93 86 97 93 96 95 86 81 81 83 82 79
44 38 36 38 43 45 44 46 49 42 38 44 43 43 46 54 64 61 73 79 81 76 77 72 80 86 82 85 92 94 94 95 90 93 96 97 96 89 89 91 87 83 81 79
42 40 38 43 42 41 50 38 43 46 41 42 38 44 43 49 58 60 61 78 80 78 69 68 75 86 84 83 92 92 95 95 94 94 96 92 95 86 86 89 86 84 81 78
35 47 44 42 40 38 41 41 45 43 45 57 49 43 35 53 60 57 56 67 71 74 71 68 68 76 83 93 96 97 96 95 95 94 94 93 92 90 90 88 85 86 79 73
36 41 40 38 36 35 38 46 44 52 53 55 48 47 45 50 47 46 49 51 59 59 65 62 68 87 95 98 99 98 97 96 96 96 96 94 93 89 92 91 93 87 85 78
42 40 37 36 40 40 41 46 58 60 66 57 49 54 46 38 32 39 48 49 51 54 71 73 86 93 97 98 99 98 96 97 96 96 96 95 93 86 86 89 88 80 78 76
44 39 36 34 34 37 48 43 61 54 60 51 49 56 38 37 40 42 40 47 50 59 69 77 81 94 95 96 97 96 96 95 97 96 95 97 92 93 88 85 77 78 76 71
48 42 46 47 42 37 52 54 46 63 70 73 56 42 27 38 51 58 68 64 62 62 74 85 92 93 95 96 95 96 94 95 96 96 97 94 94 88 80 72 67 79 83 78
38 43 48 45 43 44 40 47 56 67 60 57 49 49 40 32 36 54 74 74 80 74 76 90 96 94 94 94 91 95 96 94 90 90 90 86 78 70 65 74 83 81 88 83
42 41 42 50 46 42 50 52 53 54 63 59 69 48 41 38 40 45 53 64 83 91 91 90 93 94 96 95 98 97 92 82 79 77 78 74 68 73 82 83 85 81 87 91
45 48 48 42 45 40 45 46 51 66 54 70 70 60 34 33 39 48 50 53 79 90 93 93 93 94 96 96 96 91 87 77 76 73 78 80 74 72 79 83 84 89 84 72
47 51 54 43 42 51 53 48 50 58 68 66 77 61 33 38 37 41 45 54 65 83 92 93 94 92 88 91 94 92 84 78 70 74 73 71 75 82 89 87 90 78 69 64
47 57 46 47 42 44 59 47 52 52 79 62 65 47 36 33 37 38 38 48 65 79 84 91 93 91 88 92 90 83 85 77 75 74 74 82 84 83 77 67 62 65 61 60
45 47 51 47 44 39 39 38 47 47 49 54 48 52 39 36 37 35 35 40 65 76 76 83 92 94 94 90 87 84 80 77 75 76 80 89 81 67 63 62 59 59 59 57
53 51 52 65 56 51 56 47 48 46 47 48 50 49 39 40 37 37 39 39 47 71 79 78 88 90 93 88 86 85 87 87 82 85 87 70 66 56 57 60 59 60 58 63
55 65 66 58 61 59 65 56 47 46 47 46 54 45 39 41 52 72 76 64 55 70 78 83 92 90 89 90 86 93 92 82 76 65 60 55 56 58 61 56 56 57 62 68
66 64 72 77 74 66 44 52 46 49 46 42 43 47 44 54 78 75 74 85 87 90 94 93 90 91 91 90 84 76 65 61 55 53 52 56 60 60 57 57 59 62 68 71
65 76 84 76 78 56 48 49 47 45 42 42 47 58 64 68 71 75 61 62 71 77 76 77 77 71 61 56 54 52 50 44 46 54 53 54 59 56 57 61 65 69 74 75
67 74 75 91 80 76 58 52 36 35 50 44 52 63 64 55 52 58 63 63 62 58 57 56 53 50 49 48 44 41 44 49 55 57 57 57 59 58 61 65 70 74 80 77
91 93 82 96 86 77 58 43 37 49 53 52 54 64 60 49 59 69 67 64 58 56 54 52 51 53 52 48 46 54 54 52 56 59 58 56 56 58 61 68 75 78 80 82
78 90 92 90 87 75 50 49 43 49 71 62 58 62 77 75 74 72 66 62 56 52 49 46 48 59 66 66 58 54 54 54 56 56 56 57 60 61 62 74 78 79 84 88
72 68 78 72 75 63 58 49 51 57 64 70 69 76 69 73 72 70 68 61 57 54 59 63 60 57 54 51 59 60 66 59 60 62 68 72 72 74 76 79 82 86 88 91
66 64 71 66 61 65 67 73 72 70 72 78 79 66 63 69 70 71 65 62 65 67 66 61 57 60 63 68 72 76 75 72 72 80 84 85 87 88 88 88 86 94 96 94
70 67 78 78 82 80 76 78 74 78 81 81 69 65 66 70 71 67 70 72 70 72 69 63 64 69 78 81 81 80 79 77 82 83 83 88 90 94 93 89 93 90 89 93
73 73 77 73 57 60 65 81 77 79 82 74 68 73 72 68 72 70 74 72 72 70 59 66 70 75 85 78 72 74 77 77 77 75 82 89 89 88 85 84 81 75 75 75

GFSCGP_sfc_rhum_069.txt.gz
RH
32 32 35 30 30 27 30 32 34 31 26 29 32 37 53 62 71 72 69 67 66 78 58 60 63 64 66 67 68 73 81 84 81 83 89 88 91 88 88 77 67 69 64 72
32 37 29 27 30 32 33 34 32 30 28 33 34 32 39 54 64 66 65 70 62 61 68 66 69 70 69 64 69 77 75 81 76 68 72 72 76 78 77 66 65 68 73 64
38 31 32 34 37 36 35 36 37 33 32 32 35 30 36 44 53 60 61 60 63 63 61 65 68 73 75 72 76 74 74 76 74 74 76 79 81 77 73 69 70 66 65 60
35 32 35 37 37 35 39 33 33 36 33 29 28 29 28 35 49 56 59 64 64 67 65 59 62 67 73 70 73 70 75 77 78 78 78 78 77 79 73 70 71 66 65 62
31 41 39 39 37 34 35 35 35 34 34 33 35 29 24 38 41 42 49 55 58 58 61 62 59 60 67 72 80 79 79 78 78 80 79 83 84 84 78 75 70 68 65 61
31 31 34 32 33 33 34 36 37 40 41 43 37 33 28 26 31 35 36 44 51 56 58 57 56 57 66 80 83 84 81 80 82 82 82 81 85 85 75 68 68 65 61 58
32 32 29 31 31 32 33 37 43 48 49 43 40 40 32 30 28 29 30 41 44 51 59 60 58 64 69 81 83 84 80 84 84 88 86 83 88 85 75 68 66 65 61 58
36 35 31 31 29 31 37 36 50 40 46 38 42 42 26 29 28 33 39 38 42 47 53 55 55 61 71 80 82 81 81 79 84 87 86 83 88 90 70 66 63 62 59 58
44 34 33 36 34 30 42 42 38 54 56 58 42 33 23 27 31 35 37 50 42 46 48 49 53 62 68 78 82 83 80 82 85 86 86 87 92 83 72 70 66 66 64 60
37 37 39 39 34 39 35 39 47 52 52 48 36 37 29 25 25 34 37 43 51 54 51 51 55 65 69 72 73 81 79 77 86 84 85 85 85 78 73 73 70 67 64 64
36 39 37 39 40 37 44 43 44 41 47 48 49 35 33 28 27 33 34 41 45 55 57 58 64 65 68 71 73 79 80 84 83 81 83 83 79 74 72 71 69 68 77 88
39 47 48 38 33 33 35 39 42 58 47 55 52 43 27 30 31 33 36 39 41 53 55 63 69 75 74 76 78 84 86 86 77 74 76 74 72 73 73 74 74 74 90 89
45 46 44 34 34 40 40 39 43 49 56 55 68 44 28 29 28 29 33 34 42 57 60 67 74 78 80 80 86 84 82 74 65 64 74 77 75 74 72 78 86 91 83 69
45 49 43 39 33 38 49 45 44 45 62 52 49 38 30 27 28 26 30 31 32 50 59 65 71 73 77 80 82 79 78 68 70 74 76 77 71 77 91 87 78 71 68 54
46 46 46 38 32 36 38 38 47 43 43 50 39 41 30 28 27 27 28 31 31 35 55 65 69 76 77 80 81 79 76 74 71 73 73 83 88 94 88 76 64 70 59 48
49 49 52 47 47 40 42 36 42 43 39 37 38 40 31 30 30 29 36 43 36 36 43 60 73 78 79 80 78 78 77 76 78 81 85 90 91 78 64 63 72 64 49 51
54 62 61 53 50 48 65 52 42 40 40 39 44 34 34 31 32 43 51 58 62 61 63 66 75 78 78 77 74 77 74 72 73 78 79 66 58 53 65 64 48 49 57 56
63 62 67 73 69 76 41 40 36 42 40 38 38 36 32 33 55 57 57 67 76 78 77 78 77 78 76 74 74 74 63 63 62 57 53 54 61 62 60 47 53 58 52 56
55 68 75 82 64 51 40 42 44 45 30 37 37 34 43 56 57 57 54 59 68 74 74 74 71 70 69 66 61 56 50 47 46 49 54 58 59 52 53 59 51 52 55 55
62 66 74 80 76 69 50 38 37 31 45 32 37 46 58 58 55 41 55 57 58 57 58 57 55 54 56 54 48 44 41 44 50 51 54 56 56 49 49 51 52 54 55 54
83 87 76 82 88 66 49 38 36 54 44 35 42 49 57 43 47 54 58 56 52 51 50 48 47 48 45 41 40 48 52 58 58 60 52 46 46 46 49 53 54 55 56 62
74 81 89 84 94 70 48 36 45 48 47 43 50 56 62 64 66 64 56 54 51 49 46 44 44 43 40 42 48 49 51 48 46 45 49 52 55 53 54 59 59 58 61 69
77 65 74 64 65 59 48 45 44 47 48 56 52 57 61 67 62 58 55 51 47 46 47 47 50 55 53 48 45 49 52 46 53 57 61 59 56 53 51 50 51 52 49 59
63 64 68 65 56 56 59 54 55 52 56 60 60 57 57 59 60 57 51 49 54 52 51 49 51 56 65 62 62 59 62 60 54 56 56 53 51 50 49 46 47 56 64 68
63 64 69 69 60 71 63 68 58 61 70 66 61 57 57 60 58 52 52 54 55 54 50 50 60 67 67 62 61 56 54 52 53 53 50 51 55 59 58 55 60 65 63 73
64 65 71 69 56 53 42 57 68 68 73 62 62 64 59 56 56 53 55 57 56 55 55 63 69 64 59 59 60 55 53 47 44 46 50 66 64 66 64 64 65 67 69 68

GFSCGP_sfc_rhum_072.txt.gz
RH
23 24 25 17 17 17 19 20 21 18 18 20 20 19 22 38 41 39 39 39 46 43 43 46 48 48 46 50 49 55 62 69 67 62 55 57 72 81 83 74 70 67 66 57
25 27 19 19 20 21 20 23 22 19 21 25 19 19 17 32 39 37 37 36 36 50 45 43 45 50 51 51 54 56 58 65 62 48 47 53 62 78 76 61 70 62 61 56
22 21 21 22 23 24 22 25 24 22 22 22 23 20 21 23 32 36 36 34 35 34 47 45 45 48 50 50 53 50 51 53 57 52 46 55 60 66 68 65 71 62 62 54
20 18 23 24 22 23 26 20 22 24 26 22 22 19 17 19 27 34 37 38 36 36 33 40 42 44 49 48 46 45 45 50 56 58 55 62 56 62 61 67 63 55 58 49
22 23 26 25 24 23 25 23 24 25 25 24 22 18 16 19 20 20 28 35 36 37 36 33 38 39 40 45 50 52 51 56 58 64 62 61 60 61 70 89 82 62 58 51
17 21 23 21 23 23 25 28 28 28 26 31 23 22 14 14 16 17 17 22 32 35 35 37 34 36 39 51 58 60 58 59 60 65 68 68 67 73 76 86 83 60 52 52
22 22 20 23 24 25 26 29 35 40 36 32 27 26 19 14 16 19 18 19 22 27 34 36 36 38 39 49 60 61 59 57 59 67 70 77 74 74 72 74 71 54 52 53
26 29 21 20 20 21 24 26 34 37 37 28 29 25 16 17 18 17 21 23 24 25 28 34 35 38 40 49 58 58 56 56 58 67 74 74 70 70 68 71 60 54 52 50
26 22 18 21 21 20 32 31 25 34 42 38 21 20 14 14 15 19 20 25 28 26 27 29 33 37 42 50 56 57 52 51 59 70 74 75 74 74 73 73 63 56 53 48
22 26 22 27 24 27 26 23 34 32 42 38 22 23 18 16 16 19 16 16 27 30 29 29 30 36 40 44 47 55 48 48 54 62 70 74 72 72 78 74 63 58 56 54
19 24 35 31 30 24 32 30 28 26 30 37 36 24 16 15 15 18 17 21 22 29 32 31 32 33 39 43 47 51 49 45 51 61 70 76 74 81 83 74 68 63 60 62
20 25 29 26 22 23 21 24 27 36 33 36 40 30 15 16 18 20 19 19 22 27 31 32 35 37 40 46 48 48 50 51 53 59 72 82 86 83 84 81 74 75 81 86
25 29 35 29 26 29 28 25 25 28 35 32 54 32 19 18 20 18 20 18 21 25 28 36 40 44 44 45 49 48 55 58 60 66 78 80 82 84 86 89 90 95 92 84
34 25 28 32 22 17 27 22 23 25 39 30 27 23 17 17 18 16 16 19 20 22 24 30 39 44 49 51 54 56 62 62 65 71 76 81 82 83 87 94 95 94 87 75
28 29 25 20 16 16 18 17 20 25 24 28 24 20 16 17 17 16 17 21 20 19 21 27 34 42 51 58 62 62 67 69 72 72 75 76 80 86 94 93 92 78 60 70
31 30 29 30 23 23 24 20 20 23 22 22 24 21 15 15 18 20 20 22 23 23 24 25 36 47 57 63 65 69 73 72 68 68 72 75 83 86 88 88 71 74 70 55
40 34 39 38 31 33 56 35 24 23 25 25 27 20 16 18 20 21 22 30 32 38 42 41 46 54 59 63 64 73 70 67 69 69 74 75 74 72 61 54 52 56 51 47
44 42 42 50 70 82 28 25 21 24 22 21 22 20 18 18 22 31 35 38 50 52 53 55 56 58 58 58 60 64 62 63 66 64 59 50 53 59 56 45 49 57 53 50
41 45 59 88 51 29 30 31 29 30 26 18 20 18 16 21 32 34 41 47 53 58 56 55 55 58 59 60 56 54 58 59 56 50 45 50 53 50 49 65 61 47 44 43
45 48 55 66 86 82 32 22 23 24 37 18 19 22 23 35 42 25 43 49 51 50 48 51 53 53 55 53 49 50 51 47 44 43 48 44 46 63 54 46 43 40 39 38
73 70 80 64 89 41 32 31 26 41 38 22 21 23 32 36 32 41 47 49 46 46 47 47 48 50 50 46 43 42 40 42 46 48 49 49 44 40 40 41 40 40 42 48
62 72 87 68 99 82 34 31 34 28 34 26 30 31 39 42 50 51 48 48 48 46 45 43 45 44 41 39 41 40 43 43 45 41 41 41 41 38 39 44 45 43 43 47
60 51 52 49 44 36 32 26 27 29 25 33 31 33 40 49 49 47 48 48 46 43 40 39 39 42 40 38 40 43 40 37 40 44 46 44 42 39 35 37 36 36 34 45
46 50 56 51 30 34 37 30 38 30 33 32 35 36 43 44 45 47 44 41 41 40 40 39 41 42 43 39 38 38 42 43 40 43 43 40 38 34 32 26 31 40 49 54
35 41 44 39 34 44 42 43 36 35 41 45 43 38 40 41 44 42 41 42 41 41 40 39 44 46 46 44 43 41 40 40 40 39 36 36 39 42 41 39 47 50 53 64
40 41 54 55 35 42 28 36 44 43 44 43 44 44 39 39 42 40 42 41 41 42 41 45 45 46 44 41 40 36 32 32 32 34 37 51 48 49 44 42 52 69 66 66

GFSCGP_sfc_rhum_075.txt.gz
RH
20 20 21 16 16 14 15 16 16 15 14 16 16 15 15 23 26 31 29 37 40 40 50 50 53 50 41 48 47 48 54 68 70 70 54 50 50 71 82 74 66 64 57 56
19 23 16 15 13 14 16 18 18 15 14 18 16 16 15 20 23 28 32 30 34 35 40 47 50 50 42 45 43 45 47 60 61 46 43 41 45 65 69 64 67 65 69 66
21 17 14 17 16 18 19 20 21 20 16 16 17 17 14 16 21 24 28 26 30 31 38 39 42 44 45 45 46 43 50 56 60 44 37 40 57 58 71 70 65 63 60 55
18 13 18 18 19 18 22 16 18 19 20 33 17 25 24 14 19 23 27 28 26 30 31 35 39 44 46 45 45 45 46 55 58 60 43 48 64 61 59 64 64 69 74 61
18 16 19 21 19 17 21 19 20 20 22 19 17 14 16 11 14 17 22 26 26 26 29 33 35 36 39 43 45 46 44 42 47 54 60 48 50 50 61 70 67 77 75 63
15 12 14 16 16 17 18 22 21 22 23 31 19 18 17 13 11 13 12 20 24 25 26 26 29 30 33 44 49 48 43 40 44 62 63 58 56 52 61 71 72 73 75 60
18 16 15 16 21 19 20 25 36 39 34 35 22 19 15 16 11 13 13 14 18 23 27 26 24 29 31 36 44 47 45 44 45 58 68 65 62 61 72 72 70 74 68 60
23 24 17 17 19 22 22 23 34 48 42 31 23 21 15 12 11 11 12 13 14 17 23 26 27 27 28 36 42 46 46 48 46 52 63 65 62 63 65 66 65 71 68 58
21 19 13 15 16 17 21 25 19 29 26 33 21 16 13 11 11 11 12 15 17 20 19 20 24 29 30 34 39 47 47 46 46 51 58 67 67 68 68 66 69 70 70 55
17 23 14 16 15 16 21 19 30 26 40 49 21 20 16 14 13 14 13 14 19 21 21 20 20 26 29 33 35 49 47 42 43 46 57 69 68 70 72 74 76 80 80 70
16 21 20 18 22 20 22 25 24 21 30 41 38 22 19 13 12 14 13 14 14 18 21 22 22 23 27 32 37 44 45 39 39 45 56 72 76 70 81 81 91 94 82 66
18 22 25 22 16 14 15 21 21 33 29 27 30 27 14 14 13 14 14 13 13 16 18 21 23 24 26 32 35 40 45 40 38 45 56 76 81 92 90 89 89 89 89 89
20 25 31 25 19 20 22 20 19 22 24 30 58 34 12 13 15 14 15 13 13 15 16 20 24 27 29 33 37 39 43 42 38 52 72 87 89 87 85 86 90 92 95 96
33 23 27 32 23 20 24 18 17 21 42 34 28 20 14 12 15 15 14 13 13 12 15 19 24 28 32 34 39 40 44 46 53 77 78 86 87 87 90 91 88 90 93 92
26 29 22 18 15 14 15 16 16 19 21 29 23 18 13 12 12 13 13 14 14 13 13 16 20 27 34 40 43 43 52 60 63 73 80 89 90 89 86 87 89 91 89 87
25 32 26 24 18 16 17 14 15 14 14 15 16 16 12 12 11 12 13 14 16 16 16 17 19 24 38 46 52 56 64 66 69 77 83 87 89 87 92 91 88 85 72 69
32 35 32 40 21 22 39 22 17 16 15 17 22 18 14 13 13 14 14 14 19 21 27 27 26 33 45 52 66 72 73 73 75 80 86 84 84 85 82 73 70 65 59 55
41 37 39 56 66 67 26 18 16 18 15 15 16 15 14 13 13 14 20 21 25 33 36 39 40 45 48 59 67 73 72 76 79 79 76 74 72 64 53 49 47 49 50 52
29 46 55 76 54 32 21 24 23 22 20 15 16 15 14 13 19 20 23 28 32 40 41 43 44 48 53 66 70 71 73 73 72 67 58 52 48 47 50 53 53 56 53 49
26 43 62 66 66 67 32 21 18 17 34 16 16 17 17 16 33 18 31 37 42 40 42 46 48 50 53 55 56 61 61 56 53 47 44 43 45 44 48 54 52 46 42 36
73 68 79 67 76 38 19 19 18 40 37 17 16 17 18 20 24 34 37 40 38 39 42 43 45 48 48 46 48 51 49 45 41 39 39 42 44 48 46 43 40 37 37 40
69 68 85 70 96 83 27 29 32 29 24 21 21 19 24 27 41 43 40 40 41 40 43 41 44 45 43 41 43 41 41 39 40 42 42 40 40 36 36 39 40 39 40 50
51 47 56 45 45 32 30 25 29 22 24 23 24 20 25 41 41 40 41 42 41 40 38 38 40 42 40 38 36 40 42 40 41 41 42 42 39 35 33 36 37 38 31 43
23 21 41 40 29 28 28 29 26 24 26 23 27 24 29 39 36 39 38 38 38 37 37 37 40 42 44 41 39 38 37 37 37 41 42 38 36 33 28 23 28 38 45 51
26 26 35 33 26 25 30 31 31 26 29 27 28 26 30 33 35 35 36 36 36 38 37 37 40 42 40 37 37 37 38 39 39 38 35 35 34 36 38 36 46 48 58 67
23 28 41 48 31 35 30 31 30 32 32 32 32 31 30 31 34 34 34 34 36 38 38 41 42 42 40 38 38 36 34 32 33 33 35 48 47 45 38 38 60 65 69 70

GFSCGP_sfc_rhum_078.txt.gz
RH
20 25 25 20 18 17 16 17 17 15 15 18 18 13 15 22 23 30 38 38 48 60 70 73 73 69 75 80 80 77 77 80 81 88 74 66 69 84 90 85 77 80 78 74
22 27 19 15 15 16 15 17 18 15 13 18 16 15 15 21 23 30 36 39 43 55 56 64 61 64 69 73 74 75 73 78 76 77 62 58 64 76 86 83 82 82 80 77
25 19 16 16 17 18 17 20 21 20 16 17 18 18 16 18 20 29 28 37 38 45 56 55 55 60 60 65 66 62 67 70 68 69 62 57 69 81 86 88 85 78 84 84
18 15 16 18 20 17 22 15 17 18 21 25 30 32 19 18 23 23 31 30 35 38 44 50 53 57 54 56 55 51 50 64 67 68 56 58 58 72 74 85 77 75 80 76
20 17 18 19 18 16 20 17 21 20 23 23 27 30 16 17 22 21 27 31 33 34 39 44 46 51 49 52 53 53 50 57 62 67 74 60 74 75 81 79 83 84 85 84
16 12 14 15 15 16 16 19 22 22 25 35 23 23 25 26 19 14 21 26 29 32 34 36 40 43 45 54 57 57 55 57 62 68 70 74 72 71 72 81 87 85 85 86
17 15 12 13 17 16 18 26 39 54 48 42 24 26 23 23 16 13 14 20 28 29 34 39 37 40 45 50 55 57 55 53 56 70 69 71 71 71 72 78 83 84 85 82
24 25 16 14 19 22 22 25 41 57 87 54 39 29 15 14 12 12 12 14 20 26 31 32 37 38 39 47 54 54 52 53 48 66 71 70 71 67 74 76 84 79 79 76
24 22 13 14 16 18 24 29 22 32 33 54 39 35 19 12 11 11 11 13 18 21 25 28 29 36 40 40 50 56 52 50 50 60 71 75 71 74 78 86 85 79 80 75
22 28 16 14 15 17 20 19 33 29 52 49 24 23 43 25 16 13 14 17 21 25 26 24 27 33 37 40 41 52 52 48 50 53 63 70 74 74 79 85 81 83 87 83
20 27 23 15 19 20 20 24 30 26 30 49 57 30 35 25 19 17 16 17 19 25 26 26 26 27 33 37 43 49 51 50 51 52 60 70 76 80 88 88 90 92 93 91
21 28 32 22 16 14 16 23 25 40 33 40 54 40 16 20 18 16 17 16 18 18 21 23 27 28 31 38 40 46 53 53 51 51 59 79 87 87 92 97 95 92 93 92
25 30 39 28 20 18 21 18 19 24 27 36 60 38 18 15 15 16 19 17 16 18 18 22 26 28 30 34 43 46 54 53 49 51 79 88 95 95 94 93 92 92 93 94
50 28 30 38 30 22 25 19 17 25 47 39 36 27 18 16 17 16 18 23 20 17 15 18 25 29 33 38 42 44 56 61 77 77 90 95 94 93 94 95 94 92 91 92
40 40 28 22 19 17 19 21 20 21 21 29 27 22 18 15 13 19 18 20 18 15 15 16 19 30 35 41 48 49 75 81 85 88 90 95 96 96 95 95 94 94 92 92
35 39 32 34 21 21 21 17 18 18 17 16 18 19 13 12 12 17 14 13 14 17 17 19 19 26 38 46 54 72 79 84 85 91 96 96 95 95 96 95 94 92 91 90
55 41 41 49 28 24 37 25 18 15 15 17 22 19 15 16 15 16 17 18 16 16 21 26 28 28 50 70 74 79 81 83 86 91 93 95 95 96 94 89 86 84 85 78
60 54 47 61 68 59 28 19 17 20 18 17 16 16 15 15 14 14 18 23 22 26 31 35 36 52 69 71 76 79 78 84 89 91 90 89 90 88 81 77 75 73 69 68
60 60 90 75 59 37 26 23 24 26 26 19 18 16 15 14 21 20 21 26 31 36 39 42 46 60 67 72 74 78 82 83 84 85 84 81 77 71 67 62 63 64 66 69
55 60 65 84 75 74 43 24 25 24 39 20 18 22 22 19 41 30 32 34 42 42 44 47 52 68 74 74 72 76 79 78 79 76 72 67 59 56 56 60 66 69 64 59
79 83 74 72 83 54 28 23 26 43 47 25 22 23 28 26 34 37 38 40 40 42 45 49 53 60 69 69 68 72 70 68 61 54 52 50 51 52 57 63 61 54 53 70
86 91 88 78 97 78 32 33 36 37 38 30 27 30 37 43 46 44 40 42 41 42 47 49 54 54 54 55 59 58 55 47 46 47 47 49 51 46 47 56 50 50 65 80
68 59 73 54 57 46 42 35 37 36 37 35 34 29 29 49 44 42 42 42 42 42 45 45 48 53 52 50 49 49 46 44 48 51 50 49 44 44 43 51 58 60 55 70
24 35 54 57 39 41 53 59 38 34 39 29 32 32 34 44 43 43 40 40 40 42 43 43 47 48 50 45 43 45 48 47 45 49 52 50 46 41 38 34 45 66 76 83
31 30 34 37 32 32 29 43 38 36 35 34 31 30 34 42 41 39 39 39 40 41 42 43 48 50 49 46 45 43 43 45 48 50 46 45 48 54 59 59 71 80 77 84
26 29 43 58 38 45 38 34 41 41 34 30 35 35 34 36 38 37 38 38 39 42 41 45 48 46 42 42 43 43 42 42 44 42 52 73 73 68 63 68 74 76 76 73

GFSCGP_sfc_rhum_081.txt.gz
RH
31 37 41 36 31 26 27 26 36 36 26 30 28 37 56 52 53 69 82 95 95 87 82 83 80 82 83 84 85 85 91 92 89 86 75 64 65 87 89 87 81 82 81 80
34 37 29 25 23 23 22 26 27 22 20 22 26 24 29 39 49 55 61 68 78 96 86 85 87 81 83 89 88 86 88 90 82 81 65 68 69 80 83 86 87 84 87 92
36 31 24 25 25 24 25 26 27 26 23 24 32 33 27 28 42 42 46 57 69 87 91 86 85 89 88 89 88 80 80 83 77 76 72 75 83 92 90 90 88 89 92 96
28 24 24 25 26 22 29 22 21 27 29 38 35 46 34 32 40 47 43 53 67 70 74 76 75 86 88 84 79 68 67 72 75 78 78 78 69 80 88 94 93 96 95 90
26 25 26 26 23 21 27 24 29 33 34 40 37 45 36 28 36 44 49 47 53 62 64 65 70 72 74 70 73 69 72 74 75 76 80 77 82 80 93 94 92 95 95 90
22 18 19 19 19 20 20 27 30 37 39 53 36 38 42 34 30 31 39 48 47 56 61 59 57 60 65 63 68 67 64 68 72 75 77 81 66 80 85 92 95 96 96 95
26 24 18 16 22 22 24 32 59 72 73 68 51 50 36 27 24 26 38 39 44 45 56 60 60 59 58 59 61 60 58 60 70 76 76 78 78 76 83 89 93 94 93 95
38 39 22 17 19 26 27 31 66 69 89 85 66 61 36 26 21 18 19 32 37 42 46 53 56 55 57 55 57 55 54 55 63 72 76 76 81 75 79 84 91 90 88 90
36 31 20 16 19 23 34 40 32 58 71 77 64 46 32 23 20 19 17 16 36 39 41 45 47 50 52 55 58 56 54 56 59 71 74 76 80 81 84 88 91 91 89 88
35 40 22 18 18 23 25 29 48 52 77 84 46 50 43 33 27 23 20 29 32 33 40 41 42 46 50 53 49 59 60 57 56 57 73 74 80 83 92 93 92 92 91 88
24 35 33 24 24 26 32 32 37 35 52 64 68 53 40 32 27 27 23 22 27 32 30 35 40 40 44 50 54 55 62 58 59 57 74 79 84 89 95 93 94 91 94 96
31 40 45 34 23 18 22 29 33 68 54 61 66 57 31 27 25 25 22 22 23 23 33 30 31 40 41 51 50 51 64 64 60 60 79 83 88 91 94 92 94 96 96 94
35 46 53 39 28 23 25 26 25 35 48 57 82 64 25 25 23 19 22 20 21 24 26 32 33 33 47 50 52 53 62 63 62 79 76 88 91 95 98 98 98 96 96 94
48 44 42 52 39 33 36 26 25 33 62 56 57 44 33 27 24 21 23 26 25 26 22 30 38 37 37 53 56 66 69 69 72 73 93 97 98 98 98 98 97 97 94 95
46 57 42 36 27 26 28 27 26 28 35 42 41 37 31 26 22 22 25 24 25 23 22 23 37 42 45 52 71 70 87 93 95 97 98 99 98 98 98 98 96 95 94 94
55 56 54 46 36 29 29 27 26 24 25 25 27 31 22 22 20 20 20 26 25 24 24 25 28 40 52 73 91 92 97 98 96 98 98 98 98 98 97 97 97 97 95 94
64 73 60 64 42 41 56 34 27 28 24 27 32 26 23 22 21 22 22 20 24 25 33 33 45 68 81 89 92 98 97 95 96 97 98 98 98 98 98 96 93 94 94 93
73 76 77 85 70 73 40 26 24 27 25 24 26 27 24 20 21 26 26 26 31 38 40 48 84 88 91 93 94 94 95 95 96 97 97 95 95 96 94 93 92 91 87 84
65 77 92 97 76 58 45 32 31 31 33 26 28 27 24 22 24 36 34 36 40 48 52 74 87 88 92 93 93 94 96 96 95 94 93 91 88 87 87 86 84 77 74 74
63 72 88 96 97 91 58 37 28 31 50 29 32 32 31 29 46 42 47 58 59 60 68 86 84 86 90 92 88 92 94 92 90 87 84 81 81 81 80 75 72 68 73 69
92 93 96 98 99 84 42 34 35 51 55 33 33 34 34 40 46 46 57 60 59 63 71 83 86 91 89 85 84 89 88 88 78 76 77 73 64 62 64 68 71 69 71 80
86 90 98 94 97 96 39 38 44 45 40 37 41 40 49 54 59 59 56 58 59 64 71 75 84 89 85 83 82 84 79 70 70 63 58 56 56 54 62 64 61 66 78 87
89 80 87 73 76 61 57 59 59 55 50 47 43 41 55 63 59 57 59 59 60 65 67 68 74 82 80 76 74 77 65 56 58 57 58 59 54 53 52 58 62 73 77 86
54 53 63 66 48 40 53 59 46 45 49 42 41 41 54 56 58 58 58 58 60 63 63 67 67 72 74 68 59 59 59 60 57 56 56 53 48 49 50 54 66 78 83 86
47 50 54 60 49 44 41 44 37 38 38 45 40 39 42 56 59 57 58 57 58 60 63 60 63 62 62 59 60 58 57 56 56 51 51 56 62 65 69 75 80 82 87 90
40 45 65 72 47 47 44 49 48 39 41 44 47 41 41 54 55 54 57 57 59 61 59 59 59 54 51 51 56 53 50 50 56 58 62 74 75 82 80 81 88 85 85 83

GFSCGP_sfc_rhum_084.txt.gz
RH
37 42 42 38 37 33 34 36 37 32 28 37 39 40 45 57 74 95 98 89 79 81 85 87 89 90 90 87 87 84 87 92 89 82 79 80 75 76 90 88 83 88 85 89
39 44 32 30 33 33 33 36 34 26 23 32 31 32 39 60 69 81 94 94 85 77 83 89 95 90 88 86 83 80 82 90 79 74 62 60 57 89 92 90 90 87 84 86
32 36 28 31 32 34 34 35 33 27 25 28 34 36 40 47 56 63 74 84 90 86 85 93 89 96 97 90 92 89 84 85 79 73 74 82 85 94 95 95 94 89 86 89
28 23 30 35 33 31 38 27 26 29 36 41 36 48 40 49 60 60 62 73 89 88 83 88 87 86 97 95 93 86 84 82 78 78 72 75 66 74 90 90 88 93 92 93
29 27 31 35 31 28 34 27 28 32 39 45 39 50 40 46 62 60 59 66 80 90 89 89 85 83 88 87 91 88 83 83 75 78 78 75 89 87 93 95 93 93 96 95
24 21 26 28 26 26 23 29 34 42 44 58 57 56 49 43 41 53 49 59 70 79 82 81 78 81 88 82 84 84 77 77 75 78 79 80 81 83 89 88 91 92 94 95
32 23 21 23 29 25 27 35 55 64 65 65 64 61 47 34 30 42 48 48 65 68 72 76 80 83 84 82 80 77 72 72 70 74 76 81 84 83 82 86 88 94 96 97
41 44 27 24 27 29 32 34 63 62 81 74 64 57 45 31 28 27 37 44 48 65 66 69 70 75 75 70 69 69 68 71 73 77 79 79 81 79 78 79 88 91 88 88
48 39 26 21 21 23 32 42 35 63 74 80 67 54 36 30 25 24 37 40 52 51 63 64 63 67 70 70 62 65 66 68 68 74 78 82 84 83 76 85 88 90 87 87
41 47 27 22 22 22 28 32 50 60 80 80 65 61 50 34 26 28 26 46 47 49 53 60 60 61 62 66 68 68 66 63 61 64 74 77 83 84 81 88 92 90 92 93
27 46 42 31 32 29 37 42 46 44 62 77 74 54 41 32 30 27 27 35 41 45 48 50 54 56 57 61 67 69 70 65 62 56 67 74 79 84 85 90 91 92 94 96
31 37 45 38 28 26 29 31 39 65 59 64 68 55 34 30 28 29 25 24 34 40 42 44 46 49 52 58 65 63 69 66 63 65 63 77 83 87 90 90 95 97 98 98
39 42 63 41 35 32 35 32 33 47 58 59 82 61 35 34 30 28 27 25 26 29 40 42 45 46 47 51 59 61 64 69 68 66 74 85 91 93 95 94 96 98 99 99
51 54 37 45 41 39 45 35 28 36 56 52 61 44 37 32 31 29 28 24 28 29 27 36 43 47 44 46 53 60 61 65 68 70 78 81 92 94 95 97 97 98 96 96
56 59 50 41 35 34 33 34 32 32 38 44 40 42 38 35 32 28 24 28 27 27 27 28 39 48 56 60 57 57 62 73 73 74 90 91 97 98 98 98 98 97 96 95
63 62 56 57 42 35 46 36 31 35 33 33 38 39 29 24 33 24 25 27 29 27 28 27 34 44 54 68 76 92 97 98 91 92 99 99 99 99 99 99 98 98 98 98
90 77 64 67 48 44 66 53 40 37 34 33 40 34 28 27 24 23 24 24 29 28 28 35 44 58 82 93 95 98 98 97 98 98 98 98 98 98 99 98 98 98 98 96
94 83 88 90 72 75 60 37 32 33 30 30 26 26 22 22 24 26 27 30 34 40 50 79 92 98 99 99 97 97 95 98 98 98 98 98 98 98 98 96 97 97 96 95
89 88 97 98 90 62 50 42 34 36 34 28 26 23 23 26 35 37 40 41 45 50 61 90 96 97 98 97 96 96 97 98 98 98 98 96 96 97 95 96 95 94 94 95
78 79 91 100 100 90 60 40 37 33 48 31 27 29 31 32 49 41 46 56 64 77 91 95 96 97 98 99 97 97 98 96 97 94 92 88 88 90 91 89 88 84 80 74
95 94 97 100 99 87 58 49 36 57 55 36 30 31 32 36 43 39 59 63 74 88 94 94 95 97 97 95 94 98 97 98 88 86 84 83 82 84 83 84 82 80 76 76
99 93 98 95 99 95 51 50 50 51 49 49 40 42 34 46 58 66 64 67 78 93 95 94 96 96 95 92 92 96 96 88 84 80 83 77 72 65 69 73 76 76 78 84
87 79 88 76 76 57 60 61 59 58 55 54 55 46 51 61 59 63 66 69 79 87 93 92 94 94 92 89 88 91 81 70 68 65 64 65 63 58 63 74 79 83 80 84
62 64 76 73 56 55 55 59 54 44 46 44 49 56 62 59 67 65 66 71 77 77 83 85 86 86 83 73 67 69 68 64 58 56 58 60 65 66 66 66 73 84 87 88
45 60 64 64 52 49 48 47 41 39 44 44 50 51 56 58 62 65 67 71 74 73 68 67 66 63 64 61 64 61 56 53 56 58 59 63 68 76 79 82 82 82 92 92
50 63 76 74 52 53 38 46 46 50 45 47 47 46 55 56 63 63 66 69 68 65 56 56 58 61 62 61 60 57 52 51 56 65 74 83 84 84 85 86 92 89 88 85

GFSCGP_sfc_rhum_087.txt.gz
RH
38 45 45 41 41 38 41 44 46 35 28 40 35 43 35 52 65 95 92 89 95 94 93 87 90 93 95 92 92 93 94 93 89 91 82 83 91 93 91 87 84 83 89 94
41 48 34 34 36 38 40 45 43 36 29 36 37 38 35 61 65 80 92 98 94 88 93 89 92 92 90 91 88 89 89 91 85 81 61 65 74 83 87 88 86 86 85 94
36 34 30 35 39 39 40 44 43 41 32 32 38 38 33 52 68 77 90 91 91 90 94 85 89 92 91 91 88 84 87 88 79 72 65 67 77 90 89 89 91 88 87 88
33 24 27 39 37 37 44 35 35 38 42 46 40 52 40 44 69 76 82 96 95 89 87 79 83 85 90 86 90 88 88 87 84 80 72 72 67 67 64 84 88 92 90 90
35 29 28 31 37 34 38 34 38 39 42 50 47 52 44 62 69 71 72 82 90 93 91 90 94 94 91 84 96 96 88 86 80 84 83 78 76 78 91 95 92 94 94 89
31 26 26 25 24 31 30 37 39 49 49 62 54 55 57 51 50 56 60 62 71 89 90 90 90 88 97 97 97 97 92 86 82 82 82 85 80 86 91 91 96 96 94 94
31 33 30 29 33 32 37 45 62 65 63 66 59 74 56 40 36 40 52 56 60 75 88 91 92 92 95 97 97 95 91 88 81 81 78 78 78 85 85 81 88 92 95 96
24 36 32 25 28 35 38 39 66 61 77 63 67 70 48 38 33 34 44 45 54 70 77 82 83 85 89 90 91 89 86 83 80 80 76 74 76 76 83 82 87 91 87 85
52 43 29 23 23 24 35 43 34 56 79 84 66 57 42 36 34 30 48 52 57 69 72 72 74 78 86 88 85 85 80 78 75 78 76 76 78 79 79 85 87 88 87 86
39 48 33 27 26 27 29 34 51 66 77 85 69 66 55 41 31 29 44 55 54 62 68 66 66 72 77 80 82 84 76 72 69 70 71 72 77 79 79 84 86 87 87 89
62 48 41 34 35 36 41 34 47 46 66 59 76 62 45 44 37 30 29 47 56 55 62 66 64 62 68 75 76 78 76 71 68 65 71 76 80 82 85 87 86 87 89 95
69 54 49 36 29 30 30 31 38 60 64 70 71 57 33 39 34 31 32 28 46 54 52 57 62 62 63 69 73 70 73 70 68 68 68 74 81 84 88 91 88 90 95 97
82 87 66 50 37 29 33 35 38 53 65 71 75 63 34 38 36 35 33 30 28 46 55 54 56 62 62 64 68 71 72 69 69 71 74 72 77 85 89 91 94 97 96 98
79 94 86 57 46 37 44 34 35 46 68 63 60 50 39 35 37 31 31 31 28 31 41 52 57 55 57 59 64 67 69 71 72 73 74 76 77 85 86 89 96 97 98 97
86 97 75 53 32 30 40 40 39 43 46 52 46 47 37 36 34 31 31 30 29 28 30 42 46 52 53 57 58 63 69 71 72 74 74 76 78 90 94 97 97 96 96 95
83 98 93 63 49 32 32 31 40 45 44 40 40 39 34 31 34 34 28 26 29 28 30 31 38 45 54 62 63 64 70 74 79 81 83 98 99 99 99 99 99 100 99 99
97 98 92 78 53 54 68 50 38 34 42 40 45 41 35 37 32 32 30 29 30 30 29 31 34 41 46 74 86 89 95 97 94 98 99 99 99 99 99 99 99 99 99 99
87 98 99 96 72 82 55 41 37 42 34 37 32 29 29 26 28 28 26 27 31 32 33 61 84 92 97 95 99 99 98 99 99 99 98 99 99 99 99 99 99 99 99 98
74 88 99 99 84 69 62 51 47 49 47 35 33 27 25 26 37 36 41 37 33 43 59 84 93 98 93 97 97 98 98 98 98 99 99 99 99 99 99 99 99 98 98 98
74 77 91 99 98 89 68 44 43 45 64 35 30 36 32 35 46 38 42 53 54 77 92 98 99 96 95 97 93 97 99 99 99 98 97 94 94 96 96 96 97 96 95 95
100 99 98 98 99 87 66 57 54 88 72 48 34 36 38 36 40 37 62 70 86 95 99 98 98 98 97 96 92 98 96 97 92 89 89 87 87 88 88 89 87 83 85 86
94 99 99 99 99 94 52 63 64 59 64 51 43 35 41 36 53 63 67 84 94 98 98 97 98 99 98 96 96 95 95 87 84 84 85 81 77 77 77 81 80 79 85 91
91 74 90 82 81 63 56 58 57 57 56 55 55 43 43 56 64 70 80 93 96 97 98 94 96 97 96 95 93 95 87 78 71 65 65 66 66 68 74 82 85 86 85 91
64 64 85 80 58 60 56 57 65 59 49 44 50 56 61 60 67 72 79 91 96 97 98 94 84 80 83 80 76 69 62 58 60 66 69 70 74 76 75 77 82 89 91 94
56 71 72 70 58 54 44 51 55 50 48 49 46 49 60 64 70 71 87 89 87 78 69 67 69 69 67 62 60 58 58 58 62 66 69 71 70 76 84 87 90 92 98 99
53 55 75 64 48 53 49 41 51 55 52 50 47 48 60 59 69 73 80 74 66 66 64 66 68 69 67 66 66 62 59 61 69 80 83 88 89 93 94 95 96 97 96 95

GFSCGP_sfc_rhum_090.txt.gz
RH
40 49 53 40 48 42 43 48 50 43 34 39 38 39 32 43 67 82 98 93 89 98 79 88 91 95 95 95 94 95 96 94 89 92 92 96 93 94 96 86 84 85 86 85
50 48 35 38 41 42 43 47 47 40 31 36 38 37 32 47 58 64 83 98 97 98 93 90 93 95 94 94 92 92 95 94 80 86 85 92 89 86 94 92 90 87 92 89
38 37 34 38 44 44 45 45 47 43 35 39 44 44 35 44 65 76 90 94 93 96 96 80 94 96 94 94 92 88 89 92 84 81 84 84 85 89 85 92 92 89 88 95
38 28 29 41 41 40 49 39 38 40 50 57 43 60 43 37 53 76 84 95 95 93 94 86 78 94 94 92 85 84 85 89 83 77 77 81 76 73 57 81 83 88 90 90
41 33 34 33 42 39 42 38 44 46 53 62 50 60 48 61 48 50 69 85 93 91 92 92 79 79 87 86 86 84 86 82 77 76 75 74 76 70 82 84 84 89 89 90
36 31 29 29 26 37 38 45 46 54 58 72 52 53 57 47 46 46 56 73 81 94 94 91 87 78 79 79 88 93 88 89 85 84 84 79 74 80 83 87 93 96 95 95
23 26 32 30 33 38 41 48 66 69 73 72 54 74 54 40 37 41 40 60 71 80 94 95 97 96 88 87 84 91 89 91 87 87 84 81 80 80 76 75 79 95 95 95
23 24 23 30 31 37 42 46 71 65 71 60 72 79 54 41 38 39 37 47 65 76 83 91 94 95 94 90 87 88 89 92 89 87 84 82 82 81 82 80 80 83 82 86
53 32 28 24 24 25 38 52 40 53 76 82 68 62 42 39 32 36 34 57 66 73 79 81 87 89 92 95 95 93 94 91 88 88 86 84 85 83 78 88 93 90 93 90
65 64 36 31 29 28 28 32 48 68 75 80 70 72 52 39 35 33 34 59 62 72 77 74 78 82 84 88 90 94 90 88 83 84 84 81 83 84 82 88 92 90 92 94
79 71 52 38 39 38 42 39 50 47 64 64 69 64 51 38 35 39 31 40 61 67 74 72 68 70 76 84 89 91 90 85 82 78 81 81 82 82 84 84 84 88 92 91
88 96 80 49 32 32 36 37 35 49 58 76 68 47 38 39 39 38 31 29 46 63 66 73 73 73 73 82 86 87 87 84 80 73 71 76 80 82 85 86 83 85 89 89
65 96 91 62 43 39 40 37 38 53 62 50 69 57 38 40 37 35 37 32 35 55 66 66 75 73 71 75 79 81 82 82 77 77 75 74 80 83 86 86 86 88 91 91
71 82 84 93 86 73 69 39 34 45 71 55 53 53 43 36 37 33 34 34 33 32 52 66 69 72 70 69 73 76 77 74 76 76 76 78 80 82 84 86 88 92 94 92
78 91 70 76 74 83 88 52 34 38 45 55 51 49 41 38 36 34 33 34 32 28 33 54 66 65 68 71 70 72 76 78 74 74 76 74 76 83 87 88 92 96 95 94
92 90 86 89 70 74 76 46 41 46 46 51 49 49 40 36 40 37 33 31 31 32 29 30 44 59 66 66 70 72 75 78 82 81 78 78 84 86 92 92 93 95 96 97
90 99 96 89 78 88 77 49 37 38 48 46 52 44 41 36 38 38 33 35 31 30 30 33 34 44 56 69 76 82 86 89 90 87 90 97 96 96 98 99 99 99 98 99
75 98 100 98 91 97 63 42 34 41 38 42 41 38 38 34 30 33 34 33 33 31 34 35 53 87 98 95 96 98 96 99 97 99 99 99 99 99 99 99 99 99 99 99
62 79 98 98 97 87 74 53 51 52 44 43 41 41 36 34 37 32 34 32 30 37 53 86 97 93 91 93 95 97 98 98 98 99 99 99 99 99 99 99 99 99 98 98
67 72 92 99 99 88 72 61 56 49 73 44 44 46 41 36 47 37 37 53 72 87 94 98 94 90 91 98 95 97 98 98 98 98 98 98 97 98 98 98 98 97 95 95
96 92 95 92 96 90 69 67 65 81 71 52 55 44 43 36 37 36 65 90 96 98 97 95 91 93 97 93 91 97 96 97 94 90 89 90 89 92 92 90 89 90 92 92
93 98 99 99 98 93 58 76 95 66 71 60 56 55 52 47 50 59 85 97 98 97 98 95 96 97 97 92 91 95 95 87 80 76 78 79 81 80 80 84 86 86 90 94
86 86 88 91 85 63 57 52 55 66 67 66 58 57 61 49 48 75 96 98 98 97 96 93 94 95 92 90 87 90 75 70 72 73 77 76 76 78 78 83 86 90 87 92
64 65 80 82 58 58 57 56 58 57 60 66 53 62 61 62 73 92 98 97 96 93 87 80 84 83 78 70 66 65 67 67 68 74 77 77 80 82 82 84 87 92 93 93
67 70 71 75 59 53 49 50 49 55 58 59 61 58 61 69 82 90 95 82 75 72 69 68 71 70 67 63 63 62 66 69 75 76 78 85 86 87 89 92 94 92 97 98
63 59 76 74 56 61 56 54 57 62 64 72 65 56 68 75 84 74 72 69 71 72 71 74 75 78 78 78 80 78 75 76 81 88 92 94 93 92 91 91 95 96 97 96

GFSCGP_sfc_rhum_093.txt.gz
RH
40 37 50 37 37 32 33 35 34 33 28 28 25 26 24 22 35 47 63 72 74 73 67 72 84 91 93 92 93 95 96 96 95 94 96 95 94 96 96 93 89 86 81 79
41 34 34 32 38 39 35 35 36 32 28 31 28 27 22 24 28 36 48 67 68 74 73 73 80 92 94 92 89 92 93 96 90 86 94 95 91 91 92 89 87 85 83 82
31 34 31 35 38 42 39 41 40 35 30 30 31 31 27 24 37 44 54 55 64 72 72 72 82 88 93 92 88 90 88 92 92 88 91 95 95 94 86 84 87 75 77 84
34 28 32 37 35 35 39 34 35 36 37 36 31 36 32 25 24 32 52 69 69 71 71 68 71 84 86 87 85 85 85 90 88 80 79 86 84 89 78 76 75 84 81 90
40 32 34 33 37 36 36 34 36 36 41 41 36 40 32 35 30 25 27 60 68 68 71 69 66 71 80 82 84 83 85 83 80 77 80 76 77 78 83 81 76 84 88 89
29 26 29 28 26 35 34 36 36 44 46 54 44 39 33 31 29 26 30 42 63 68 68 66 63 68 74 82 82 84 85 85 84 82 77 75 77 75 69 76 82 84 81 85
28 29 26 27 28 36 36 38 44 57 60 51 40 45 34 31 27 27 26 27 60 65 68 69 69 68 74 82 82 82 82 83 81 81 76 75 75 71 65 63 64 76 74 70
25 22 26 25 28 33 39 37 45 48 54 43 57 52 36 33 28 30 32 30 48 64 66 66 68 69 72 77 78 79 77 76 77 77 75 70 68 64 63 62 61 65 62 63
58 30 28 20 25 25 38 44 31 42 58 55 44 48 36 31 29 29 25 30 39 57 64 63 65 71 74 82 80 81 78 77 77 76 74 73 72 68 63 65 67 67 65 63
63 75 35 28 24 24 28 33 49 49 50 44 44 52 32 31 25 24 25 29 41 53 61 62 63 68 70 75 82 84 81 80 78 75 74 71 72 70 67 70 71 69 69 70
62 73 60 41 34 33 34 34 36 40 53 45 44 42 43 34 27 29 26 30 34 47 55 58 60 62 64 71 76 85 86 81 77 73 74 74 73 72 73 72 71 69 70 69
74 78 84 58 41 34 29 35 32 44 42 59 50 36 30 36 32 35 31 28 28 42 50 55 56 59 63 68 72 74 80 79 76 72 72 74 76 77 76 76 72 72 73 73
44 81 75 57 43 48 52 48 48 42 46 45 59 42 32 32 34 31 30 28 31 35 46 55 57 58 60 63 69 69 72 72 70 71 75 73 79 78 80 76 73 74 74 72
58 66 54 54 69 61 69 63 53 71 68 45 43 34 31 31 33 27 29 30 30 31 40 47 54 56 57 61 64 66 70 69 69 68 70 72 73 74 72 73 74 78 73 71
67 83 73 59 50 46 55 58 53 64 70 55 37 35 31 26 27 26 26 29 30 27 27 41 46 52 57 60 63 65 67 71 70 69 71 71 70 71 72 76 76 75 76 77
83 97 81 76 62 59 58 50 57 63 64 53 36 34 32 29 31 31 29 28 28 27 26 25 36 48 55 60 61 64 67 70 70 70 72 68 69 70 76 77 78 80 81 81
76 82 96 78 62 64 76 58 60 56 49 40 46 36 32 32 33 32 30 30 30 29 30 29 30 39 49 56 62 63 67 71 74 70 68 68 69 69 71 73 78 79 82 85
75 81 89 89 94 88 46 46 51 57 44 33 33 33 31 28 28 28 27 27 29 30 29 31 36 56 72 76 71 77 72 72 75 77 83 83 83 89 91 90 94 95 99 99
69 75 80 84 80 62 35 62 62 76 69 43 31 29 28 28 32 31 28 28 30 33 38 57 66 74 82 87 88 89 94 92 95 97 98 98 98 98 98 99 98 98 97 97
66 69 75 89 96 77 52 52 66 55 68 56 45 46 40 34 44 29 37 51 72 78 83 86 85 87 90 90 85 92 96 96 97 97 97 96 95 96 97 97 97 93 93 94
87 87 90 84 90 69 56 63 60 78 76 71 60 51 52 41 36 44 80 94 90 89 88 86 85 91 92 88 86 93 94 96 92 90 90 91 90 90 90 91 90 90 92 92
82 95 90 82 97 88 58 69 71 86 79 60 60 54 63 48 52 81 89 93 93 95 96 93 94 95 90 86 87 91 88 82 80 82 83 83 82 79 82 86 87 86 89 92
64 62 81 96 84 80 62 56 55 62 66 60 69 57 58 65 72 92 96 95 96 92 91 87 88 87 81 78 74 81 79 73 75 75 78 78 76 77 78 83 85 88 86 91
51 54 72 70 57 58 55 50 53 52 59 54 61 64 71 86 92 93 94 87 83 82 80 70 67 70 72 68 67 66 68 68 70 76 78 79 80 82 80 80 84 90 92 93
44 57 63 64 51 58 51 49 48 55 53 57 55 68 76 86 86 81 80 78 76 74 71 68 71 73 74 70 68 64 66 68 74 75 77 79 81 84 87 89 88 88 96 93
51 50 62 64 47 57 53 52 54 67 69 66 64 63 72 75 77 74 76 74 74 77 75 76 76 78 80 79 76 71 69 72 77 81 82 85 85 82 81 84 91 88 84 83

GFSCGP_sfc_rhum_096.txt.gz
RH
14 25 30 21 23 20 17 20 19 15 16 21 18 14 12 12 13 16 19 26 31 37 39 46 57 66 83 83 85 93 92 90 92 94 98 97 98 97 98 96 96 94 79 66
24 21 14 18 20 22 22 23 20 16 15 20 18 15 13 13 14 15 16 22 28 34 43 49 57 66 81 80 81 90 90 90 87 88 96 97 95 96 96 96 96 93 81 66
33 20 17 14 23 27 24 24 22 21 17 18 20 19 13 11 15 18 22 22 24 30 40 48 60 76 81 83 75 80 80 91 87 89 92 95 96 96 95 96 96 92 85 68
29 19 20 22 22 21 27 19 22 22 21 24 20 20 13 14 16 14 14 23 28 30 38 42 51 65 83 79 68 70 71 86 84 83 82 88 89 85 80 86 81 86 87 83
30 28 27 25 24 22 26 22 20 25 24 23 22 24 17 15 20 16 14 15 27 33 38 42 45 54 72 75 76 76 70 85 82 78 82 85 83 79 92 84 69 78 81 79
26 18 23 24 20 22 23 29 29 29 30 38 29 23 17 15 18 15 15 19 27 33 38 40 41 44 55 70 72 76 74 79 80 71 69 76 73 79 87 88 81 69 75 68
18 21 17 21 28 24 28 35 41 46 44 40 22 27 21 18 17 16 16 15 26 33 39 42 42 44 50 64 69 72 73 78 74 69 69 76 69 69 75 73 73 57 60 71
22 23 18 18 21 24 33 35 38 39 37 31 27 31 22 18 15 15 19 19 23 33 39 41 40 42 48 59 68 71 70 72 74 76 74 64 58 67 63 58 54 62 54 54
41 30 23 15 17 18 26 36 26 32 28 39 28 27 24 19 19 18 17 16 21 29 36 38 39 43 44 55 62 68 65 68 69 70 70 67 59 60 58 56 55 51 51 48
34 50 28 24 20 18 20 18 37 34 44 39 24 25 24 21 19 15 17 16 18 24 32 36 38 44 43 49 55 66 58 58 61 64 64 61 58 56 54 55 56 55 51 50
36 44 38 33 26 21 21 26 28 25 30 38 36 24 20 20 18 17 17 17 19 25 30 34 36 40 44 48 52 67 67 58 56 56 61 63 60 59 59 56 55 55 56 54
36 44 49 42 31 31 35 28 23 32 31 32 34 28 18 19 20 18 19 20 19 24 28 31 36 39 43 48 51 61 76 68 61 56 56 59 60 59 60 61 56 56 55 56
40 52 50 43 38 40 42 38 41 42 38 40 48 32 17 17 21 23 21 17 19 22 27 30 34 38 41 44 48 50 59 63 58 55 57 58 63 62 63 63 63 59 60 59
48 43 40 35 39 34 44 42 38 45 60 41 34 28 21 18 18 18 16 17 17 21 25 30 34 34 37 41 44 46 49 53 54 53 55 59 60 61 61 63 64 64 62 61
41 53 38 36 31 27 29 29 29 39 39 50 42 35 24 22 19 18 17 17 19 18 18 23 30 32 34 38 42 44 46 50 50 52 56 57 58 59 60 64 64 63 62 60
60 57 58 55 40 38 38 28 26 28 32 32 33 36 28 22 18 18 17 16 16 18 17 16 21 28 33 37 41 43 46 51 52 52 54 54 56 55 59 60 61 61 59 58
64 61 64 56 44 51 63 43 31 25 23 36 45 33 24 22 20 18 21 20 18 19 18 18 19 23 30 38 42 44 47 51 55 55 53 54 55 56 57 57 59 63 71 72
66 68 72 71 64 82 33 30 28 30 34 33 36 33 26 22 19 16 14 18 20 19 19 19 21 25 31 33 40 43 45 52 57 56 54 55 57 58 56 60 64 82 96 96
52 58 74 72 50 36 31 26 42 46 36 36 47 32 23 20 19 20 17 19 22 33 25 24 25 36 47 48 48 48 50 54 61 76 73 71 74 86 94 97 97 96 95 94
45 60 69 65 67 58 24 35 42 38 45 51 48 52 47 40 38 23 19 42 51 54 49 47 50 57 63 67 67 78 86 92 95 95 94 91 91 93 94 93 93 91 91 92
88 91 91 77 80 44 26 34 45 62 56 51 55 53 53 51 38 35 61 75 64 71 76 74 79 84 82 82 84 90 90 93 88 83 82 83 84 87 87 88 88 89 91 90
74 91 91 83 93 78 41 68 93 83 61 51 59 59 59 51 48 64 82 92 86 92 91 86 88 87 81 76 77 84 86 78 76 75 78 80 80 77 78 83 84 84 86 90
47 38 48 62 65 42 41 66 66 62 57 45 69 70 54 61 60 85 91 93 92 88 79 74 75 79 77 75 75 81 79 74 74 74 76 76 75 75 75 80 82 84 82 88
31 31 48 55 36 50 60 68 63 47 41 54 52 53 63 82 83 92 88 86 82 76 75 71 72 76 78 71 69 69 70 68 68 72 72 70 71 72 72 72 80 86 86 87
35 34 38 40 35 34 34 38 36 33 46 55 59 56 67 80 86 84 83 80 74 76 73 70 72 72 71 67 66 62 61 62 66 69 68 70 72 76 81 82 80 82 90 89
38 39 43 46 34 36 35 31 34 37 44 53 64 59 62 65 70 71 76 76 76 80 76 75 74 72 71 69 68 64 60 60 66 72 70 74 72 71 71 76 87 88 85 84

GFSCGP_sfc_rhum_099.txt.gz
RH
17 14 14 13 18 18 20 17 16 14 12 13 15 15 11 9 9 11 11 11 13 18 23 31 39 47 56 75 76 88 85 87 90 91 93 97 97 96 97 93 91 89 86 78
20 18 13 10 12 19 21 22 21 16 13 14 16 16 13 10 9 9 11 11 12 15 25 35 42 49 64 72 74 89 85 85 85 85 94 97 98 96 95 97 93 89 88 83
24 19 14 17 18 16 20 24 24 21 16 14 16 18 16 12 10 9 9 12 12 14 23 34 42 50 60 69 73 75 81 82 86 90 90 96 95 97 98 98 98 95 89 84
17 15 20 19 19 14 19 17 19 20 20 22 16 23 16 12 9 9 12 13 14 14 18 29 38 47 56 65 66 64 72 75 87 85 89 91 96 96 97 96 98 95 90 80
19 21 24 23 20 20 18 16 19 20 22 22 20 20 17 14 13 10 11 12 11 16 20 28 35 41 48 58 68 70 72 75 78 86 79 90 92 94 96 96 97 97 94 82
13 12 22 23 20 19 18 20 21 23 23 32 24 23 19 15 13 14 12 11 13 16 22 26 32 36 46 62 68 68 75 71 81 82 83 84 84 85 94 94 92 94 94 93
19 14 12 18 23 21 22 27 39 38 39 39 21 23 22 15 11 13 12 13 17 19 24 29 33 36 44 61 67 67 70 76 78 80 82 83 83 80 86 84 82 78 79 86
23 21 13 13 19 21 26 29 44 43 38 36 22 24 18 13 12 12 12 14 14 19 25 29 31 35 39 54 60 64 66 69 73 74 74 71 69 65 71 72 73 77 70 68
32 27 17 12 14 18 19 33 23 36 33 42 39 23 17 18 17 14 13 13 14 19 24 28 30 35 37 48 54 59 58 58 65 70 65 66 64 61 60 71 72 67 65 60
33 41 21 18 14 17 21 15 31 29 50 44 24 24 24 20 19 15 14 14 14 15 22 26 28 35 36 42 48 56 51 51 56 63 65 60 57 59 57 61 61 64 62 55
21 38 30 26 27 21 22 26 24 22 24 37 42 30 20 15 19 18 14 15 14 16 20 24 27 31 34 40 44 54 50 47 52 54 61 65 58 54 56 56 58 59 57 54
21 39 46 31 20 23 27 20 22 37 33 26 32 30 17 16 16 18 18 15 16 16 18 22 26 30 34 38 41 48 51 46 47 51 55 59 59 56 56 58 56 58 57 57
39 33 39 33 25 24 33 27 24 22 25 29 42 32 15 15 16 16 20 16 15 18 21 24 26 29 33 37 40 42 49 46 44 45 51 54 59 57 58 57 60 60 58 57
46 39 34 35 34 44 39 34 33 34 46 36 28 21 16 16 16 16 17 16 15 17 17 22 25 27 31 35 39 40 48 49 47 46 49 52 54 55 55 56 56 60 57 55
41 51 31 25 22 21 28 26 24 28 29 42 34 27 22 20 18 16 16 16 16 15 16 20 23 26 28 32 36 39 43 50 49 48 50 52 53 55 54 57 58 58 59 55
31 55 38 34 25 23 27 22 20 18 20 22 24 26 18 17 17 20 19 16 15 14 13 14 18 22 26 29 33 36 39 45 48 48 50 49 52 52 56 57 60 60 58 56
79 56 48 57 27 26 42 27 20 16 13 16 24 22 18 22 20 20 20 17 15 15 14 14 15 18 23 27 31 34 37 41 45 46 46 48 49 51 53 53 56 60 65 68
63 59 67 62 51 66 29 18 20 26 21 15 12 11 18 21 21 17 16 16 15 15 15 16 16 18 19 24 30 35 36 41 47 46 44 45 48 50 51 58 82 93 92 94
48 58 76 71 50 31 23 20 25 30 32 23 26 28 38 33 26 21 14 14 14 18 23 21 23 19 23 24 30 34 37 42 47 49 48 48 50 73 86 94 94 93 93 94
42 52 69 68 63 58 26 32 43 38 58 44 45 53 51 44 52 27 22 18 32 34 33 31 34 37 39 36 36 38 46 67 91 88 88 85 85 87 89 91 93 91 91 92
66 86 80 71 76 48 24 20 34 62 72 57 49 43 50 56 59 49 47 50 46 47 50 52 50 54 68 71 78 89 89 92 86 84 84 84 84 86 87 89 88 89 91 91
82 93 85 69 95 82 26 33 58 72 64 57 44 41 50 62 66 63 67 70 69 74 74 68 74 82 81 79 80 83 85 80 79 80 82 81 81 78 80 85 85 84 86 90
72 47 62 60 54 33 30 50 56 65 73 61 51 48 59 73 70 76 85 88 82 74 75 75 78 80 79 77 76 83 83 78 78 79 79 78 76 76 75 79 81 83 80 86
38 28 39 41 33 32 33 43 43 61 60 55 42 45 65 86 78 82 84 82 80 76 78 76 76 79 82 76 74 75 75 71 71 74 74 72 73 73 73 75 77 79 80 83
38 43 46 40 32 30 28 32 48 54 37 33 43 64 68 86 81 77 81 78 77 78 76 74 80 79 79 74 72 69 69 67 70 72 70 72 74 80 81 78 81 86 91 86
33 38 44 47 36 39 34 29 30 33 34 39 50 66 70 62 73 78 87 89 86 85 82 78 79 76 73 68 66 64 59 61 63 67 69 77 77 76 75 79 86 81 80 79

GFSCGP_sfc_rhum_102.txt.gz
RH
20 16 14 12 12 13 15 18 25 28 23 22 17 15 13 12 12 12 12 12 13 14 21 37 41 50 61 75 77 79 86 87 90 94 97 97 96 96 97 94 86 89 91 86
23 26 16 12 11 11 12 20 26 24 22 24 20 17 14 13 13 13 12 11 12 14 26 40 45 54 71 75 74 78 83 88 85 88 92 96 96 94 93 98 90 88 89 84
21 16 12 15 17 18 15 17 28 32 27 24 24 21 17 13 13 13 12 11 11 14 27 41 48 57 72 76 74 77 76 86 86 86 90 96 98 97 97 96 97 88 85 83
14 12 14 16 20 18 24 16 17 18 24 36 24 30 20 15 14 14 13 13 12 14 16 38 46 55 69 73 72 69 77 86 85 84 86 94 98 98 98 95 94 94 87 87
13 12 14 17 16 17 22 17 18 22 26 27 24 26 21 16 16 14 13 12 15 16 17 37 42 49 55 70 76 69 77 84 81 86 84 93 98 98 98 98 98 95 93 88
16 10 10 15 16 18 17 21 23 23 26 38 28 26 24 20 17 15 12 11 14 15 20 30 38 45 52 71 73 75 76 80 84 87 85 88 93 96 97 98 98 97 95 92
18 16 12 10 17 20 23 29 42 46 46 43 24 27 25 18 16 16 13 14 18 23 27 31 38 43 51 73 74 78 77 82 84 86 86 86 89 90 93 93 95 96 94 93
24 22 14 13 13 19 23 30 49 67 56 49 47 60 26 16 14 14 13 14 18 22 29 31 37 43 52 69 72 74 77 78 84 86 86 85 82 86 87 87 88 88 88 85
32 22 17 14 12 14 22 32 26 43 41 53 51 34 22 18 18 16 14 15 20 23 27 30 35 44 52 66 72 72 74 68 80 82 82 82 78 77 82 80 80 82 84 85
28 42 24 18 12 13 17 16 33 38 62 67 40 37 45 36 28 21 18 18 19 20 26 30 32 42 47 58 64 69 67 67 69 75 78 76 75 73 73 80 82 78 77 73
19 30 29 21 26 23 20 25 27 30 40 56 58 39 31 29 26 23 24 19 22 20 23 29 31 39 41 52 58 66 63 61 68 70 72 73 72 70 68 72 77 75 74 72
16 25 39 27 28 26 35 26 26 38 39 39 42 37 20 29 29 26 24 21 20 20 21 26 30 38 40 49 54 60 61 58 63 68 69 66 70 70 69 71 67 68 74 71
31 37 40 29 19 17 26 27 28 26 30 37 55 44 21 24 28 23 23 22 20 22 20 24 29 35 39 46 50 56 58 54 56 60 68 70 70 68 71 71 73 72 71 70
43 42 49 47 27 35 48 38 35 32 80 44 32 25 20 29 29 23 20 24 20 20 19 26 28 32 37 42 46 50 56 53 53 57 63 69 71 70 69 68 69 72 71 72
36 46 35 30 24 21 25 29 32 34 33 60 45 34 28 28 32 25 21 20 18 16 17 21 27 31 36 40 45 45 53 54 52 53 60 66 69 69 68 70 71 70 69 67
30 41 33 37 27 23 23 20 25 26 24 23 24 25 18 17 17 18 18 17 18 19 17 15 20 26 31 37 43 45 50 56 55 55 58 59 65 65 69 71 72 73 72 70
63 49 40 50 33 28 38 23 21 22 20 21 26 21 17 18 18 19 21 21 19 18 18 17 19 22 30 36 39 45 48 56 57 57 55 56 59 62 68 67 69 74 82 87
66 86 65 69 54 71 33 17 17 21 18 15 16 14 12 12 14 26 27 20 21 17 18 20 25 26 25 32 36 43 42 52 58 57 54 54 58 60 62 74 90 94 93 94
43 55 79 73 55 37 25 20 33 56 48 57 64 53 42 38 40 35 49 46 42 34 26 33 34 34 29 32 37 39 41 46 52 55 55 54 59 86 88 94 95 94 94 94
40 48 65 74 68 59 28 30 25 29 55 62 54 66 51 41 68 46 56 53 52 52 48 38 39 41 46 64 48 44 52 66 86 85 84 83 85 88 93 92 93 92 91 92
64 71 80 82 89 53 25 24 25 50 74 73 55 50 55 63 51 53 61 64 58 63 67 62 76 79 77 76 78 85 87 92 86 83 84 85 86 88 90 91 90 91 92 91
82 91 87 74 79 76 33 37 59 66 50 55 56 53 59 58 56 63 68 77 77 77 76 77 83 82 77 74 78 86 90 84 83 84 84 85 84 82 85 89 91 90 90 92
95 52 71 57 59 44 38 42 50 50 54 53 54 50 51 59 64 71 83 80 78 77 76 76 80 82 80 78 80 89 86 81 82 83 86 83 81 82 83 88 90 92 89 90
51 58 64 72 52 59 47 34 39 41 44 41 42 45 48 76 83 89 84 80 80 81 80 77 80 85 87 81 80 80 80 77 78 82 83 83 86 86 84 82 81 85 88 88
62 42 45 47 50 45 42 39 40 38 37 44 39 48 76 74 92 89 85 80 81 81 82 80 85 87 86 81 80 76 76 76 80 81 84 86 86 87 86 86 86 88 91 88
38 39 48 68 58 54 56 36 31 37 35 43 50 63 66 72 83 86 95 95 93 91 87 87 87 85 85 83 84 82 77 75 77 82 82 87 85 83 81 83 92 90 87 80

GFSCGP_sfc_rhum_105.txt.gz
RH
34 39 32 20 14 12 14 18 20 17 20 28 29 32 27 23 21 17 19 22 21 20 36 47 58 73 90 92 94 93 90 93 98 99 99 99 99 98 96 92 94 93 90 86
39 40 26 15 13 13 14 18 19 16 22 23 29 36 33 30 25 21 19 18 17 23 46 52 70 78 91 94 92 85 89 92 97 97 98 97 98 98 96 93 94 91 89 88
38 32 24 23 23 21 20 24 24 20 19 24 33 41 38 28 21 17 17 17 16 28 51 60 70 84 94 94 89 80 86 93 96 93 96 98 98 99 96 99 96 92 87 88
25 19 22 22 22 20 27 23 23 23 27 34 33 48 45 33 24 19 15 16 16 23 51 58 71 90 93 94 86 75 82 90 91 90 92 96 94 97 96 91 95 93 90 87
24 18 18 17 15 18 23 27 26 27 33 36 30 33 37 25 22 18 17 18 15 16 52 59 66 83 85 88 87 76 82 90 87 89 93 96 99 99 96 93 95 94 92 88
25 19 19 18 16 16 26 34 31 32 37 46 32 33 34 27 22 19 16 15 18 16 48 56 62 76 84 88 87 77 86 88 86 90 93 94 98 98 99 98 97 98 93 92
29 24 18 17 21 19 29 41 61 63 60 52 30 34 32 28 20 18 17 16 22 25 49 58 65 75 86 91 87 81 85 88 91 91 94 96 97 91 95 95 94 97 98 96
37 39 24 19 20 20 34 37 68 70 73 51 41 63 48 26 24 21 15 16 26 46 49 55 59 69 85 86 88 81 82 83 90 89 93 95 96 95 89 93 92 92 93 94
49 37 28 26 23 16 23 37 29 51 49 62 54 43 33 44 42 34 18 17 28 40 47 55 56 66 84 85 86 85 84 80 86 86 91 95 95 94 91 87 87 87 88 90
36 50 28 22 25 25 22 23 40 50 76 81 51 43 47 50 55 43 29 26 25 36 41 50 53 63 79 80 81 83 82 76 82 88 88 88 88 86 86 87 86 86 85 82
22 35 37 27 32 54 64 35 31 34 56 74 78 57 44 65 66 61 40 26 25 30 37 47 51 59 73 76 80 83 84 77 81 83 89 89 84 84 88 84 86 86 86 81
27 33 44 31 23 44 59 68 57 40 47 56 55 51 27 42 42 54 42 32 36 32 40 40 48 58 70 74 77 78 80 78 80 76 81 86 84 81 83 89 84 83 83 83
31 56 75 50 29 25 46 49 61 70 41 44 64 55 27 30 57 53 44 36 30 23 23 36 47 56 66 69 76 73 74 75 76 74 76 78 80 82 78 81 84 85 82 81
49 49 56 70 59 43 44 32 36 78 96 90 68 52 35 36 53 54 46 38 28 23 29 42 51 48 59 62 71 70 71 69 75 76 77 73 81 82 77 79 78 76 82 82
47 60 48 41 36 34 32 31 26 29 36 83 66 71 51 40 46 46 46 31 20 19 20 22 47 57 54 58 65 65 67 69 71 76 80 80 82 87 84 85 86 80 81 80
51 61 50 50 35 30 35 31 28 26 24 28 29 33 26 18 22 21 28 22 23 22 20 18 23 47 52 53 60 63 65 64 66 70 77 78 80 78 84 82 85 88 86 80
76 70 70 67 43 39 51 39 30 25 20 24 31 26 22 17 14 49 61 58 58 58 57 33 20 20 60 56 51 60 63 62 65 69 70 74 77 77 81 80 81 82 90 88
75 86 90 78 73 82 43 33 26 24 21 28 61 67 60 57 49 62 63 65 66 68 68 69 56 54 37 47 53 56 60 61 67 69 66 72 74 75 79 88 92 94 94 95
53 70 92 96 81 68 43 34 44 47 58 73 68 68 63 55 52 74 63 66 70 74 72 75 82 81 79 75 62 75 66 65 68 68 68 67 71 92 91 95 96 95 94 95
48 59 77 93 90 82 46 47 40 38 79 78 70 74 66 59 88 72 71 73 75 78 78 82 82 78 81 84 75 70 78 90 95 93 93 91 90 92 94 94 95 93 92 93
71 75 82 91 94 79 46 38 38 68 86 77 70 68 68 76 69 62 75 81 80 80 80 85 83 84 84 85 86 94 93 96 93 91 90 89 88 90 90 92 91 91 93 92
96 86 91 88 94 86 47 49 64 81 68 68 68 65 70 67 66 74 82 83 81 83 82 81 87 87 80 84 92 95 96 90 90 90 92 91 88 85 86 90 89 88 88 91
98 78 88 80 77 77 74 82 80 65 64 67 64 60 63 73 84 84 91 86 82 82 79 78 82 86 84 82 84 95 93 90 91 91 92 90 87 86 84 88 89 89 86 90
97 86 100 88 76 77 72 67 62 55 58 50 50 58 81 89 97 94 87 81 86 83 84 82 85 89 90 84 82 83 82 81 83 88 88 87 89 90 88 88 90 90 91 91
70 89 98 96 82 73 74 66 51 52 48 47 59 79 86 86 91 88 92 89 88 88 88 87 89 89 88 82 83 81 82 82 86 87 87 88 87 88 91 91 90 90 96 92
58 74 84 99 84 88 69 49 56 56 55 62 73 77 76 80 86 87 94 94 93 93 89 91 91 90 90 88 88 84 79 82 86 88 88 89 88 87 84 86 94 94 94 93

GFSCGP_sfc_rhum_108.txt.gz
RH
38 28 30 15 19 19 22 21 20 17 14 25 28 33 27 28 27 26 26 27 25 22 36 56 73 81 90 94 94 95 96 98 98 99 99 99 98 98 98 96 92 95 94 90
43 50 30 23 20 18 17 17 17 14 15 20 24 24 18 30 29 26 28 26 22 25 63 70 84 86 88 94 94 96 96 98 97 98 98 96 99 94 94 94 93 91 94 89
44 39 31 30 29 21 18 18 18 20 21 22 30 29 28 27 33 29 27 23 20 21 63 74 86 96 96 96 95 94 95 93 93 96 98 99 99 99 97 97 97 96 91 87
36 29 32 34 34 30 36 26 25 28 32 36 28 38 27 23 26 29 26 22 19 36 56 66 78 96 96 95 94 94 94 88 92 96 97 96 98 96 96 96 92 93 92 89
32 23 30 31 28 26 29 27 30 31 37 42 36 44 25 29 25 22 22 19 17 20 52 65 75 84 93 95 94 91 94 91 91 92 90 94 96 95 95 95 98 92 95 88
30 26 24 23 19 20 22 31 38 41 42 51 38 41 32 33 27 22 18 17 17 20 50 59 68 86 94 93 94 92 92 90 91 91 93 95 96 96 96 95 95 97 95 95
33 29 26 22 26 23 28 43 60 64 64 50 33 41 33 29 24 25 26 26 29 25 45 65 89 89 94 96 95 94 90 95 90 91 94 94 95 96 95 94 96 91 98 97
47 49 30 25 27 28 30 31 50 65 64 49 38 53 52 35 33 44 43 41 34 27 41 66 80 83 89 91 93 90 93 94 90 91 94 93 97 93 94 94 95 94 95 95
52 45 32 30 34 31 32 45 30 50 60 65 54 41 31 26 59 55 53 46 39 62 60 67 76 83 86 88 91 94 91 92 88 90 93 94 95 97 93 93 92 95 94 95
32 50 30 25 26 40 38 30 41 56 70 59 60 58 53 56 68 63 63 58 46 48 64 64 70 84 84 85 88 93 86 90 87 89 91 92 97 97 96 93 95 94 94 95
24 39 41 31 40 44 61 62 66 43 66 58 77 64 69 71 69 73 82 63 53 47 47 60 62 78 83 85 89 93 89 85 81 81 90 93 97 96 95 88 89 92 91 94
34 36 40 34 24 30 47 58 66 91 70 77 66 53 28 62 61 74 83 60 45 36 41 62 59 75 85 87 89 91 86 85 84 77 86 88 93 94 90 90 91 91 90 88
32 46 69 36 36 45 56 44 40 75 91 88 87 55 36 40 62 69 79 75 48 45 43 52 68 70 82 84 86 86 86 84 83 89 88 89 90 94 96 93 93 93 89 89
49 51 51 56 61 48 41 34 34 75 95 89 76 73 46 40 52 66 68 70 53 54 43 49 75 77 82 83 83 85 85 82 83 84 86 93 94 90 92 94 92 91 90 91
49 57 53 48 44 40 39 37 33 34 44 79 59 46 30 36 47 56 63 68 48 46 39 45 62 75 82 86 86 81 82 83 82 81 76 86 87 89 86 91 92 91 89 87
69 69 58 58 49 44 49 41 38 32 30 29 31 34 23 39 33 45 44 55 61 67 68 71 52 63 72 77 84 82 81 81 81 83 84 81 85 86 89 89 89 88 92 93
74 73 74 63 56 58 66 48 41 35 29 29 35 33 65 64 49 68 76 72 74 71 71 76 77 73 81 68 72 81 84 81 81 84 82 83 86 87 89 89 91 93 92 90
77 79 84 84 74 79 40 39 38 36 31 40 58 71 71 62 75 70 71 74 78 75 77 83 84 81 77 80 72 76 82 86 83 83 82 83 84 84 88 91 94 95 94 96
64 75 96 92 86 58 46 40 60 66 54 81 81 78 70 64 75 79 74 73 81 81 82 85 83 82 82 86 84 76 81 88 86 84 83 82 84 96 97 97 97 96 95 96
58 66 78 97 90 88 62 52 43 54 85 80 79 82 75 67 90 77 83 79 78 80 80 84 82 81 86 92 88 87 88 86 97 98 98 96 95 94 96 95 95 94 93 95
94 84 88 82 94 82 51 37 38 90 85 76 70 71 77 76 75 67 85 82 79 82 84 83 86 89 87 92 92 95 96 97 97 94 93 94 92 92 92 93 92 93 94 94
97 96 94 86 96 86 64 75 72 80 75 75 74 69 72 75 84 90 85 87 86 90 86 85 90 89 82 86 92 96 97 96 94 93 93 92 91 88 88 92 92 91 92 94
98 98 90 80 76 69 80 82 88 81 67 68 67 60 74 93 93 88 88 91 87 85 88 87 90 88 84 84 89 96 98 92 92 93 94 92 89 89 89 92 93 92 90 91
99 96 99 86 90 92 85 76 71 62 58 54 55 76 91 97 90 88 87 86 88 88 88 84 86 90 92 86 85 86 87 86 88 92 91 90 90 91 90 88 89 90 90 90
96 99 100 96 98 91 78 83 72 66 59 61 80 88 90 88 90 90 93 92 90 89 89 87 89 90 90 88 89 85 84 83 88 88 88 88 87 88 90 92 92 92 95 89
78 83 84 96 90 86 74 67 67 63 69 79 80 84 83 83 89 87 91 90 91 94 90 92 93 92 91 88 88 89 86 84 88 88 88 90 89 88 87 88 94 93 94 93

GFSCGP_sfc_rhum_111.txt.gz
RH
34 24 26 18 19 23 28 27 27 25 18 18 16 18 17 18 29 32 30 24 26 27 25 30 78 89 95 96 94 94 97 98 98 97 97 98 98 99 99 99 89 88 91 94
33 49 29 16 17 20 21 23 22 18 14 20 20 19 17 23 22 28 29 28 28 24 31 64 92 93 94 94 92 95 95 98 98 98 98 98 96 98 98 97 96 90 92 92
26 31 32 36 34 27 25 24 25 20 19 23 26 27 26 24 29 31 33 30 27 27 27 65 93 95 93 94 94 95 96 97 97 97 98 99 99 99 99 99 98 97 93 92
30 25 29 41 41 35 43 26 22 22 36 39 29 39 26 27 25 26 25 23 27 29 30 59 88 97 96 93 93 95 96 98 97 97 98 97 97 98 96 95 95 96 95 95
35 30 40 35 34 34 37 33 36 35 38 46 38 51 29 28 25 24 23 22 25 24 36 67 81 88 92 95 97 97 97 96 92 96 96 97 98 97 98 95 94 97 96 92
28 27 26 26 22 27 28 32 38 45 46 56 36 43 30 33 28 27 23 22 41 38 32 52 66 86 94 98 97 98 97 90 90 92 96 95 96 97 98 98 99 97 97 93
36 33 30 26 31 29 28 40 50 53 67 50 34 46 32 32 27 32 52 52 50 47 44 40 69 92 96 98 97 97 96 91 88 92 93 95 95 92 95 95 96 95 97 98
49 47 34 28 30 34 34 39 54 45 53 43 40 56 42 37 46 60 55 59 55 53 48 52 65 87 94 94 96 95 96 92 88 90 93 91 93 92 92 89 92 92 90 96
52 46 32 26 32 36 43 41 34 43 48 65 48 44 32 42 60 60 64 71 64 59 52 50 74 85 89 94 95 94 95 89 90 88 96 94 93 94 93 93 93 95 93 95
44 52 32 26 33 38 50 43 45 58 65 52 50 64 58 49 68 64 69 80 74 63 57 49 79 86 88 88 92 94 93 89 94 85 93 96 94 94 95 94 96 98 97 95
28 41 46 34 38 38 52 71 74 71 66 68 59 51 66 74 77 78 77 75 76 71 66 57 58 83 87 91 94 94 95 95 95 88 91 96 95 95 96 97 94 96 97 96
30 39 41 35 31 34 52 77 83 86 88 85 91 73 48 47 80 77 78 64 75 78 68 54 51 88 94 95 90 93 94 95 93 92 88 95 97 95 95 96 96 95 96 95
40 45 44 34 49 46 56 45 40 74 88 77 92 75 38 40 41 75 78 73 82 83 65 55 50 90 92 92 92 88 93 91 89 89 87 91 95 95 95 96 94 95 93 92
55 49 40 44 57 50 45 40 33 70 93 66 70 58 49 37 34 63 69 72 78 80 70 67 71 89 90 92 92 87 87 90 90 89 81 89 92 94 95 96 96 96 95 93
60 54 55 52 48 46 46 49 46 44 50 67 40 47 39 32 39 42 59 63 70 78 80 74 77 89 92 91 90 89 87 92 92 93 90 83 89 91 96 98 97 95 95 95
65 71 65 62 54 51 58 53 51 48 44 40 37 35 23 30 41 44 55 59 68 78 80 75 74 76 77 82 90 88 88 89 92 93 91 84 92 94 96 98 97 95 95 97
74 76 74 55 61 61 57 46 50 44 38 40 45 31 47 68 62 62 70 71 80 81 81 81 81 79 82 81 78 88 88 88 88 90 90 90 94 94 94 96 96 96 95 92
78 80 83 84 69 72 42 38 38 47 42 48 34 47 78 73 80 80 80 81 82 81 82 82 82 80 81 81 84 81 84 88 90 89 89 89 93 94 94 96 98 98 97 97
74 78 93 88 79 46 39 31 56 80 81 75 55 79 76 73 85 82 79 82 83 82 80 81 81 80 83 88 89 85 87 90 90 92 91 88 91 98 97 98 98 97 97 97
70 75 79 99 90 77 52 53 50 59 91 89 88 90 84 76 96 84 84 81 80 79 81 82 83 83 85 90 92 92 94 94 94 94 94 96 97 97 98 97 97 96 95 97
97 96 93 83 93 73 51 44 54 87 97 79 82 80 78 80 77 75 81 83 80 83 85 83 87 91 86 88 93 98 98 98 96 97 98 98 97 97 95 95 95 95 96 96
97 98 96 94 94 85 65 70 79 82 78 76 78 68 71 89 86 88 88 89 87 90 87 84 86 88 86 87 94 97 98 97 93 92 94 96 95 92 92 95 95 94 94 96
98 98 93 78 78 73 90 87 85 90 77 67 69 61 77 95 85 84 86 84 88 88 86 82 86 88 86 86 90 96 97 94 92 92 95 97 96 97 93 95 95 94 92 93
98 99 100 94 92 90 88 84 85 80 74 58 74 94 94 94 88 87 86 88 89 88 90 83 87 93 95 88 86 88 88 87 88 92 92 91 92 92 92 93 96 96 94 95
99 98 99 99 99 95 81 74 70 62 74 80 84 86 88 90 90 87 88 88 89 90 90 88 91 93 95 90 89 83 84 83 88 88 87 87 86 87 89 88 87 90 92 87
91 71 97 98 82 96 92 74 75 84 88 86 84 88 86 84 87 85 91 91 92 93 92 94 91 91 91 90 90 85 79 81 87 87 86 89 88 89 89 88 94 92 93 93

GFSCGP_sfc_rhum_114.txt.gz
RH
29 30 30 22 19 21 31 31 32 32 21 19 19 19 17 16 18 22 25 28 27 26 23 30 42 76 96 98 97 96 97 97 98 98 98 99 98 98 98 98 97 95 93 91
32 48 33 18 17 21 25 28 26 21 17 19 20 19 18 18 21 21 21 28 30 30 24 23 48 93 98 97 95 96 94 97 96 95 92 97 96 97 97 98 96 94 98 95
24 26 29 30 26 23 25 25 27 22 22 22 26 32 29 26 26 27 29 32 34 29 26 25 39 94 97 98 96 94 95 95 97 91 89 99 98 99 100 99 98 97 97 95
26 21 20 40 40 31 38 30 28 31 34 48 34 46 29 28 29 27 24 26 26 27 32 28 41 93 97 96 96 95 96 94 98 98 90 95 92 96 98 97 96 95 97 96
29 37 32 24 30 38 48 36 34 35 42 49 45 46 35 24 24 24 26 27 35 55 52 49 44 86 94 97 98 97 92 94 97 98 96 92 96 95 96 98 98 97 95 94
26 28 34 35 32 31 32 36 37 48 49 60 39 40 27 30 29 32 34 52 61 63 59 54 47 72 96 98 98 94 92 95 97 97 97 97 97 98 98 97 98 98 98 97
36 32 31 27 32 31 32 38 46 39 65 49 37 45 28 29 29 60 68 67 71 69 62 59 56 72 96 96 95 92 91 97 97 97 96 97 96 93 96 96 95 98 97 98
52 49 37 31 31 34 37 38 52 43 46 38 44 53 42 36 54 64 67 73 72 72 63 62 59 58 92 89 92 90 90 95 96 94 95 94 95 97 97 95 95 95 94 95
59 49 31 26 34 37 42 44 38 45 49 58 45 42 32 46 59 63 63 72 81 72 68 61 59 55 94 91 88 91 88 86 94 94 91 92 92 92 94 96 96 96 92 93
45 59 33 28 40 29 44 50 48 59 61 53 49 58 50 70 74 71 73 76 72 59 66 61 57 56 57 92 86 93 87 83 91 92 89 90 92 93 94 96 96 97 94 93
36 42 42 36 35 37 48 63 71 66 73 76 81 51 65 61 78 79 78 74 78 68 80 70 60 58 58 89 90 94 95 85 85 86 88 94 94 95 95 96 96 97 98 97
41 47 46 34 38 41 68 78 80 83 94 85 89 82 48 46 52 52 80 76 78 76 72 74 73 68 90 93 92 94 94 91 89 92 89 94 95 95 96 97 96 98 99 97
50 53 45 44 50 42 53 41 62 80 89 87 93 70 43 35 32 35 76 75 82 80 71 70 75 76 95 93 90 92 93 90 88 97 89 96 96 96 96 96 96 97 97 98
56 56 47 44 44 44 37 40 40 76 94 71 71 51 30 34 35 30 35 72 82 80 73 78 81 79 80 94 93 89 92 88 91 95 89 95 96 95 95 94 96 96 95 96
62 57 50 50 47 48 47 48 48 49 54 67 36 35 26 28 24 27 26 67 69 70 72 79 85 84 80 82 94 93 91 91 90 95 88 89 96 96 97 97 97 96 95 94
64 67 68 61 55 54 58 58 57 55 49 48 43 43 28 26 24 25 42 62 69 71 70 76 87 80 82 81 83 94 93 93 93 95 90 86 96 98 98 98 98 97 96 96
73 70 75 58 60 58 57 45 48 50 49 48 53 41 33 33 35 75 80 81 82 81 79 84 88 85 87 85 87 86 91 91 95 94 87 88 94 95 98 98 98 98 99 97
78 84 82 82 70 75 36 42 39 46 42 42 39 37 50 47 85 91 88 88 86 83 82 82 86 85 84 87 88 91 86 90 92 94 88 91 93 93 96 98 98 98 98 98
77 78 92 89 84 50 42 32 50 82 74 64 64 64 58 76 90 93 88 84 85 83 81 80 82 83 84 86 88 93 92 92 91 92 94 95 94 97 98 98 98 98 98 98
85 77 78 90 89 82 45 51 69 78 76 82 94 94 89 84 94 91 89 80 81 80 81 82 82 82 83 84 89 96 97 98 98 95 92 93 97 98 98 98 98 98 96 97
96 97 94 91 95 69 50 42 57 83 80 93 84 88 88 88 91 86 80 84 82 84 86 82 80 84 86 86 93 97 97 98 99 99 99 99 98 98 97 97 96 97 97 97
98 98 97 96 96 86 83 84 89 94 88 85 86 82 80 95 85 87 85 86 89 90 85 83 85 87 84 85 92 96 97 97 95 95 96 97 97 95 95 96 97 96 96 97
98 98 96 90 78 89 92 89 89 84 91 85 68 66 92 94 83 89 86 87 86 86 87 81 86 90 87 85 88 96 96 91 93 95 97 96 95 96 95 96 97 96 94 95
97 100 99 99 91 94 91 86 81 90 93 82 97 93 92 91 88 90 84 86 89 88 91 84 88 93 95 87 86 90 90 88 86 92 94 94 97 96 97 96 95 95 96 95
98 100 96 99 100 92 81 82 82 86 84 88 83 89 90 91 87 86 89 90 90 91 91 88 91 92 93 88 87 86 87 86 90 89 87 91 88 87 91 90 89 89 89 86
84 98 99 98 98 99 97 91 82 86 87 83 83 89 81 81 85 84 90 91 92 93 90 89 89 89 89 88 88 83 85 88 88 91 91 91 89 89 89 91 96 93 93 92

GFSCGP_sfc_rhum_117.txt.gz
RH
23 24 26 21 20 15 22 26 25 23 18 18 19 18 15 13 13 16 16 17 18 20 18 20 26 29 35 59 65 74 81 84 87 91 97 97 96 93 95 95 86 86 91 94
29 39 28 18 18 18 19 23 25 22 17 20 17 18 17 16 16 16 17 18 20 22 20 27 32 34 49 63 74 78 78 87 81 81 86 87 92 94 88 90 88 93 92 94
24 23 25 24 21 20 20 24 24 19 17 19 21 23 22 20 18 20 22 22 22 22 39 41 43 45 54 67 80 80 79 85 82 78 81 82 92 96 97 97 97 96 96 95
24 20 20 28 31 24 30 20 18 19 29 32 26 27 22 21 22 21 21 24 33 44 45 43 45 45 54 61 75 77 82 84 83 80 79 84 89 94 92 95 95 95 94 95
31 31 25 23 22 26 26 32 26 29 33 34 32 33 26 22 17 20 23 37 48 50 49 48 48 48 51 68 78 80 83 84 86 88 82 78 91 90 86 91 94 92 94 93
27 24 30 22 21 27 34 35 34 38 38 40 32 26 20 19 23 24 40 47 55 54 51 47 47 45 48 80 86 85 86 84 88 87 84 82 89 89 93 92 98 91 96 96
31 22 23 27 29 31 30 33 36 43 48 29 29 33 24 24 34 49 52 51 55 50 47 48 48 48 49 68 85 83 88 89 91 87 87 85 85 83 82 90 91 96 92 95
47 48 31 27 27 30 36 33 32 25 28 24 35 30 30 48 50 49 50 53 50 45 45 47 50 51 50 55 76 86 86 88 87 88 88 86 81 80 81 85 90 89 96 95
45 49 28 28 30 27 38 39 28 29 37 40 33 31 37 45 46 39 40 49 53 52 51 54 55 55 59 59 60 87 87 85 89 89 89 84 81 84 86 89 91 92 92 90
32 41 33 31 31 34 38 36 43 44 49 45 36 36 42 42 40 32 32 43 52 52 55 57 58 60 63 68 61 81 86 87 88 84 82 77 78 77 82 82 83 84 89 92
35 39 35 30 46 41 42 52 62 51 59 38 39 34 45 42 39 28 25 28 47 58 59 55 56 58 56 68 74 86 92 88 91 83 78 78 83 84 88 88 86 79 82 82
37 46 46 35 41 44 58 72 68 57 68 68 57 44 39 39 31 26 25 25 40 58 61 56 56 53 59 68 85 90 93 89 89 79 77 78 82 86 89 90 85 86 94 92
45 53 52 57 47 38 38 30 59 66 64 69 64 35 38 26 21 20 24 25 28 63 57 54 55 60 66 70 78 92 92 88 85 84 79 82 82 90 91 86 91 90 93 96
53 46 48 58 50 38 38 33 32 56 56 47 41 34 21 20 20 20 20 22 25 60 58 57 59 70 75 74 77 88 94 91 90 88 74 81 83 91 91 91 92 92 92 98
52 47 40 36 37 40 39 36 35 36 32 39 26 25 20 19 18 20 22 24 24 51 56 58 70 77 84 78 78 84 92 95 92 90 82 80 85 91 92 94 92 95 93 93
56 47 52 52 42 37 43 41 44 42 39 38 35 35 25 23 23 25 25 28 48 60 67 74 75 78 86 82 82 83 90 96 92 90 83 80 91 92 93 95 96 96 96 94
62 56 49 44 37 42 51 40 38 36 34 36 35 27 22 28 26 28 35 50 68 71 73 74 78 83 82 85 85 90 90 91 91 90 81 82 91 94 95 94 95 97 98 96
64 67 63 59 54 63 30 31 32 35 32 33 34 33 32 33 32 34 66 75 80 77 76 75 77 77 76 80 88 91 88 89 95 90 83 86 88 93 94 97 98 98 98 98
71 66 74 75 60 40 34 27 27 35 35 46 58 65 70 67 50 60 78 75 76 76 75 76 76 77 76 78 86 92 91 91 95 94 87 83 83 94 98 98 98 98 97 97
72 76 72 78 75 74 34 50 48 53 51 79 86 94 85 72 74 61 82 77 75 74 77 78 75 73 77 81 85 91 92 94 98 95 88 84 86 96 97 97 97 97 95 97
96 96 93 85 92 69 44 59 48 50 72 83 96 97 82 90 84 86 81 80 76 79 79 75 76 81 83 81 86 92 92 97 96 98 97 98 96 97 96 97 95 95 96 95
97 96 95 94 95 84 78 63 73 81 82 93 94 84 85 89 86 85 79 80 81 84 82 77 83 85 83 81 86 91 95 96 97 97 97 98 97 96 96 96 96 95 96 97
96 98 94 92 67 73 76 80 78 86 86 86 86 90 93 89 84 83 80 80 83 85 86 80 84 87 85 83 85 93 94 92 95 96 98 96 96 97 96 97 98 96 94 95
87 94 99 98 92 92 86 78 75 79 86 80 82 86 84 86 84 81 77 80 82 86 89 81 83 88 90 84 85 90 89 90 91 95 98 100 98 98 98 96 97 96 96 96
95 97 98 95 100 95 94 96 86 83 81 82 80 80 82 81 85 83 86 85 84 85 82 78 82 85 88 83 84 85 88 87 91 91 95 95 95 94 94 94 95 94 97 94
88 97 98 98 100 100 100 100 98 90 89 84 81 80 77 78 84 83 88 86 86 86 83 82 78 81 84 83 86 86 85 88 91 90 90 94 95 96 93 93 97 93 93 92

GFSCGP_sfc_rhum_120.txt.gz
RH
18 17 18 13 14 13 12 11 12 10 12 14 14 13 11 10 10 9 10 10 11 12 11 12 20 26 31 33 32 38 40 48 56 69 80 88 87 86 84 81 78 82 80 92
21 21 10 8 11 15 14 14 12 10 12 18 14 12 9 8 9 9 10 11 12 13 14 20 24 29 34 39 43 44 46 53 55 67 74 74 80 78 77 84 80 82 79 87
18 14 15 18 21 20 18 18 16 14 11 12 13 12 10 9 10 11 13 13 14 19 25 27 31 33 36 39 46 44 44 54 61 57 71 69 75 80 91 92 91 85 74 75
16 14 15 19 25 23 26 15 15 15 19 18 11 16 13 13 13 14 13 16 23 28 30 30 30 32 36 46 52 49 49 56 74 67 74 72 74 76 73 76 87 81 76 81
21 20 20 22 18 18 22 17 24 26 20 18 15 20 12 13 15 14 17 28 33 36 36 29 28 31 31 46 58 57 55 73 74 77 68 66 64 57 65 87 85 84 93 88
26 19 18 19 15 16 16 22 29 28 24 31 21 20 12 13 13 15 27 35 35 32 30 28 27 30 32 41 56 70 69 74 80 82 71 66 64 63 72 86 79 83 94 94
23 24 20 21 22 27 22 32 37 43 37 32 12 16 15 12 21 28 36 35 34 33 33 31 32 34 39 45 46 59 77 78 86 88 74 69 68 66 72 75 78 78 94 96
27 38 30 22 29 29 32 33 34 42 33 24 18 20 21 33 33 32 32 35 36 35 33 32 35 40 43 50 52 48 57 78 82 90 87 76 68 67 74 72 70 81 90 92
30 26 27 29 33 26 36 48 27 33 29 28 20 33 38 32 27 25 25 27 33 34 36 32 32 40 43 48 58 56 52 65 80 89 86 82 78 66 65 69 72 76 83 89
29 39 24 34 42 40 35 28 35 34 43 30 16 25 24 34 22 14 12 13 20 26 30 32 32 36 36 42 50 67 62 66 74 83 88 78 73 63 65 70 73 78 86 90
22 36 29 25 54 75 75 54 51 41 31 32 29 21 24 30 26 19 15 14 14 20 26 32 35 33 33 40 46 61 77 78 78 83 88 80 74 67 69 78 77 78 84 89
24 34 40 30 27 37 50 91 94 78 50 35 31 29 24 31 28 16 17 14 16 15 27 32 34 36 37 44 48 56 80 88 85 84 88 84 75 64 68 69 68 70 70 70
39 35 36 27 35 50 57 36 44 62 69 51 50 30 28 30 22 14 16 14 16 16 24 29 33 38 45 50 52 57 73 84 87 85 88 87 79 66 70 66 70 81 83 82
48 36 38 38 60 45 43 50 35 36 54 45 34 25 22 17 13 12 14 14 17 17 22 29 37 42 45 49 58 61 82 86 91 90 90 89 76 66 65 66 78 84 84 84
38 38 27 24 24 25 36 39 32 32 28 36 28 20 15 13 13 13 14 15 17 20 23 35 43 49 52 58 62 69 83 86 89 94 93 85 71 72 68 73 81 81 83 88
34 43 34 34 26 27 33 26 26 24 26 22 20 22 14 12 12 15 17 15 20 27 39 48 51 53 58 61 70 80 85 89 89 95 92 76 71 73 71 75 83 88 90 91
56 47 43 42 25 25 35 26 23 22 19 22 27 19 14 15 16 19 20 20 32 43 56 56 56 57 60 62 70 85 89 88 89 94 92 77 68 70 73 75 81 93 97 96
62 57 52 56 40 58 22 16 20 24 20 16 17 17 17 19 24 30 28 28 48 62 58 56 56 58 59 61 66 82 86 89 92 92 94 80 71 72 70 80 91 97 96 97
42 57 64 68 45 29 24 22 24 24 23 17 20 28 33 45 52 40 43 60 61 61 58 57 56 59 60 66 71 81 86 88 90 92 94 84 77 79 84 95 96 96 97 97
65 63 62 56 70 62 34 30 28 32 44 53 61 74 86 88 84 76 70 66 66 64 62 60 60 61 67 73 74 81 86 92 90 94 96 88 81 90 96 96 97 95 96 96
88 97 90 71 90 54 35 40 37 60 72 64 82 99 100 97 95 87 78 76 70 69 66 64 65 72 77 76 77 85 86 93 93 94 95 93 92 96 94 96 95 95 97 97
95 95 92 84 92 82 49 45 75 69 68 81 92 96 96 89 86 83 70 71 72 72 71 68 71 75 74 76 79 82 89 92 96 95 96 99 97 95 94 96 96 95 96 97
94 98 94 92 77 73 71 81 66 65 82 89 91 81 82 82 78 71 71 74 72 74 72 66 68 72 74 76 79 87 88 88 93 96 97 97 97 97 95 97 98 97 94 95
83 87 100 98 96 91 98 94 95 80 86 79 78 74 73 77 78 78 75 75 73 68 66 61 62 65 74 78 79 83 84 87 92 100 100 100 100 99 99 98 98 98 98 97
95 93 93 98 94 92 91 98 98 97 97 96 69 66 70 69 74 76 79 77 73 68 64 62 66 64 69 79 82 83 84 84 91 96 99 98 99 97 97 96 96 96 96 93
79 97 94 95 100 100 100 100 100 99 97 89 71 68 64 64 67 68 71 75 77 76 70 71 69 68 65 76 83 85 86 85 89 90 94 95 96 97 96 95 97 96 94 96

GFSCGP_sfc_rhum_123.txt.gz
RH
17 14 15 12 12 11 12 13 13 10 8 10 11 12 11 9 10 12 10 10 8 8 7 8 11 16 21 25 29 29 32 38 33 36 48 56 68 84 84 83 67 76 84 80
14 20 14 10 9 11 12 14 14 11 8 9 12 13 10 8 9 9 9 8 7 8 9 11 16 21 26 28 31 35 34 37 36 34 43 54 71 83 82 78 71 67 73 87
16 12 11 13 14 11 10 14 16 14 10 10 12 14 12 8 6 6 7 7 7 10 12 17 21 23 29 33 44 39 35 36 41 42 46 75 81 86 91 84 75 69 71 75
18 12 12 13 15 15 20 13 13 15 18 20 13 16 11 9 7 8 8 10 12 15 20 20 20 22 27 35 45 44 41 38 43 49 57 81 84 85 84 80 79 70 69 69
20 19 18 20 17 14 19 15 17 18 22 20 14 14 12 10 12 11 11 13 17 23 24 22 22 23 24 35 40 52 48 45 50 58 59 74 84 69 70 68 77 77 74 68
14 12 17 20 15 15 17 22 19 23 27 32 23 18 13 13 13 11 12 19 24 24 25 22 23 24 24 40 47 42 53 54 69 74 75 80 81 70 68 65 74 74 81 80
11 11 14 14 22 18 18 27 46 44 49 50 19 18 16 12 10 10 17 27 26 26 27 25 25 27 30 37 44 44 39 54 66 76 77 83 81 77 66 68 72 79 90 86
20 18 19 27 23 25 23 26 43 55 49 34 21 26 17 11 21 23 24 25 28 27 28 25 25 28 30 35 40 50 42 43 60 70 78 88 82 76 58 60 68 69 79 87
26 21 13 25 32 32 30 45 27 41 36 40 27 22 27 24 28 27 23 24 29 29 27 24 24 27 29 28 35 51 54 44 60 72 73 86 88 77 62 58 72 65 80 80
24 32 16 15 32 29 60 34 59 63 83 58 27 26 31 31 26 22 19 17 16 17 19 20 23 26 26 29 34 46 53 54 56 64 74 87 88 80 69 64 70 72 68 83
21 23 19 16 28 44 59 64 38 45 58 44 39 26 20 30 23 17 15 14 13 12 12 17 23 26 27 32 37 45 50 60 67 67 74 83 90 87 78 70 72 71 75 73
23 42 31 21 20 32 44 57 98 92 50 42 36 33 32 25 19 20 18 14 12 13 11 12 22 25 29 35 39 42 53 55 67 74 76 79 88 90 80 74 64 68 69 74
40 38 49 29 15 38 56 54 57 71 87 87 66 57 34 32 23 16 13 12 12 13 12 10 16 22 28 35 43 46 49 56 61 72 83 83 88 89 83 77 70 77 73 68
43 42 40 40 30 67 43 65 45 44 64 57 75 73 68 68 24 11 11 11 12 12 12 12 14 23 28 38 47 51 58 59 66 80 90 87 89 88 82 72 74 80 72 67
40 48 40 29 19 17 18 23 33 44 46 50 31 33 50 23 13 12 11 12 12 12 14 18 22 32 40 45 47 50 60 62 69 82 90 90 89 92 79 78 80 79 77 72
33 71 42 36 24 20 19 17 22 26 29 28 26 24 14 13 11 11 11 12 14 14 17 23 34 40 46 48 50 52 61 71 73 85 88 90 92 88 80 83 82 82 80 78
55 53 46 47 27 29 31 19 16 17 18 25 26 20 14 12 12 14 18 19 20 17 38 39 46 47 49 51 52 59 64 68 79 86 83 87 90 85 76 80 80 82 87 92
54 53 52 60 46 59 23 13 13 18 17 16 15 13 11 14 24 28 26 24 25 40 45 46 48 48 48 50 59 68 65 71 79 86 84 86 90 82 71 81 86 96 95 97
30 44 58 72 60 46 28 38 29 31 28 17 18 18 22 37 48 35 50 49 54 58 53 51 47 49 50 58 64 68 74 71 77 85 85 87 94 76 72 92 98 96 96 97
67 75 76 60 86 67 52 28 26 29 47 44 52 56 59 64 92 76 77 64 63 58 56 54 51 54 60 64 66 68 75 77 79 87 90 89 94 78 87 98 97 97 96 97
76 82 93 69 87 49 67 41 35 66 82 67 71 93 98 97 95 94 88 78 72 59 61 55 54 61 65 64 69 74 74 83 85 88 91 89 91 94 92 96 96 97 97 97
95 92 79 87 90 91 85 53 96 90 63 83 86 95 100 97 92 77 68 74 64 61 56 50 51 55 58 64 72 74 76 81 83 92 94 95 98 98 95 95 97 97 97 97
93 98 96 96 92 96 93 98 96 94 91 93 96 96 70 71 68 68 69 68 62 56 49 46 47 50 53 57 71 79 80 81 87 96 98 98 97 99 97 97 98 97 97 96
91 86 100 98 86 94 98 94 97 98 97 97 92 65 62 69 66 66 62 58 55 51 51 48 50 52 55 57 64 77 79 84 93 98 100 100 99 100 100 99 99 99 98 97
85 83 88 99 88 72 75 99 100 98 95 94 88 61 62 62 65 63 65 62 59 58 55 56 60 62 60 58 64 76 81 85 90 97 98 100 98 97 97 97 97 98 99 94
62 92 93 92 95 95 100 99 76 89 77 69 67 65 59 59 64 66 68 68 71 70 66 68 69 70 67 62 66 80 83 89 93 97 97 98 97 97 96 94 97 96 93 92